[[{"header":{"parameterUnit":"m.s-1","parameterCategory":1,"la1":31.0,"la2":29.5877,"lo1":-88.7671,"lo2":-86.6584,"dy":0.0162,"dx":0.0185,"nx":115,"ny":88,"refTime":"2023-07-02T06:00:00:Z","depth":0,"parameterNumber":2,"parameterNumberName":"U-component_of_WINDS"},"data":[0.0,0.0,0.0,0.0,0.0,0.0,0.0,0.0,0.0,0.0,0.0,0.0,0.0,0.0,0.0,0.0,0.0,0.0,0.0,0.0,0.0,0.0,0.0,0.0,0.0,0.0,0.0,0.0,0.0,0.0,0.0,0.0,0.0,0.0,0.0,0.0,0.0,0.0,0.0,0.0,0.0,0.0,0.0,0.0,0.0,0.0,0.0,0.0,0.0,0.0,0.0,0.0,0.0,0.0,0.0,0.0,0.0,0.0,0.0,0.0,0.0,0.0,0.0,0.0,0.0,0.0,0.0,0.0,0.0,0.0,0.0,0.0,0.0,0.0,0.0,0.0,0.0,0.0,0.0,0.0,0.0,0.0,0.0,0.0,0.0,0.0,0.0,0.0,0.0,0.0,0.0,0.0,0.0,0.0,0.0,0.0,0.0,0.0,0.0,0.0,0.0,0.0,0.0,0.0,0.0,0.0,0.0,0.0,0.0,0.0,0.0,0.0,0.0,0.0,0.0,0.0,0.0,0.0,0.0,0.0,0.0,0.0,0.0,0.0,0.0,0.0,0.0,0.0,0.0,0.0,0.0,0.0,0.0,0.0,0.0,0.0,0.0,0.0,0.0,0.0,0.0,0.0,0.0,0.0,0.0,0.0,0.0,0.0,0.0,0.0,0.0,0.0,0.0,0.0,0.0,0.0,0.0,0.0,0.0,0.0,0.0,0.0,0.0,0.0,0.0,0.0,0.0,0.0,0.0,0.0,0.0,0.0,0.0,0.0,0.0,0.0,0.0,0.0,0.0,0.0,0.0,0.0,0.0,0.0,0.0,0.0,0.0,0.0,0.0,0.0,0.0,0.0,0.0,0.0,0.0,0.0,0.0,0.0,0.0,0.0,0.0,0.0,0.0,0.0,0.0,0.0,0.0,0.0,0.0,0.0,0.0,0.0,0.0,0.0,0.0,0.0,0.0,0.0,0.0,0.0,0.0,0.0,0.0,0.0,0.0,0.0,0.0,0.0,0.0,0.0,0.0,0.0,0.0,0.0,0.0,0.0,0.0,0.0,0.0,0.0,0.0,0.0,0.0,0.0,0.0,0.0,0.0,0.0,0.0,0.0,0.0,0.0,0.0,0.0,0.0,0.0,0.0,0.0,0.0,0.0,0.0,0.0,0.0,0.0,0.0,0.0,0.0,0.0,0.0,0.0,0.0,0.0,0.0,0.0,0.0,0.0,0.0,0.0,0.0,0.0,0.0,0.0,0.0,0.0,0.0,0.0,0.0,0.0,0.0,0.0,0.0,0.0,0.0,0.0,0.0,0.0,0.0,0.0,0.0,0.0,0.0,0.0,0.0,0.0,0.0,0.0,0.0,0.0,0.0,0.0,0.0,0.0,0.0,0.0,0.0,0.0,0.0,0.0,0.0,0.0,0.0,0.0,0.0,0.0,0.0,0.0,0.0,0.0,0.0,0.0,0.0,0.0,0.0,0.0,0.0,0.0,0.0,0.0,0.0,0.0,0.0,0.0,0.0,0.0,0.0,0.0,0.0,0.0,0.0,0.0,0.0,0.0,0.0,0.0,0.0,0.0,0.0,0.0,0.0,0.0,0.0,0.0,0.0,0.0,0.0,0.0,0.0,0.0,0.0,0.0,0.0,0.0,0.0,0.0,0.0,0.0,0.0,0.0,0.0,0.0,0.0,0.0,0.0,0.0,0.0,0.0,0.0,0.0,0.0,0.0,0.0,0.0,0.0,0.0,0.0,0.0,0.0,0.0,0.0,0.0,0.0,0.0,0.0,0.0,0.0,0.0,0.0,0.0,0.0,0.0,0.0,0.0,0.0,0.0,0.0,0.0,0.0,0.0,0.0,0.0,0.0,0.0,0.0,0.0,0.0,0.0,0.0,0.0,0.0,0.0,0.0,0.0,0.0,0.0,0.0,0.0,0.0,0.0,0.0,0.0,0.0,0.0,0.0,0.0,0.0,0.0,0.0,0.0,0.0,0.0,0.0,0.0,0.0,0.0,0.0,0.0,0.0,0.0,0.0,0.0,0.0,0.0,0.0,0.0,0.0,0.0,0.0,0.0,0.0,0.0,0.0,0.0,0.0,0.0,0.0,0.0,0.0,0.0,0.0,0.0,0.0,0.0,0.0,0.0,0.0,0.0,0.0,0.0,0.0,0.0,0.0,0.0,0.0,0.0,0.0,0.0,0.0,0.0,0.0,0.0,0.0,0.0,0.0,0.0,0.0,0.0,0.0,0.0,0.0,0.0,0.0,0.0,0.0,0.0,0.0,0.0,0.0,0.0,0.0,0.0,0.0,0.0,0.0,0.0,0.0,0.0,0.0,0.0,0.0,0.0,0.0,0.0,0.0,0.0,0.0,0.0,0.0,0.0,0.0,0.0,0.0,0.0,0.0,0.0,0.0,0.0,0.0,0.0,0.0,0.0,0.0,0.0,0.0,0.0,0.0,0.0,0.0,0.0,0.0,0.0,0.0,0.0,0.0,0.0,0.0,0.0,0.0,0.0,0.0,0.0,0.0,0.0,0.0,0.0,0.0,0.0,0.0,0.0,0.0,0.0,0.0,0.0,0.0,0.0,0.0,0.0,0.0,0.0,0.0,0.0,0.0,0.0,0.0,0.0,0.0,0.0,0.0,0.0,0.0,0.0,0.0,0.0,0.0,0.0,0.0,0.0,0.0,0.0,0.0,0.0,0.0,0.0,0.0,0.0,0.0,0.0,0.0,0.0,0.0,0.0,0.0,0.0,0.0,0.0,0.0,0.0,0.0,0.0,0.0,0.0,0.0,0.0,0.0,0.0,0.0,0.0,0.0,0.0,0.0,0.0,0.0,0.0,0.0,0.0,0.0,0.0,0.0,0.0,0.0,0.0,0.0,0.0,0.0,0.0,0.0,0.0,0.0,0.0,0.0,0.0,0.0,0.0,0.0,0.0,0.0,0.0,0.0,0.0,0.0,0.0,0.0,0.0,0.0,0.0,0.0,0.0,0.0,0.0,0.0,0.0,0.0,0.0,0.0,0.0,0.0,0.0,0.0,0.0,0.0,0.0,0.0,0.0,0.0,0.0,0.0,0.0,0.0,0.0,0.0,0.0,0.0,0.0,0.0,0.0,0.0,0.0,0.0,0.0,0.0,0.0,0.0,0.0,0.0,0.0,0.0,0.0,0.0,0.0,0.0,0.0,0.0,0.0,0.0,0.0,0.0,0.0,0.0,0.0,0.0,0.0,0.0,0.0,0.0,0.0,0.0,0.0,0.0,0.0,0.0,0.0,0.0,0.0,0.0,0.0,0.0,0.0,0.0,0.0,0.0,0.0,0.0,0.0,0.0,0.0,0.0,0.0,0.0,0.0,0.0,0.0,0.0,0.0,0.0,0.0,0.0,0.0,0.0,0.0,0.0,0.0,0.0,0.0,0.0,0.0,0.0,0.0,0.0,0.0,0.0,0.0,0.0,0.0,0.0,0.0,0.0,0.0,0.0,0.0,0.0,0.0,0.0,0.0,0.0,0.0,0.0,0.0,0.0,0.0,0.0,0.0,0.0,0.0,0.0,0.0,0.0,0.0,0.0,0.0,0.0,0.0,0.0,0.0,0.0,0.0,0.0,0.0,0.0,0.0,0.0,0.0,0.0,0.0,0.0,0.0,0.0,0.0,0.0,0.0,0.0,0.0,0.0,0.0,0.0,0.0,0.0,0.0,0.0,0.0,0.0,0.0,0.0,0.0,0.0,0.0,0.0,0.0,0.0,0.0,0.0,0.0,0.0,0.0,0.0,0.0,0.0,0.0,0.0,0.0,0.0,0.0,0.0,0.0,0.0,0.0,0.0,0.0,0.0,0.0,0.0,0.0,0.0,0.0,0.0,0.0,0.0,0.0,0.0,0.0,0.0,0.0,0.0,0.0,0.0,0.0,0.0,0.0,0.0,0.0,0.0,0.0,0.0,0.0,0.0,0.0,0.0,0.0,0.0,0.0,0.0,0.0,0.0,0.0,0.0,0.0,0.0,0.0,0.0,0.0,0.0,0.0,0.0,0.0,0.0,0.0,0.0,0.0,0.0,0.0,0.0,0.0,0.0,0.0,0.0,0.0,0.0,0.0,0.0,0.0,0.0,0.0,0.0,0.0,0.0,0.0,0.0,0.0,0.0,0.0,0.0,0.0,0.0,0.0,0.0,0.0,0.0,0.0,0.0,0.0,0.0,0.0,0.0,0.0,0.0,0.0,0.0,0.0,0.0,0.0,0.0,0.0,0.0,0.0,0.0,0.0,0.0,0.0,-2.4718,0.0,0.0,0.0,0.0,0.0,0.0,0.0,0.0,0.0,0.0,0.0,0.0,0.0,0.0,0.0,0.0,0.0,0.0,0.0,0.0,0.0,0.0,0.0,0.0,0.0,0.0,0.0,0.0,0.0,0.0,0.0,0.0,0.0,0.0,0.0,0.0,0.0,0.0,0.0,0.0,0.0,0.0,0.0,0.0,0.0,0.0,0.0,0.0,0.0,0.0,0.0,0.0,0.0,0.0,0.0,0.0,0.0,0.0,0.0,0.0,0.0,0.0,0.0,0.0,0.0,0.0,0.0,0.0,0.0,0.0,0.0,0.0,0.0,0.0,0.0,0.0,0.0,0.0,0.0,0.0,0.0,0.0,0.0,0.0,0.0,0.0,0.0,0.0,0.0,0.0,0.0,0.0,0.0,0.0,0.0,0.0,0.0,0.0,0.0,0.0,0.0,0.0,0.0,0.0,0.0,0.0,0.0,0.0,0.0,0.0,-2.4621,-2.3944,-2.4286,-2.4412,-2.4283,0.0,0.0,0.0,0.0,0.0,0.0,0.0,0.0,0.0,0.0,0.0,0.0,0.0,0.0,0.0,0.0,0.0,0.0,0.0,0.0,0.0,0.0,0.0,0.0,0.0,0.0,0.0,0.0,0.0,0.0,0.0,0.0,0.0,0.0,0.0,0.0,0.0,0.0,0.0,0.0,0.0,0.0,0.0,0.0,0.0,0.0,0.0,0.0,0.0,0.0,0.0,0.0,0.0,0.0,0.0,0.0,0.0,0.0,0.0,0.0,0.0,0.0,0.0,0.0,0.0,0.0,0.0,0.0,0.0,0.0,0.0,0.0,0.0,0.0,0.0,0.0,0.0,0.0,0.0,0.0,0.0,0.0,0.0,0.0,0.0,0.0,0.0,0.0,0.0,0.0,0.0,0.0,0.0,0.0,0.0,0.0,0.0,0.0,0.0,0.0,0.0,0.0,0.0,0.0,0.0,0.0,0.0,0.0,0.0,0.0,0.0,0.0,-2.4431,-2.4331,-2.4137,0.0,0.0,0.0,0.0,0.0,0.0,0.0,0.0,0.0,0.0,0.0,0.0,0.0,0.0,0.0,0.0,0.0,0.0,0.0,0.0,0.0,0.0,0.0,0.0,0.0,0.0,0.0,0.0,0.0,0.0,0.0,0.0,0.0,0.0,0.0,0.0,0.0,0.0,0.0,0.0,0.0,0.0,0.0,0.0,0.0,0.0,0.0,0.0,0.0,0.0,0.0,0.0,0.0,0.0,0.0,0.0,0.0,0.0,0.0,0.0,0.0,0.0,0.0,0.0,0.0,0.0,0.0,0.0,0.0,0.0,0.0,0.0,0.0,0.0,0.0,0.0,0.0,0.0,0.0,0.0,0.0,0.0,0.0,0.0,0.0,0.0,0.0,0.0,0.0,0.0,0.0,0.0,0.0,0.0,0.0,0.0,0.0,0.0,0.0,0.0,0.0,0.0,0.0,0.0,0.0,0.0,0.0,0.0,0.0,0.0,-2.5566,-2.547,-2.5028,0.0,-2.4728,0.0,0.0,0.0,0.0,0.0,0.0,0.0,0.0,0.0,0.0,0.0,0.0,0.0,0.0,0.0,0.0,0.0,0.0,0.0,0.0,0.0,0.0,0.0,0.0,0.0,0.0,0.0,0.0,0.0,0.0,0.0,0.0,0.0,0.0,0.0,0.0,0.0,0.0,0.0,0.0,0.0,0.0,0.0,0.0,0.0,0.0,0.0,0.0,0.0,0.0,0.0,0.0,0.0,0.0,0.0,0.0,0.0,0.0,0.0,0.0,0.0,0.0,0.0,0.0,0.0,0.0,0.0,0.0,0.0,0.0,0.0,0.0,0.0,0.0,0.0,0.0,0.0,0.0,0.0,0.0,0.0,0.0,0.0,0.0,0.0,0.0,0.0,0.0,0.0,0.0,0.0,0.0,0.0,0.0,0.0,0.0,0.0,0.0,0.0,0.0,0.0,0.0,0.0,0.0,0.0,0.0,0.0,0.0,0.0,0.0,-2.5381,-2.5473,-2.524,-2.5001,0.0,0.0,0.0,0.0,0.0,0.0,0.0,0.0,0.0,0.0,0.0,0.0,0.0,0.0,0.0,0.0,0.0,0.0,0.0,0.0,0.0,0.0,0.0,0.0,0.0,0.0,0.0,0.0,0.0,0.0,0.0,0.0,0.0,0.0,0.0,0.0,0.0,0.0,0.0,0.0,0.0,0.0,0.0,0.0,0.0,0.0,0.0,0.0,0.0,0.0,0.0,0.0,0.0,0.0,0.0,0.0,0.0,0.0,0.0,0.0,0.0,0.0,0.0,0.0,0.0,0.0,0.0,0.0,0.0,0.0,0.0,0.0,0.0,0.0,0.0,0.0,0.0,0.0,0.0,0.0,0.0,0.0,0.0,0.0,0.0,0.0,0.0,0.0,0.0,0.0,0.0,0.0,0.0,0.0,0.0,0.0,0.0,0.0,0.0,0.0,0.0,0.0,0.0,0.0,0.0,0.0,0.0,0.0,0.0,0.0,-2.5359,-2.5224,-2.524,-2.5204,-2.5045,-2.4742,0.0,0.0,0.0,0.0,0.0,0.0,0.0,0.0,0.0,0.0,0.0,0.0,0.0,0.0,0.0,0.0,0.0,0.0,0.0,0.0,0.0,0.0,0.0,0.0,0.0,0.0,0.0,0.0,0.0,0.0,0.0,0.0,0.0,0.0,0.0,0.0,0.0,0.0,0.0,0.0,0.0,0.0,0.0,0.0,0.0,0.0,0.0,0.0,0.0,0.0,0.0,0.0,0.0,0.0,0.0,0.0,0.0,0.0,0.0,0.0,0.0,0.0,0.0,0.0,0.0,0.0,0.0,0.0,0.0,0.0,0.0,0.0,0.0,0.0,0.0,0.0,0.0,0.0,0.0,0.0,0.0,0.0,0.0,0.0,0.0,0.0,0.0,0.0,0.0,0.0,0.0,0.0,0.0,0.0,0.0,0.0,0.0,0.0,0.0,0.0,0.0,0.0,0.0,0.0,0.0,0.0,0.0,0.0,-2.5637,-2.5616,-2.5333,-2.4862,-2.4895,-2.4795,0.0,0.0,0.0,0.0,0.0,0.0,0.0,0.0,0.0,0.0,0.0,0.0,0.0,0.0,0.0,0.0,0.0,0.0,0.0,0.0,0.0,0.0,0.0,0.0,0.0,0.0,0.0,0.0,0.0,0.0,0.0,0.0,0.0,0.0,0.0,0.0,0.0,0.0,0.0,0.0,0.0,0.0,0.0,0.0,0.0,0.0,0.0,0.0,0.0,0.0,0.0,0.0,0.0,0.0,0.0,0.0,0.0,0.0,0.0,0.0,0.0,0.0,0.0,0.0,0.0,0.0,0.0,0.0,0.0,0.0,0.0,0.0,0.0,0.0,0.0,0.0,0.0,0.0,0.0,0.0,0.0,0.0,0.0,0.0,0.0,0.0,0.0,0.0,0.0,0.0,0.0,0.0,0.0,0.0,0.0,0.0,0.0,0.0,0.0,0.0,0.0,0.0,0.0,0.0,0.0,0.0,0.0,0.0,0.0,-2.7023,-2.6526,-2.5844,-2.5025,-2.4954,-2.4759,0.0,0.0,0.0,0.0,0.0,0.0,0.0,0.0,0.0,0.0,0.0,0.0,0.0,0.0,0.0,0.0,0.0,0.0,0.0,0.0,0.0,0.0,0.0,0.0,0.0,0.0,0.0,0.0,0.0,0.0,0.0,0.0,0.0,0.0,0.0,0.0,0.0,0.0,0.0,0.0,0.0,0.0,0.0,0.0,0.0,0.0,0.0,0.0,0.0,0.0,0.0,0.0,0.0,0.0,0.0,0.0,0.0,0.0,0.0,0.0,0.0,0.0,0.0,0.0,0.0,0.0,0.0,0.0,0.0,0.0,0.0,0.0,0.0,0.0,0.0,0.0,0.0,0.0,0.0,0.0,0.0,0.0,0.0,0.0,0.0,0.0,0.0,0.0,0.0,0.0,0.0,0.0,0.0,0.0,0.0,0.0,0.0,0.0,0.0,0.0,0.0,0.0,0.0,0.0,0.0,0.0,0.0,0.0,0.0,-2.7577,0.0,-2.6309,-2.5661,-2.523,-2.4942,0.0,0.0,0.0,0.0,0.0,0.0,0.0,0.0,0.0,0.0,0.0,0.0,0.0,0.0,0.0,0.0,0.0,0.0,0.0,0.0,0.0,0.0,0.0,0.0,0.0,0.0,0.0,0.0,0.0,0.0,0.0,0.0,0.0,0.0,0.0,0.0,0.0,0.0,0.0,0.0,0.0,0.0,0.0,0.0,0.0,0.0,0.0,0.0,0.0,0.0,0.0,0.0,0.0,0.0,0.0,0.0,0.0,0.0,0.0,0.0,0.0,0.0,0.0,0.0,0.0,0.0,0.0,0.0,0.0,0.0,0.0,0.0,0.0,0.0,0.0,0.0,0.0,0.0,0.0,0.0,0.0,0.0,0.0,0.0,0.0,0.0,0.0,0.0,0.0,0.0,0.0,0.0,0.0,0.0,0.0,0.0,0.0,0.0,0.0,0.0,0.0,0.0,0.0,0.0,0.0,0.0,0.0,0.0,-2.7291,-2.7046,-2.6823,-2.6704,-2.666,-2.5803,-2.5296,0.0,0.0,0.0,0.0,0.0,0.0,0.0,0.0,0.0,0.0,0.0,0.0,0.0,0.0,0.0,0.0,0.0,0.0,0.0,0.0,0.0,0.0,0.0,0.0,0.0,0.0,0.0,0.0,0.0,0.0,0.0,0.0,0.0,0.0,0.0,0.0,0.0,0.0,0.0,0.0,0.0,0.0,0.0,0.0,0.0,0.0,0.0,0.0,0.0,0.0,0.0,0.0,0.0,0.0,0.0,0.0,0.0,0.0,0.0,0.0,0.0,0.0,0.0,0.0,0.0,0.0,0.0,0.0,0.0,0.0,0.0,0.0,0.0,0.0,0.0,0.0,0.0,0.0,0.0,0.0,0.0,0.0,0.0,0.0,0.0,0.0,0.0,0.0,0.0,0.0,0.0,0.0,0.0,0.0,0.0,0.0,0.0,0.0,0.0,0.0,0.0,0.0,0.0,0.0,0.0,0.0,0.0,0.0,0.0,-2.7772,-2.7413,-2.7053,-2.6581,-2.6231,-2.5782,0.0,0.0,0.0,0.0,0.0,0.0,0.0,0.0,0.0,0.0,0.0,0.0,0.0,0.0,0.0,0.0,0.0,0.0,0.0,0.0,0.0,0.0,0.0,0.0,0.0,0.0,0.0,0.0,0.0,0.0,0.0,0.0,0.0,0.0,0.0,0.0,0.0,0.0,0.0,0.0,0.0,0.0,0.0,0.0,0.0,0.0,0.0,0.0,0.0,0.0,0.0,0.0,0.0,0.0,0.0,0.0,0.0,0.0,0.0,0.0,0.0,0.0,0.0,0.0,0.0,0.0,0.0,0.0,0.0,0.0,0.0,0.0,0.0,0.0,0.0,0.0,0.0,0.0,0.0,0.0,0.0,0.0,0.0,0.0,0.0,0.0,0.0,0.0,0.0,0.0,0.0,0.0,0.0,0.0,0.0,0.0,0.0,0.0,0.0,0.0,0.0,0.0,0.0,0.0,0.0,0.0,0.0,0.0,0.0,-2.842,-2.8199,-2.7856,-2.7433,-2.7156,-2.6635,-2.5924,0.0,0.0,0.0,0.0,0.0,0.0,0.0,0.0,0.0,0.0,0.0,0.0,0.0,0.0,0.0,0.0,0.0,0.0,0.0,0.0,0.0,0.0,0.0,0.0,0.0,0.0,0.0,0.0,0.0,0.0,0.0,0.0,0.0,0.0,0.0,0.0,0.0,0.0,0.0,0.0,0.0,0.0,0.0,0.0,0.0,0.0,0.0,0.0,0.0,0.0,0.0,0.0,0.0,0.0,0.0,0.0,0.0,0.0,0.0,0.0,0.0,0.0,0.0,0.0,0.0,0.0,0.0,0.0,0.0,0.0,0.0,0.0,0.0,0.0,0.0,0.0,0.0,0.0,0.0,0.0,0.0,0.0,0.0,0.0,0.0,0.0,0.0,0.0,0.0,0.0,0.0,0.0,0.0,0.0,0.0,0.0,0.0,0.0,0.0,0.0,0.0,0.0,0.0,0.0,0.0,0.0,0.0,0.0,-2.9061,-2.9087,-2.9056,-2.9011,-2.8399,-2.7795,0.0,0.0,0.0,0.0,0.0,0.0,0.0,0.0,0.0,0.0,0.0,0.0,0.0,0.0,0.0,0.0,0.0,0.0,0.0,0.0,0.0,0.0,0.0,0.0,0.0,0.0,0.0,0.0,0.0,0.0,0.0,0.0,0.0,0.0,0.0,0.0,0.0,0.0,0.0,0.0,0.0,0.0,0.0,0.0,0.0,0.0,0.0,0.0,0.0,0.0,0.0,0.0,0.0,0.0,0.0,0.0,0.0,0.0,0.0,0.0,0.0,0.0,0.0,0.0,0.0,0.0,0.0,0.0,0.0,0.0,0.0,0.0,0.0,0.0,0.0,0.0,0.0,0.0,0.0,0.0,0.0,0.0,0.0,0.0,0.0,0.0,0.0,0.0,0.0,0.0,0.0,0.0,0.0,0.0,0.0,0.0,0.0,0.0,0.0,0.0,0.0,0.0,0.0,0.0,0.0,0.0,0.0,0.0,0.0,-3.0063,-3.0108,-2.9952,-2.9607,-2.9123,-2.8374,0.0,0.0,0.0,0.0,0.0,0.0,0.0,0.0,0.0,0.0,0.0,0.0,0.0,0.0,0.0,0.0,0.0,0.0,0.0,0.0,0.0,0.0,0.0,0.0,0.0,0.0,0.0,0.0,0.0,0.0,0.0,0.0,0.0,0.0,0.0,0.0,0.0,0.0,0.0,0.0,0.0,0.0,0.0,0.0,0.0,0.0,0.0,0.0,0.0,0.0,0.0,0.0,0.0,0.0,0.0,0.0,0.0,0.0,0.0,0.0,0.0,0.0,0.0,0.0,0.0,0.0,0.0,0.0,0.0,0.0,0.0,0.0,0.0,0.0,0.0,0.0,0.0,0.0,0.0,0.0,0.0,0.0,0.0,0.0,0.0,0.0,0.0,0.0,0.0,0.0,0.0,0.0,0.0,0.0,0.0,0.0,0.0,0.0,0.0,0.0,0.0,0.0,0.0,0.0,0.0,0.0,0.0,0.0,-2.949,-3.0477,-3.0791,-3.0705,-3.022,-2.9663,-2.885,0.0,0.0,0.0,0.0,0.0,0.0,0.0,0.0,0.0,0.0,0.0,0.0,0.0,0.0,0.0,0.0,0.0,0.0,0.0,0.0,0.0,0.0,0.0,0.0,0.0,0.0,0.0,0.0,0.0,0.0,0.0,0.0,0.0,0.0,0.0,0.0,0.0,0.0,0.0,0.0,0.0,0.0,0.0,0.0,0.0,0.0,0.0,0.0,0.0,0.0,0.0,0.0,0.0,0.0,0.0,0.0,0.0,0.0,0.0,0.0,0.0,0.0,0.0,0.0,0.0,0.0,0.0,0.0,0.0,0.0,0.0,0.0,0.0,0.0,0.0,0.0,0.0,0.0,0.0,0.0,0.0,0.0,0.0,0.0,0.0,0.0,0.0,0.0,0.0,0.0,0.0,0.0,0.0,0.0,0.0,0.0,0.0,0.0,0.0,0.0,0.0,0.0,0.0,0.0,0.0,0.0,0.0,0.0,-2.9901,-3.0456,-3.1067,-3.1161,-3.0733,-2.9959,-2.9158,0.0,0.0,0.0,0.0,0.0,0.0,0.0,0.0,0.0,0.0,0.0,0.0,0.0,0.0,0.0,0.0,0.0,0.0,0.0,0.0,0.0,0.0,0.0,0.0,0.0,0.0,0.0,0.0,0.0,0.0,0.0,0.0,0.0,0.0,0.0,0.0,0.0,0.0,0.0,0.0,0.0,0.0,0.0,0.0,0.0,0.0,0.0,0.0,0.0,0.0,0.0,0.0,0.0,0.0,0.0,0.0,0.0,0.0,0.0,0.0,0.0,0.0,0.0,0.0,0.0,0.0,0.0,0.0,0.0,0.0,0.0,0.0,0.0,0.0,0.0,0.0,0.0,0.0,0.0,0.0,0.0,0.0,0.0,0.0,0.0,0.0,0.0,0.0,0.0,0.0,0.0,0.0,0.0,0.0,0.0,0.0,0.0,0.0,0.0,0.0,0.0,0.0,0.0,0.0,0.0,0.0,0.0,0.0,-2.9915,-3.0171,-3.033,-3.0328,-3.0237,-2.9676,-2.8954,0.0,0.0,0.0,0.0,0.0,0.0,0.0,0.0,0.0,0.0,0.0,0.0,0.0,0.0,0.0,0.0,0.0,0.0,0.0,0.0,0.0,0.0,0.0,0.0,0.0,0.0,0.0,0.0,0.0,0.0,0.0,0.0,0.0,0.0,0.0,0.0,0.0,0.0,0.0,0.0,0.0,0.0,0.0,0.0,0.0,0.0,0.0,0.0,-1.951,0.0,0.0,0.0,0.0,0.0,0.0,0.0,0.0,0.0,0.0,0.0,0.0,0.0,0.0,0.0,0.0,0.0,0.0,0.0,0.0,0.0,0.0,0.0,0.0,0.0,0.0,0.0,0.0,0.0,0.0,0.0,0.0,0.0,0.0,0.0,0.0,0.0,0.0,0.0,0.0,0.0,0.0,0.0,0.0,0.0,0.0,0.0,0.0,0.0,0.0,0.0,0.0,0.0,0.0,0.0,0.0,0.0,0.0,0.0,-3.0284,-3.088,-3.0908,-3.0671,-3.0171,-2.966,-2.8943,0.0,0.0,0.0,0.0,0.0,0.0,0.0,0.0,0.0,0.0,0.0,0.0,0.0,0.0,0.0,0.0,0.0,0.0,0.0,0.0,0.0,0.0,0.0,0.0,0.0,0.0,0.0,0.0,0.0,0.0,0.0,0.0,0.0,0.0,0.0,0.0,0.0,0.0,0.0,0.0,0.0,0.0,0.0,0.0,0.0,0.0,0.0,0.0,0.0,0.0,0.0,0.0,0.0,0.0,0.0,0.0,0.0,0.0,0.0,0.0,0.0,0.0,0.0,0.0,0.0,0.0,0.0,0.0,0.0,0.0,0.0,0.0,0.0,0.0,0.0,0.0,0.0,0.0,0.0,0.0,0.0,0.0,0.0,0.0,0.0,0.0,0.0,0.0,0.0,0.0,0.0,0.0,0.0,0.0,0.0,0.0,0.0,0.0,0.0,0.0,0.0,0.0,0.0,0.0,0.0,0.0,0.0,-3.0138,-3.0674,-3.1542,-3.1566,-3.1148,-3.0238,-2.9738,-2.9013,-2.8116,0.0,0.0,0.0,0.0,0.0,0.0,0.0,0.0,0.0,0.0,0.0,0.0,0.0,0.0,0.0,0.0,0.0,0.0,0.0,0.0,0.0,0.0,0.0,0.0,0.0,0.0,0.0,0.0,0.0,0.0,0.0,0.0,0.0,0.0,0.0,0.0,0.0,0.0,-1.6407,-1.6694,0.0,0.0,0.0,0.0,0.0,0.0,0.0,0.0,-1.7986,0.0,0.0,0.0,0.0,0.0,0.0,0.0,0.0,0.0,0.0,0.0,0.0,0.0,0.0,0.0,0.0,0.0,0.0,0.0,0.0,0.0,0.0,0.0,0.0,0.0,0.0,0.0,0.0,0.0,0.0,0.0,0.0,0.0,0.0,0.0,0.0,0.0,0.0,0.0,0.0,0.0,0.0,0.0,0.0,0.0,0.0,0.0,0.0,0.0,0.0,0.0,0.0,0.0,0.0,0.0,0.0,-2.9602,-3.0172,-3.0499,-3.0651,-3.0631,-3.0542,-3.0378,-2.9645,-2.8994,-2.8393,0.0,0.0,0.0,0.0,0.0,0.0,0.0,0.0,0.0,0.0,0.0,0.0,0.0,0.0,0.0,0.0,0.0,0.0,0.0,0.0,0.0,0.0,0.0,0.0,0.0,0.0,0.0,0.0,0.0,0.0,0.0,0.0,0.0,0.0,0.0,0.0,0.0,0.0,0.0,-1.7329,-1.7433,0.0,0.0,0.0,0.0,0.0,0.0,0.0,0.0,-1.7819,0.0,0.0,0.0,0.0,0.0,0.0,0.0,0.0,0.0,0.0,0.0,0.0,0.0,0.0,0.0,0.0,0.0,0.0,0.0,0.0,0.0,0.0,0.0,0.0,0.0,0.0,0.0,0.0,0.0,0.0,0.0,0.0,0.0,0.0,0.0,0.0,0.0,0.0,0.0,0.0,0.0,0.0,0.0,0.0,0.0,0.0,0.0,0.0,0.0,0.0,0.0,0.0,0.0,0.0,0.0,-3.0076,-3.0685,-3.1103,-3.1287,-3.0896,-3.0521,-3.0179,-2.9469,-2.8557,0.0,0.0,0.0,0.0,0.0,0.0,0.0,0.0,0.0,0.0,0.0,0.0,0.0,0.0,0.0,0.0,0.0,0.0,0.0,0.0,0.0,0.0,0.0,0.0,0.0,0.0,0.0,0.0,0.0,0.0,0.0,0.0,0.0,0.0,0.0,0.0,0.0,0.0,0.0,0.0,-1.7125,-1.7215,-1.7313,0.0,0.0,0.0,0.0,0.0,0.0,-1.7297,-1.7388,0.0,0.0,0.0,0.0,0.0,0.0,0.0,0.0,0.0,0.0,0.0,0.0,0.0,0.0,0.0,0.0,0.0,0.0,0.0,0.0,0.0,0.0,0.0,0.0,0.0,0.0,0.0,0.0,0.0,0.0,0.0,0.0,0.0,0.0,0.0,0.0,0.0,0.0,0.0,0.0,0.0,0.0,0.0,0.0,0.0,0.0,0.0,0.0,0.0,0.0,0.0,0.0,0.0,0.0,0.0,-3.0644,-3.1039,-3.1495,-3.1896,-3.1108,-3.0412,-2.9958,-2.9202,-2.8203,0.0,0.0,0.0,0.0,0.0,0.0,0.0,0.0,0.0,0.0,0.0,0.0,0.0,0.0,0.0,0.0,0.0,0.0,0.0,0.0,0.0,0.0,0.0,0.0,0.0,0.0,0.0,0.0,0.0,0.0,0.0,0.0,0.0,0.0,0.0,0.0,0.0,0.0,0.0,0.0,0.0,-1.6978,-1.7104,-1.6946,0.0,0.0,0.0,0.0,-1.6759,-1.704,0.0,0.0,0.0,0.0,0.0,0.0,0.0,0.0,0.0,0.0,0.0,0.0,0.0,0.0,0.0,0.0,0.0,0.0,0.0,0.0,0.0,0.0,0.0,0.0,0.0,0.0,0.0,0.0,0.0,0.0,0.0,0.0,0.0,0.0,0.0,0.0,0.0,0.0,0.0,0.0,0.0,0.0,0.0,0.0,0.0,0.0,0.0,0.0,0.0,0.0,0.0,0.0,0.0,0.0,0.0,0.0,-3.0827,-3.0569,-3.0639,-3.0981,-3.0279,-2.982,-2.9706,-2.8858,-2.8274,0.0,0.0,0.0,0.0,0.0,0.0,0.0,0.0,0.0,0.0,0.0,0.0,0.0,0.0,0.0,0.0,0.0,0.0,0.0,0.0,0.0,0.0,0.0,0.0,0.0,0.0,0.0,0.0,0.0,0.0,0.0,0.0,0.0,0.0,0.0,0.0,0.0,0.0,0.0,0.0,0.0,-1.6914,-1.6942,-1.6778,-1.6709,0.0,0.0,-1.6963,-1.7096,-1.7476,0.0,0.0,0.0,0.0,0.0,0.0,0.0,0.0,0.0,0.0,0.0,0.0,0.0,0.0,0.0,0.0,0.0,0.0,0.0,0.0,0.0,0.0,0.0,0.0,0.0,0.0,0.0,0.0,0.0,0.0,0.0,0.0,0.0,0.0,0.0,0.0,0.0,0.0,0.0,0.0,0.0,0.0,0.0,0.0,0.0,0.0,0.0,0.0,0.0,0.0,0.0,0.0,0.0,0.0,0.0,-3.0045,-2.9784,-3.0339,-3.0511,-3.0215,-2.942,-2.9003,-2.9003,-2.8124,-2.7484,0.0,0.0,0.0,0.0,0.0,0.0,0.0,0.0,0.0,0.0,0.0,0.0,0.0,0.0,0.0,0.0,0.0,0.0,0.0,0.0,0.0,0.0,0.0,0.0,0.0,0.0,0.0,0.0,0.0,0.0,0.0,0.0,0.0,0.0,0.0,0.0,0.0,0.0,0.0,0.0,0.0,0.0,-1.6573,-1.6763,0.0,0.0,0.0,-1.7051,-1.702,0.0,0.0,0.0,0.0,0.0,0.0,0.0,0.0,0.0,0.0,0.0,0.0,0.0,0.0,0.0,0.0,0.0,0.0,0.0,0.0,0.0,0.0,0.0,0.0,0.0,0.0,0.0,0.0,0.0,0.0,0.0,0.0,0.0,0.0,0.0,0.0,0.0,0.0,0.0,0.0,0.0,0.0,0.0,0.0,0.0,0.0,0.0,0.0,0.0,0.0,0.0,0.0,0.0,0.0,0.0,0.0,0.0,-2.8938,-2.9839,-3.0024,-2.9381,-2.8581,-2.8155,-2.8183,-2.7302,0.0,0.0,0.0,0.0,0.0,0.0,0.0,0.0,0.0,0.0,0.0,0.0,0.0,0.0,0.0,0.0,0.0,0.0,0.0,0.0,0.0,0.0,0.0,0.0,0.0,0.0,0.0,-1.6483,0.0,0.0,0.0,0.0,0.0,0.0,0.0,0.0,0.0,0.0,0.0,0.0,0.0,0.0,-1.6674,-1.64,-1.6849,-1.7248,0.0,0.0,-1.7156,-1.7068,-1.7372,-1.7483,0.0,0.0,0.0,0.0,0.0,0.0,0.0,0.0,0.0,0.0,0.0,0.0,0.0,0.0,0.0,0.0,0.0,0.0,0.0,0.0,0.0,0.0,0.0,0.0,0.0,0.0,0.0,0.0,0.0,0.0,0.0,0.0,0.0,0.0,0.0,0.0,0.0,0.0,0.0,0.0,0.0,0.0,0.0,0.0,0.0,0.0,0.0,0.0,0.0,0.0,0.0,0.0,0.0,0.0,0.0,-2.8892,-2.8758,-2.8648,-2.8581,-2.7725,-2.726,-2.726,-2.6497,-2.6129,0.0,0.0,0.0,0.0,0.0,0.0,0.0,0.0,0.0,0.0,0.0,0.0,0.0,0.0,0.0,0.0,0.0,0.0,0.0,0.0,0.0,0.0,0.0,0.0,0.0,0.0,0.0,0.0,0.0,0.0,0.0,0.0,0.0,0.0,0.0,0.0,0.0,0.0,0.0,0.0,0.0,-1.6392,-1.656,-1.6926,-1.7296,0.0,0.0,-1.7279,-1.7441,-1.7749,-1.7797,-1.7274,0.0,0.0,0.0,0.0,0.0,0.0,0.0,0.0,0.0,0.0,0.0,0.0,0.0,0.0,0.0,0.0,0.0,0.0,0.0,0.0,0.0,0.0,0.0,0.0,0.0,0.0,0.0,0.0,0.0,0.0,0.0,0.0,0.0,0.0,0.0,0.0,0.0,0.0,0.0,0.0,0.0,0.0,0.0,0.0,0.0,0.0,0.0,0.0,0.0,0.0,0.0,0.0,0.0,-2.8265,-2.7791,-2.8271,-2.8235,-2.7684,-2.6951,-2.658,-2.658,-2.5832,-2.5371,0.0,0.0,0.0,0.0,0.0,0.0,0.0,0.0,0.0,0.0,0.0,0.0,0.0,0.0,0.0,0.0,0.0,0.0,0.0,0.0,0.0,0.0,0.0,0.0,0.0,0.0,0.0,0.0,-1.559,-1.5483,-1.5568,0.0,0.0,0.0,0.0,0.0,0.0,0.0,0.0,0.0,0.0,-1.6973,-1.6835,-1.7223,0.0,0.0,-1.7618,-1.7586,-1.7777,-1.7616,-1.7455,-1.7483,-1.7016,0.0,0.0,0.0,0.0,0.0,0.0,0.0,0.0,0.0,0.0,0.0,0.0,0.0,0.0,0.0,0.0,0.0,0.0,0.0,0.0,0.0,0.0,0.0,0.0,0.0,0.0,0.0,0.0,0.0,0.0,0.0,0.0,0.0,0.0,0.0,0.0,0.0,0.0,0.0,0.0,0.0,0.0,0.0,0.0,0.0,0.0,0.0,0.0,0.0,0.0,0.0,0.0,-2.7891,-2.7315,-2.7821,-2.7713,-2.6921,-2.6445,-2.6113,-2.5893,-2.5182,-2.4691,0.0,0.0,0.0,0.0,0.0,0.0,0.0,0.0,0.0,0.0,0.0,0.0,0.0,0.0,0.0,0.0,0.0,0.0,0.0,0.0,0.0,0.0,0.0,0.0,0.0,0.0,0.0,0.0,-1.5897,-1.5849,-1.6197,0.0,0.0,0.0,0.0,0.0,0.0,0.0,0.0,0.0,0.0,-1.6957,-1.6807,-1.7184,-1.7578,-1.7708,-1.7465,-1.7294,-1.7505,-1.7261,-1.7172,-1.7497,0.0,0.0,0.0,0.0,0.0,0.0,0.0,0.0,0.0,0.0,0.0,0.0,0.0,0.0,0.0,0.0,0.0,0.0,0.0,0.0,0.0,0.0,0.0,0.0,0.0,0.0,0.0,0.0,0.0,0.0,0.0,0.0,0.0,0.0,0.0,0.0,0.0,0.0,0.0,0.0,0.0,0.0,0.0,0.0,0.0,0.0,0.0,0.0,0.0,0.0,0.0,0.0,0.0,-2.7837,-2.7678,-2.7387,-2.6921,-2.6238,-2.6185,-2.5852,-2.5232,-2.4573,-2.426,-2.4404,0.0,0.0,0.0,0.0,0.0,0.0,0.0,0.0,0.0,0.0,0.0,0.0,0.0,0.0,0.0,0.0,0.0,0.0,0.0,0.0,0.0,0.0,0.0,0.0,0.0,0.0,-1.6879,-1.6526,-1.6413,0.0,0.0,0.0,0.0,0.0,0.0,0.0,0.0,0.0,0.0,-1.585,-1.6087,-1.6468,-1.6871,-1.7139,-1.7139,-1.6574,-1.6252,-1.6476,-1.6763,-1.7033,0.0,0.0,0.0,0.0,0.0,0.0,0.0,0.0,0.0,0.0,0.0,0.0,0.0,0.0,0.0,0.0,0.0,0.0,0.0,0.0,0.0,0.0,0.0,0.0,0.0,0.0,0.0,0.0,-3.0895,0.0,0.0,0.0,0.0,0.0,0.0,0.0,0.0,0.0,0.0,0.0,-3.0382,-2.9977,0.0,0.0,0.0,0.0,0.0,0.0,0.0,0.0,0.0,0.0,0.0,0.0,-2.7484,-2.7675,-2.6932,-2.6404,-2.6185,-2.5295,-2.4754,-2.4541,-2.3864,-2.3576,-2.3753,0.0,0.0,0.0,0.0,0.0,0.0,0.0,0.0,0.0,0.0,0.0,0.0,0.0,0.0,0.0,0.0,0.0,0.0,0.0,0.0,0.0,0.0,0.0,0.0,0.0,-1.656,0.0,0.0,0.0,0.0,0.0,0.0,0.0,0.0,0.0,0.0,0.0,-1.563,-1.5827,-1.6445,-1.696,-1.7089,-1.7196,-1.731,0.0,0.0,0.0,0.0,0.0,0.0,0.0,0.0,0.0,0.0,0.0,0.0,0.0,0.0,-1.7422,-1.6797,-1.6712,-1.6712,-1.6788,0.0,0.0,0.0,0.0,0.0,0.0,0.0,0.0,0.0,0.0,0.0,0.0,0.0,0.0,0.0,0.0,-3.1777,0.0,0.0,0.0,0.0,0.0,0.0,0.0,0.0,-3.0946,-3.0706,-3.04,-3.0042,-2.9806,0.0,-2.9506,-2.929,0.0,0.0,0.0,0.0,0.0,0.0,0.0,0.0,-2.7522,-2.7589,-2.6687,-2.5977,-2.5516,-2.4669,-2.4079,-2.382,-2.3353,-2.3181,-2.328,-2.334,-2.3357,0.0,0.0,0.0,0.0,0.0,0.0,0.0,0.0,0.0,0.0,0.0,0.0,0.0,0.0,0.0,0.0,0.0,0.0,0.0,0.0,0.0,0.0,0.0,-1.6863,0.0,0.0,0.0,0.0,0.0,0.0,0.0,0.0,0.0,-1.5834,-1.5847,-1.593,-1.5971,-1.6457,-1.6853,-1.7017,0.0,0.0,0.0,0.0,0.0,0.0,0.0,-1.6516,-1.7186,-1.6678,-1.6517,-1.7473,-1.7716,-1.7821,-1.7789,0.0,0.0,-1.7303,-1.714,-1.711,-1.7218,-1.6993,-1.6913,-1.7304,-1.7324,-1.726,0.0,0.0,0.0,0.0,0.0,0.0,0.0,0.0,-3.3425,-3.3281,0.0,-3.3477,0.0,0.0,0.0,0.0,0.0,0.0,0.0,0.0,-3.2619,-3.1927,-2.9868,-3.0027,-3.0018,-2.9818,-2.9289,-2.8933,-2.8846,-2.9202,0.0,0.0,0.0,0.0,0.0,0.0,-2.7903,-2.7464,-2.6588,-2.5516,-2.4284,-2.4166,-2.382,-2.3135,-2.3047,-2.3047,-2.3028,-2.2758,-2.2819,-2.322,-2.1987,0.0,0.0,0.0,0.0,0.0,0.0,0.0,0.0,0.0,0.0,0.0,0.0,0.0,0.0,0.0,0.0,0.0,0.0,0.0,0.0,-1.738,0.0,0.0,0.0,0.0,0.0,0.0,0.0,0.0,0.0,0.0,-1.6959,-1.6162,-1.5673,-1.6136,0.0,0.0,0.0,0.0,-1.6383,-1.7107,-1.6892,-1.678,-1.7103,-1.6837,-1.6572,-1.6665,0.0,0.0,-1.787,-1.7991,-1.8,-1.7991,-1.7991,-1.808,-1.8304,-1.8109,-1.7997,-1.8238,-1.79,-1.7691,-1.7674,-1.7254,-1.688,-3.4716,0.0,0.0,0.0,0.0,-3.3667,-3.3652,-3.4113,-3.3722,-3.3438,-3.3287,-3.3346,0.0,0.0,0.0,0.0,0.0,0.0,-3.2272,-3.1937,-3.1685,-3.1405,-3.1096,-3.0676,-3.0643,-3.0922,-3.0758,-2.9985,-2.8796,-2.9152,-2.8833,-2.7957,0.0,0.0,0.0,0.0,-2.7151,-2.6935,-2.5537,-2.4584,-2.4198,-2.3691,-2.3309,-2.3101,-2.2457,-2.2104,-2.2094,-2.1221,-2.0669,-2.0594,-1.9912,0.0,0.0,0.0,0.0,0.0,0.0,0.0,0.0,0.0,0.0,0.0,0.0,0.0,0.0,0.0,0.0,0.0,0.0,0.0,-1.7172,-1.7005,-1.7243,0.0,0.0,0.0,0.0,0.0,0.0,0.0,0.0,0.0,-1.6726,-1.714,-1.7375,0.0,0.0,-1.7169,-1.7126,-1.6583,-1.6122,-1.6026,0.0,0.0,0.0,-1.613,-1.6118,-1.7195,-1.7474,-1.7627,-1.7951,-1.7991,-1.7991,-1.7991,-1.7991,-1.8031,-1.808,-1.7951,-1.7821,-1.787,-1.7781,-1.7659,-1.7489,-1.7446,-1.7339,-3.5851,-3.5706,-3.4902,-3.465,-3.4721,-3.4273,-3.4383,-3.4868,-3.4372,-3.4032,-3.3848,-3.3815,-3.335,-3.2639,-3.2558,0.0,0.0,0.0,-3.2755,-3.2835,-3.2041,-3.1846,-3.2032,-3.1284,-3.1085,-3.1373,-3.1087,-3.0297,-2.8969,-2.9124,-2.8739,-2.7884,0.0,0.0,-2.7765,-2.6975,-2.644,-2.6187,-2.5247,-2.4574,-2.4299,-2.3698,-2.3212,-2.2793,-2.2099,-2.1507,-2.1105,-2.0249,-1.9694,-1.9639,-1.9043,-1.8797,0.0,0.0,0.0,0.0,0.0,0.0,0.0,0.0,0.0,0.0,0.0,-1.786,-1.838,0.0,0.0,0.0,-1.6746,-1.6886,-1.7153,-1.7351,0.0,0.0,0.0,0.0,0.0,0.0,0.0,-1.7971,-1.7203,-1.671,-1.697,-1.7588,-1.76,-1.6678,-1.6695,-1.6786,-1.6779,0.0,-1.6031,-1.6148,-1.6703,-1.704,-1.6942,-1.6297,-1.6176,-1.7077,-1.7376,-1.7619,-1.7951,-1.7991,-1.7991,-1.7991,-1.7991,-1.7991,-1.7991,-1.791,-1.7829,-1.7829,-1.774,-1.7659,-1.7546,-1.7546,-1.7465,-3.7404,-3.7231,-3.5414,-3.4815,-3.5008,-3.4997,-3.5049,-3.5213,-3.5228,-3.4916,-3.4481,-3.4631,-3.4312,-3.3626,-3.3423,0.0,0.0,-3.3738,-3.384,-3.4036,-3.3274,-3.2793,-3.2619,-3.1843,-3.1486,-3.1524,-3.0785,-3.0104,-2.9499,-2.9188,-2.866,-2.7984,-2.7015,-2.6806,-2.7252,-2.6546,-2.5892,-2.5476,-2.5478,-2.5057,-2.4312,-2.3806,-2.3121,-2.2181,-2.1744,-2.1042,-2.0141,-1.9567,-1.9392,-1.9604,-1.8794,-1.8332,-1.8382,0.0,0.0,0.0,0.0,0.0,0.0,0.0,0.0,0.0,0.0,0.0,0.0,0.0,0.0,0.0,-1.6698,0.0,-1.7093,-1.7854,0.0,0.0,0.0,-1.7647,-1.6324,-1.6136,-1.6149,-1.6377,0.0,0.0,0.0,0.0,-1.6825,-1.4965,-1.5098,-1.5481,-1.5857,-1.5766,-1.5977,-1.6784,-1.7138,-1.7273,-1.7393,-1.7032,-1.6766,-1.676,-1.6967,-1.7516,-1.7997,-1.8068,-1.8051,-1.8068,-1.8017,-1.7991,-1.7991,-1.8,-1.7991,-1.7991,-1.7821,-1.77,-1.7619,-1.7505,-1.731,-3.7404,-3.7355,-3.6905,-3.6484,-3.606,-3.5568,-3.5392,-3.5407,-3.5261,-3.5115,-3.4983,-3.4798,-3.4515,-3.4162,-3.3534,-3.3544,-3.4008,-3.3389,-3.3078,-3.2957,-3.2789,-3.2539,-3.232,-3.211,-3.2252,-3.2612,-3.1945,-3.1048,-3.004,-2.9593,-2.8828,-2.7778,-2.7173,-2.727,-2.8026,-2.6955,-2.6292,-2.6012,-2.5497,-2.4579,-2.3224,-2.2279,-2.1567,-2.1093,-2.0302,-1.9663,-1.9117,-1.8164,-1.7621,-1.766,-1.7073,-1.6967,-1.744,-1.8201,0.0,0.0,0.0,0.0,0.0,0.0,0.0,0.0,0.0,-1.8287,-1.8935,0.0,-1.7917,0.0,-1.6494,-1.5748,-1.5823,-1.6046,0.0,0.0,-1.6982,-1.698,-1.6737,-1.6219,-1.6238,-1.7174,-1.6832,-1.657,-1.673,-1.6744,-1.6314,-1.5127,-1.6,-1.6813,-1.6721,-1.6165,-1.5684,-1.5732,-1.648,-1.6995,-1.6855,-1.7637,-1.7938,-1.7376,-1.79,-1.8523,-1.8854,-1.8648,-1.8451,-1.8434,-1.822,-1.8017,-1.8017,-1.7991,-1.8008,-1.8,-1.7829,-1.7619,-1.7294,-1.7221,-1.7098,-3.8302,-3.8272,-3.7973,-3.7644,-3.7285,-3.6626,-3.6357,-3.6309,-3.6242,-3.6108,-3.5921,-3.558,-3.5325,-3.5221,-3.4794,-3.454,-3.4475,-3.4034,-3.3726,-3.3529,-3.3145,-3.3014,-3.3168,-3.2803,-3.2584,-3.2568,-3.1845,-3.0983,-3.0014,-2.9466,-2.8891,-2.8286,-2.7256,-2.72,-2.7983,-2.7033,-2.6473,-2.6368,-2.5966,-2.5008,-2.3419,-2.2631,-2.1822,-2.1024,-2.0337,-1.9753,-1.9438,-1.8711,-1.821,-1.8118,-1.7839,-1.7748,-1.8009,-1.8836,-1.9277,0.0,0.0,0.0,0.0,0.0,0.0,0.0,0.0,0.0,0.0,0.0,-1.7432,0.0,-1.6206,0.0,-1.6213,-1.627,-1.6316,-1.6546,-1.6569,-1.6432,-1.6103,-1.5697,-1.5708,-1.637,-1.6097,-1.5875,-1.6007,-1.6028,-1.5883,-1.539,-1.6092,-1.6532,-1.6327,-1.5792,-1.5551,-1.5765,-1.5807,-1.6004,-1.6225,-1.7101,-1.7809,-1.8006,-1.8433,-1.8869,-1.9127,-1.9041,-1.8887,-1.8878,-1.8682,-1.8545,-1.8545,-1.8537,-1.8504,-1.8379,-1.8246,-1.7995,-1.7482,-1.7302,-1.718,-3.9388,-3.9328,-3.8766,-3.8527,-3.8482,-3.7913,-3.7569,-3.7404,-3.7404,-3.7228,-3.691,-3.6529,-3.6351,-3.6351,-3.6194,-3.5812,-3.5129,-3.4892,-3.4761,-3.4605,-3.3776,-3.3695,-3.4176,-3.3441,-3.2754,-3.2108,-3.1303,-3.0588,-2.9954,-2.9198,-2.8896,-2.8989,-2.7458,-2.703,-2.7579,-2.7025,-2.6651,-2.6662,-2.638,-2.5538,-2.4187,-2.37,-2.2777,-2.1522,-2.0998,-2.0576,-2.0212,-2.0014,-1.9803,-1.9583,-1.9575,-1.9338,-1.8993,-1.9781,-2.0079,0.0,-2.0411,0.0,0.0,0.0,0.0,0.0,0.0,0.0,0.0,-1.6745,-1.6672,-1.6598,-1.591,-1.5856,-1.6846,-1.6993,-1.6799,-1.6301,-1.6205,-1.591,-1.5091,-1.5042,-1.5062,-1.5062,-1.5095,-1.5223,-1.547,-1.5451,-1.5558,-1.5698,-1.5798,-1.5792,-1.5545,-1.5349,-1.5527,-1.64,-1.5486,-1.5455,-1.6483,-1.6817,-1.7387,-1.8535,-1.8949,-1.9065,-1.9315,-1.929,-1.929,-1.929,-1.917,-1.9187,-1.9179,-1.9153,-1.9024,-1.8827,-1.8682,-1.8412,-1.7904,-1.7631,-1.7515,-3.9388,-3.9409,-3.9275,-3.9215,-3.9215,-3.9095,-3.8407,-3.7404,-3.7404,-3.7282,-3.7124,-3.691,-3.6684,-3.6458,-3.5747,-3.5549,-3.5713,-3.4388,-3.4018,-3.4434,-3.3572,-3.3212,-3.3326,-3.3154,-3.3025,-3.281,-3.1536,-3.0845,-3.0666,-2.9417,-2.8803,-2.8839,-2.8081,-2.7799,0.0,0.0,0.0,0.0,-2.5625,-2.4737,-2.4393,-2.352,-2.2597,-2.1778,-2.1445,0.0,-2.0238,-2.015,-2.0059,-1.984,-1.9849,0.0,0.0,0.0,0.0,0.0,0.0,0.0,0.0,0.0,0.0,0.0,-1.7822,-1.7626,-1.7447,-1.7194,-1.6733,-1.6072,-1.5817,-1.5505,-1.5066,-1.5302,-1.538,-1.5301,-1.527,-1.5181,-1.5015,-1.5216,-1.5317,-1.5317,-1.5511,-1.5678,-1.5718,-1.5698,-1.5758,-1.5771,-1.5825,-1.5805,-1.5752,-1.565,-1.573,-1.592,-1.6055,-1.6936,-1.8434,-1.851,-1.8714,-1.9748,-2.0002,-2.0016,-2.0026,-1.9804,-1.9589,-1.9632,-1.9384,-1.9196,-1.9196,-1.905,-1.892,-1.8792,-1.8498,-1.8224,-1.8136,-1.8069,-1.8008,-3.9388,0.0,-3.9388,-3.9388,0.0,-3.9388,-3.9035,-3.8357,-3.8407,-3.8216,-3.7967,-3.7767,-3.7586,-3.7354,-3.6884,-3.6354,-3.5772,-3.4901,-3.4235,-3.3738,-3.3283,-3.3124,-3.3124,-3.3124,-3.2711,-3.1989,-3.1258,-3.0543,-2.9886,-2.9152,-2.8803,-2.8792,-2.7505,-2.6867,-2.6819,-2.5819,-2.5781,-2.6822,-2.5684,-2.459,-2.3543,-2.2985,-2.216,-2.1038,0.0,0.0,0.0,0.0,0.0,0.0,0.0,0.0,0.0,0.0,0.0,-1.7979,-1.8752,-1.883,-1.7873,-1.785,-1.7674,-1.7077,-1.6832,-1.6779,-1.6947,-1.641,-1.5893,-1.547,-1.5376,-1.5258,-1.4787,-1.4921,-1.5068,-1.515,-1.5184,-1.5224,-1.5378,-1.5518,-1.5605,-1.5618,-1.5691,-1.5825,-1.5825,-1.5825,-1.5825,-1.5825,-1.5825,-1.5832,-1.5778,-1.5601,-1.5356,-1.5153,-1.619,-1.7217,-1.8056,-1.8465,-1.9034,-1.9965,-2.0201,-2.0155,-2.0292,-2.0138,-1.9973,-2.0001,-1.9855,-1.9771,-1.9727,-1.9514,-1.9373,-1.9329,-1.9071,-1.8803,-1.8734,-1.8438,-1.8156,-3.9388,-3.9388,-3.9388,-3.9388,-3.9388,-3.9388,-3.9388,-3.9388,0.0,0.0,0.0,-3.8649,-3.8478,-3.8315,-3.8225,-3.7309,-3.5855,-3.5641,-3.4787,-3.3326,-3.3154,-3.3124,-3.3124,-3.3124,-3.2481,-3.1303,-3.1036,-3.0329,-2.9198,-2.8932,-2.8803,-2.8606,-2.6809,-2.5703,-2.5363,-2.4115,-2.4372,-2.61,-2.5752,-2.4599,-2.2793,-2.2685,-2.2004,-2.0618,-2.0502,-2.0687,-2.11,-2.0749,-2.0367,-1.9994,-1.9777,-1.9404,-1.891,-1.9039,-1.9001,-1.858,-1.8718,-1.8311,-1.7138,-1.7232,-1.6943,-1.5879,-1.5825,-1.5945,-1.6199,-1.5507,-1.5089,-1.5044,-1.5089,-1.5089,-1.5089,-1.5097,-1.5211,-1.5451,-1.5471,-1.5571,-1.5785,-1.5825,-1.5764,-1.5825,-1.5771,-1.5825,-1.5825,-1.5825,-1.5825,-1.5784,-1.5892,-1.5932,-1.587,-1.5636,-1.539,-1.5435,-1.6478,-1.7279,-1.7802,-1.817,-1.8837,-2.0183,-2.0169,-2.0065,-2.0246,-2.0292,-2.0292,-2.0257,-2.0283,-2.0257,-2.0283,-2.0014,-1.9891,-1.9837,-1.9662,-1.9442,-1.9193,-1.8742,-1.8414,-3.9388,-3.9388,-3.9388,-3.9388,-3.9388,-3.9388,-3.9388,-3.9388,-3.9388,-3.9388,-3.9286,-3.8907,-3.8745,-3.8708,-3.8337,-3.7644,-3.6688,-3.5935,-3.5128,0.0,-3.3441,-3.3124,-3.3124,-3.3124,-3.2982,-3.2711,-3.1536,-3.0812,-3.0498,-2.9393,-2.8803,-2.8606,-2.7163,-2.5674,-2.4421,-2.4075,-2.4372,-2.5079,-2.4824,-2.4313,-2.3534,-2.3543,-2.3,-2.1993,-2.1748,-2.1366,-2.086,-2.0993,-2.0769,-2.0044,-2.0195,-1.9548,-1.8025,-1.7909,-1.7451,-1.6379,-1.6285,-1.6244,-1.6062,-1.6062,-1.6015,-1.5832,-1.5825,-1.5832,-1.5846,-1.5564,-1.5331,-1.5331,-1.5337,-1.5337,-1.5351,-1.5545,-1.5691,-1.5745,-1.5711,-1.5744,-1.5825,-1.5825,-1.5825,-1.5825,-1.5825,-1.5825,-1.5825,-1.5825,-1.5825,-1.5818,-1.5985,-1.6266,-1.64,-1.6317,-1.6528,-1.7253,-1.7661,-1.839,-1.9309,-1.9605,-1.9892,-2.0649,-2.0486,-2.0286,-2.0386,-2.0386,-2.0386,-2.0317,-2.0352,-2.0326,-2.0317,-2.0065,-1.9891,-1.9708,-1.9533,-1.9242,-1.8966,-1.8921,-1.8935,-3.9388,-3.9388,-3.9388,-3.9388,-3.9388,-3.9388,-3.9388,-3.9388,-3.9388,-3.9337,-3.9228,-3.8929,-3.8745,-3.8612,-3.8352,-3.7477,-3.6201,-3.5775,-3.491,-3.3738,-3.3283,-3.3124,-3.3124,-3.3124,-3.2896,-3.2438,-3.1436,-3.0678,-3.0215,-2.9279,-2.8803,-2.8653,-2.6972,-2.5285,-2.3777,-2.3388,-2.3538,-2.4035,-2.448,-2.447,-2.3939,-2.3651,-2.2765,-2.1336,-2.1042,-2.0583,-1.9779,-1.9694,-1.9418,-1.892,-1.8702,-1.8048,-1.7025,-1.6909,-1.6581,-1.5872,-1.5825,-1.5825,-1.5825,-1.5825,-1.5825,-1.5825,-1.5825,-1.5825,-1.5825,-1.5712,-1.5631,-1.5631,-1.5631,-1.5631,-1.5631,-1.5752,-1.5825,-1.5825,-1.5825,-1.5825,-1.5825,-1.5825,-1.5825,-1.5825,-1.5825,-1.5825,-1.5825,-1.5825,-1.5825,-1.5791,-1.5972,-1.6152,-1.6476,-1.6751,-1.7148,-1.7923,-1.8686,-1.9462,-2.0192,-2.0504,-2.0777,-2.1118,-2.102,-2.0908,-2.0891,-2.0891,-2.0883,-2.0883,-2.0746,-2.0626,-2.0591,-2.0246,-1.9924,-1.9799,-1.9571,-1.9342,-1.9112,-1.9004,-1.8966,-3.9523,-3.9388,-3.9388,-3.9388,-3.9388,-3.9388,-3.9388,-3.9388,-3.9388,-3.9301,-3.9141,-3.8907,-3.8723,-3.8553,-3.8315,-3.7232,-3.5775,-3.5628,-3.4705,-3.3197,-3.3124,-3.3124,-3.3124,-3.3124,-3.2797,-3.2164,-3.1347,-3.0621,-2.9988,-2.9198,-2.8653,-2.8305,-2.6856,-2.5314,-2.3728,-2.3379,-2.3288,-2.3529,-2.4291,-2.4372,-2.3759,-2.347,-2.2518,-2.1081,-2.0629,-2.0181,-1.9613,-1.9331,-1.8956,-1.8455,-1.7896,-1.7225,-1.6516,-1.6354,-1.615,-1.5838,-1.5832,-1.5879,-1.5825,-1.5825,-1.5825,-1.5825,-1.5825,-1.5825,-1.5825,-1.5825,-1.5825,-1.5825,-1.5812,-1.5818,-1.5812,-1.5778,-1.5825,-1.5825,-1.5825,-1.5825,-1.5825,-1.5825,-1.5825,-1.5825,-1.5825,-1.5825,-1.5825,-1.5825,-1.5858,-1.5932,-1.5932,-1.6094,-1.6585,-1.728,-1.7923,-1.854,-1.9519,-2.0249,-2.0482,-2.0872,-2.1212,-2.1293,-2.1156,-2.1028,-2.1037,-2.1105,-2.1131,-2.102,-2.0883,-2.0703,-2.0694,-2.0368,-2.0007,-1.9891,-1.9754,-1.9571,-1.9242,-1.8958,-1.8874,-3.9963,-3.9433,-3.9403,-3.9388,-3.9388,-3.9388,-3.9388,-3.9388,-3.9388,-3.9388,-3.9352,-3.8995,-3.8797,-3.8708,-3.8389,-3.7271,-3.5669,-3.5628,-3.4705,-3.324,-3.3124,-3.3124,-3.3124,-3.3124,-3.3068,-3.2797,-3.1581,-3.0845,-3.0678,-2.9428,-2.8315,-2.7484,-2.7389,-2.6484,-2.4933,-2.4894,-2.4658,-2.4035,-2.4125,-2.3678,-2.2728,-2.3079,-2.3011,-2.2333,-2.1836,-2.1633,-2.1633,-2.155,-2.0881,-1.9942,-1.9491,-1.8634,-1.7273,-1.6787,-1.6409,-1.5906,-1.6076,-1.6076,-1.5832,-1.5825,-1.5825,-1.5825,-1.5825,-1.5825,-1.5825,-1.5825,-1.5825,-1.5825,-1.5825,-1.5825,-1.5825,-1.5825,-1.5825,-1.5825,-1.5825,-1.5825,-1.5825,-1.5825,-1.5825,-1.5825,-1.5825,-1.5825,-1.5825,-1.5825,-1.5925,-1.6106,-1.6264,-1.6545,-1.7288,-1.8225,-1.8977,-1.9643,-2.0144,-2.0474,-2.1027,-2.1036,-2.1062,-2.0977,-2.066,-2.0609,-2.0651,-2.0591,-2.0429,-2.0823,-2.0514,-2.048,-2.0437,-2.0255,-2.0172,-1.9973,-1.9882,-1.9745,-1.9325,-1.9004,-1.8874,-4.0247,-3.9926,-3.9553,-3.9388,-3.9388,-3.9388,-3.9388,-3.9388,-3.9388,-3.9388,-3.9352,-3.9104,-3.8995,-3.8943,-3.8686,-3.7525,-3.5815,-3.5775,-3.4828,-3.3197,-3.3124,-3.3124,-3.3124,-3.3124,-3.3124,-3.2995,-3.1625,-3.0902,-3.0678,-2.9463,-2.8269,-2.7332,-2.7332,-2.6655,-2.5412,-2.4826,-2.4442,-2.4106,-2.3777,-2.3379,-2.3079,-2.3479,-2.3569,-2.3194,-2.256,-2.1954,-2.1641,-2.1242,-2.0915,-2.0713,-2.017,-1.9537,-1.8783,-1.8304,-1.7772,-1.7229,-1.6864,-1.6629,-1.6534,-1.6062,-1.5825,-1.5825,-1.5825,-1.5825,-1.5825,-1.5825,-1.5825,-1.5825,-1.5825,-1.5825,-1.5825,-1.5825,-1.5825,-1.5825,-1.5825,-1.5825,-1.5825,-1.5825,-1.5825,-1.5825,-1.5825,-1.5825,-1.5825,-1.5825,-1.5879,-1.604,-1.6341,-1.695,-1.7385,-1.8333,-1.9201,-1.9578,-1.9953,-2.0545,-2.1156,-2.1311,-2.1182,-2.1156,-2.1071,-2.0951,-2.0883,-2.0942,-2.096,-2.0917,-2.0703,-2.0591,-2.0677,-2.0412,-2.0246,-2.011,-1.9973,-1.9837,-1.9654,-1.9279,-1.9096,-4.0561,-4.0322,-3.9694,-3.9388,-3.9388,-3.9388,-3.9388,-3.9388,-3.9388,-3.9388,-3.9301,-3.9177,-3.8907,-3.8657,-3.856,-3.7486,-3.5829,-3.5669,-3.4759,-3.324,-3.3124,-3.3124,-3.3124,-3.3124,-3.3124,-3.2896,-3.1625,-3.0678,-3.0283,-2.9382,-2.8409,-2.7731,-2.7673,-2.7237,-2.6282,-2.5207,-2.4581,-2.4492,-2.3619,-2.3229,-2.3488,-2.3728,-2.3917,-2.3958,-2.332,-2.2719,-2.2299,-2.1794,-2.1599,-2.1836,-2.1045,-2.049,-2.0184,-1.9558,-1.8895,-1.8218,-1.7652,-1.7279,-1.7279,-1.6574,-1.6157,-1.6103,-1.5967,-1.5825,-1.5825,-1.5825,-1.5825,-1.5825,-1.5825,-1.5825,-1.5825,-1.5825,-1.5825,-1.5825,-1.5825,-1.5825,-1.5825,-1.5825,-1.5825,-1.5825,-1.5825,-1.592,-1.6062,-1.6204,-1.6265,-1.6555,-1.6965,-1.7412,-1.7645,-1.8558,-1.9258,-1.9463,-1.9982,-2.0468,-2.0994,-2.102,-2.1097,-2.1097,-2.0994,-2.0968,-2.1105,-2.1088,-2.1079,-2.0651,-2.0728,-2.0711,-2.0566,-2.0377,-2.0292,-2.0246,-2.011,-1.9936,-1.9845,-1.9563,-1.9379,-4.098,-4.0352,-3.9694,-3.9403,-3.9388,-3.9388,-3.9388,-3.9388,-3.9388,-3.9301,-3.9141,-3.9068,-3.8509,-3.7639,-3.7782,-3.6858,-3.5223,-3.5073,-3.4384,-3.3167,-3.3124,-3.3124,-3.3124,-3.3124,-3.3124,-3.2982,-3.1669,-3.0329,-2.9106,-2.885,-2.8803,-2.871,-2.8792,-2.8606,-2.7741,-2.6522,-2.58,-2.5343,-2.3728,-2.3088,-2.3836,-2.3529,-2.3777,-2.4529,-2.4282,-2.4134,-2.448,-2.4183,-2.3669,-2.322,-2.2496,-2.1764,-2.0996,-2.0097,-1.927,-1.8574,-1.8172,-1.8032,-1.7986,-1.7372,-1.6951,-1.6857,-1.6346,-1.5872,-1.592,-1.592,-1.5879,-1.5825,-1.5825,-1.5825,-1.5825,-1.5825,-1.5825,-1.5825,-1.5825,-1.5825,-1.5825,-1.5825,-1.5825,-1.5825,-1.5872,-1.6204,-1.681,-1.6943,-1.7232,-1.7667,-1.7994,-1.821,-1.8765,-1.9096,-1.9509,-1.9965,-2.0246,-2.0309,-2.036,-2.0514,-2.0472,-2.0497,-2.0583,-2.0437,-2.0369,-2.0343,-2.0377,-2.0403,-2.0374,-2.0366,-2.0343,-2.0309,-2.03,-2.0201,-2.011,-1.9982,-2.0019,-1.9762,-1.9625,-4.1422,-4.0382,-4.0157,-3.9813,-3.9403,-3.9388,-3.9388,-3.9388,-3.9388,-3.9352,-3.9177,-3.8583,-3.7829,-3.7074,-3.6503,-3.5709,-3.4841,-3.48,-3.4204,-3.321,-3.3124,-3.3124,-3.3124,-3.3124,-3.3124,-3.2939,-3.2077,-3.0857,-2.9509,-2.9013,-2.8803,-2.8803,-2.8839,-2.8757,-2.8373,-2.7342,-2.6416,-2.5606,-2.4245,-2.347,-2.322,-2.2937,-2.3188,-2.3827,-2.4026,-2.4183,-2.4381,-2.4183,-2.3916,-2.3514,-2.2921,-2.2421,-2.1886,-2.0991,-2.0357,-2.0011,-1.9271,-1.8819,-1.8727,-1.8125,-1.7707,-1.7707,-1.7473,-1.7005,-1.6669,-1.6574,-1.6339,-1.5967,-1.5825,-1.5825,-1.5825,-1.5825,-1.5825,-1.5825,-1.5825,-1.5825,-1.5825,-1.5825,-1.5825,-1.5872,-1.6197,-1.6857,-1.7466,-1.7699,-1.78,-1.8087,-1.8504,-1.8912,-1.9188,-1.9546,-1.9965,-2.0192,-2.0292,-2.0292,-2.0292,-2.03,-2.03,-2.03,-2.0317,-2.0335,-2.03,-2.03,-2.0343,-2.0352,-2.0209,-2.011,-2.0172,-2.0218,-2.0155,-2.0073,-1.9936,-2.0027,-2.0155,-1.9891,-1.9799,-4.1752,-4.0786,-4.0711,-4.0337,-3.9768,-3.9702,-3.9619,-3.9418,-3.9388,-3.9373,-3.9104,-3.8196,-3.7319,-3.6489,-3.5467,-3.4677,-3.4233,-3.4304,-3.3924,-3.3167,-3.3124,-3.3124,-3.3124,-3.3124,-3.3124,-3.2939,-3.2077,-3.0991,-2.9863,-2.9198,-2.8896,-2.8896,-2.8896,-2.8808,-2.8492,-2.7556,-2.6591,-2.5854,-2.4756,-2.3839,-2.3389,-2.3046,-2.3046,-2.3331,-2.3593,-2.3764,-2.3883,-2.3883,-2.3846,-2.3573,-2.3121,-2.27,-2.239,-2.1653,-2.1132,-2.0907,-2.0221,-1.9691,-1.9509,-1.8866,-1.8458,-1.8458,-1.8218,-1.7846,-1.7419,-1.7372,-1.7091,-1.6676,-1.6534,-1.6534,-1.6534,-1.6581,-1.6346,-1.6015,-1.6015,-1.6055,-1.5832,-1.5825,-1.5967,-1.6292,-1.6904,-1.7606,-1.8265,-1.8404,-1.8589,-1.8773,-1.9288,-1.9509,-1.9646,-1.9928,-2.0292,-2.0292,-2.0292,-2.0292,-2.0292,-2.0292,-2.0292,-2.0292,-2.0292,-2.0292,-2.0292,-2.0292,-2.0292,-2.0246,-2.0155,-2.0065,-2.0019,-2.0065,-1.9982,-1.9845,-1.9845,-1.9899,-1.9982,-2.0019,-1.9928,-4.2036,-4.1429,-4.1422,-4.101,-4.0457,-4.0412,-4.0038,-3.9538,-3.9463,-3.9375,-3.9083,-3.7956,-3.688,-3.5895,-3.4855,-3.3937,-3.3398,-3.3598,-3.3526,-3.3124,-3.3124,-3.3124,-3.3124,-3.3124,-3.3124,-3.3025,-3.1669,-3.0621,-2.9909,-2.9428,-2.9174,-2.9071,-2.9035,-2.8894,-2.8442,-2.737,-2.6668,-2.6305,-2.5105,-2.4509,-2.4762,-2.3869,-2.3373,-2.3392,-2.3138,-2.3114,-2.3444,-2.3471,-2.3489,-2.3486,-2.3184,-2.2796,-2.2387,-2.1919,-2.1463,-2.1132,-2.0943,-2.0682,-2.0238,-1.9608,-1.9188,-1.9142,-1.8596,-1.8311,-1.8172,-1.8125,-1.8032,-1.7854,-1.7854,-1.7947,-1.79,-1.7939,-1.7426,-1.6204,-1.648,-1.6527,-1.6015,-1.5825,-1.6157,-1.6951,-1.7699,-1.8404,-1.8958,-1.9188,-1.9417,-1.9882,-2.011,-2.0147,-2.0102,-2.0246,-2.0292,-2.0292,-2.0292,-2.0292,-2.0292,-2.0292,-2.0292,-2.0292,-2.0292,-2.0292,-2.0292,-2.0292,-2.0292,-2.0246,-2.0065,-1.9928,-1.9571,-1.9617,-1.9708,-1.9625,-1.9671,-1.9716,-1.9799,-1.9891,-2.0019,-4.2656,-4.2126,-4.2096,-4.1722,-4.1153,-4.107,-4.0696,-4.0127,-4.0098,-3.9807,-3.9039,-3.742,-3.6408,-3.5748,-3.4345,-3.3368,-3.3124,-3.324,-3.324,-3.3124,-3.3124,-3.3124,-3.3124,-3.3124,-3.3124,-3.2939,-3.212,-3.1258,-3.0588,-3.0068,-2.9577,-2.9035,-2.9035,-2.9004,-2.8851,-2.8176,-2.7564,-2.696,-2.6044,-2.529,-2.4706,-2.3625,-2.3065,-2.2981,-2.2575,-2.2445,-2.2693,-2.2969,-2.3008,-2.2806,-2.2685,-2.2516,-2.2358,-2.1954,-2.1642,-2.1454,-2.0826,-2.0464,-2.0337,-2.0102,-1.9928,-1.992,-1.9691,-1.9371,-1.8958,-1.8866,-1.8635,-1.8226,-1.8087,-1.8087,-1.8179,-1.8589,-1.8164,-1.681,-1.6857,-1.6756,-1.6157,-1.6346,-1.7185,-1.8257,-1.8727,-1.9188,-1.9737,-1.992,-2.0011,-2.0192,-2.0292,-2.0292,-2.0292,-2.0292,-2.0292,-2.0292,-2.0292,-2.0292,-2.0292,-2.0292,-2.0292,-2.0292,-2.0292,-2.0292,-2.0292,-2.0292,-2.0292,-2.0155,-1.9973,-1.97,-1.9342,-1.9258,-1.935,-1.9442,-1.9479,-1.9525,-1.9671,-1.9754,-1.9791,-4.3105,-4.2731,-4.2731,-4.2381,-4.1811,-4.1782,-4.1369,-4.0778,-4.0494,-4.0047,-3.9127,-3.7335,-3.6233,-3.5588,-3.4079,-3.327,-3.3124,-3.3124,-3.3124,-3.3124,-3.3124,-3.3124,-3.3124,-3.3124,-3.3124,-3.2982,-3.2351,-3.1625,-3.0902,-3.0509,-2.9943,-2.922,-2.9277,-2.9293,-2.9102,-2.8722,-2.8152,-2.7278,-2.6766,-2.6144,-2.5323,-2.4426,-2.3932,-2.3706,-2.2841,-2.2455,-2.2578,-2.2437,-2.2318,-2.2344,-2.2252,-2.2204,-2.2328,-2.1954,-2.1687,-2.1553,-2.1015,-2.0518,-2.0337,-2.0292,-2.0292,-2.0292,-2.0292,-2.0102,-1.9691,-1.96,-1.9325,-1.9004,-1.8958,-1.8912,-1.9004,-1.9279,-1.9042,-1.7978,-1.7878,-1.7458,-1.6951,-1.7326,-1.8071,-1.895,-1.9417,-1.9828,-2.0147,-2.0292,-2.0292,-2.0292,-2.0292,-2.0292,-2.0292,-2.0292,-2.0292,-2.0292,-2.0292,-2.0292,-2.0292,-2.0292,-2.0292,-2.0292,-2.0292,-2.0292,-2.0292,-2.0292,-2.0292,-1.9982,-1.9754,-1.9471,-1.9158,-1.9112,-1.9158,-1.9204,-1.925,-1.9296,-1.9342,-1.9433,-1.9525,-4.329,-4.3305,-4.329,-4.2955,-4.2485,-4.2455,-4.2081,-4.1413,-4.0801,-4.0202,-3.9344,-3.766,-3.6375,-3.5385,-3.4243,-3.3484,-3.321,-3.3124,-3.3124,-3.3124,-3.3124,-3.3124,-3.3124,-3.3124,-3.3124,-3.2982,-3.2438,-3.1701,-3.0902,-3.0746,-3.0216,-2.9485,-2.9588,-2.9682,-2.9285,-2.897,-2.8387,-2.7728,-2.746,-2.7095,-2.6565,-2.6005,-2.5571,-2.5232,-2.3751,-2.292,-2.2744,-2.1903,-2.1616,-2.2185,-2.2054,-2.2089,-2.2264,-2.1998,-2.1687,-2.1687,-2.1275,-2.0781,-2.0428,-2.0292,-2.0292,-2.0292,-2.0292,-2.0292,-2.0201,-2.0155,-2.011,-2.0065,-2.0056,-2.0147,-2.0155,-2.0201,-1.9828,-1.9371,-1.8904,-1.8496,-1.8265,-1.8681,-1.9096,-1.9325,-1.9874,-2.0292,-2.0292,-2.0292,-2.0292,-2.0292,-2.0292,-2.0292,-2.0292,-2.0292,-2.0292,-2.0292,-2.0292,-2.0292,-2.0292,-2.0292,-2.0292,-2.0292,-2.0292,-2.0292,-2.0292,-2.0292,-2.0201,-1.9891,-1.9671,-1.9342,-1.9104,-1.9058,-1.8966,-1.8966,-1.8966,-1.8966,-1.9058,-1.9196,-1.9387,-4.3305,-4.3305,-4.3305,-4.32,-4.309,-4.3075,-4.2701,-4.2094,-4.1425,-4.0783,-3.9818,-3.7831,-3.6757,-3.6293,-3.4528,-3.3641,-3.3484,-3.324,-3.3124,-3.3124,-3.3124,-3.3124,-3.3124,-3.3124,-3.3124,-3.3081,-3.284,-3.2164,-3.0991,-3.1059,-3.0476,-2.9266,-2.9531,-2.9669,-2.9614,-2.9274,-2.9079,-2.8861,-2.8311,-2.7849,-2.7271,-2.6397,-2.5584,-2.4935,-2.436,-2.3531,-2.2702,-2.1891,-2.1776,-2.2299,-2.2299,-2.2441,-2.2696,-2.2132,-2.1687,-2.1642,-2.1275,-2.0817,-2.0419,-2.0292,-2.0292,-2.0292,-2.0292,-2.0292,-2.0292,-2.0292,-2.0292,-2.0292,-2.0292,-2.0292,-2.0292,-2.0292,-2.0147,-1.992,-1.9188,-1.8689,-1.8912,-1.905,-1.9379,-1.9928,-2.0155,-2.0246,-2.0292,-2.0292,-2.0292,-2.0292,-2.0292,-2.0292,-2.0292,-2.0292,-2.0292,-2.0292,-2.0292,-2.0292,-2.0292,-2.0292,-2.0292,-2.0292,-2.0292,-2.0292,-2.0292,-2.0292,-2.0155,-1.9891,-1.9762,-1.9487,-1.9196,-1.9004,-1.8912,-1.8874,-1.8874,-1.8966,-1.9012,-1.915,-1.9296,-4.3305,-4.3305,-4.3305,-4.3305,-4.3305,-4.3305,-4.312,-4.2688,-4.2059,-4.1266,-4.0118,-3.8443,-3.7167,-3.6358,-3.4771,-3.3894,-3.3683,-3.3283,-3.3124,-3.3124,-3.3124,-3.3124,-3.3124,-3.3124,-3.3124,-3.3111,-3.327,-3.2729,-3.1833,-3.1713,-3.1003,-3.0114,-2.9795,-2.9817,-2.9863,-2.9704,-2.9542,-2.9437,-2.904,-2.8551,-2.7781,-2.7128,-2.648,-2.5708,-2.521,-2.42,-2.278,-2.2555,-2.253,-2.222,-2.2132,-2.222,-2.2432,-2.2043,-2.1687,-2.1696,-2.123,-2.0862,-2.0645,-2.0428,-2.0292,-2.0292,-2.0292,-2.0292,-2.0292,-2.0292,-2.0292,-2.0292,-2.0292,-2.0292,-2.0292,-2.0292,-2.0292,-2.0201,-1.9509,-1.9188,-1.9646,-1.9691,-1.9882,-2.0155,-2.0292,-2.0292,-2.0292,-2.0292,-2.0292,-2.0292,-2.0292,-2.0292,-2.0292,-2.0292,-2.0292,-2.0292,-2.0292,-2.0292,-2.0292,-2.0292,-2.0292,-2.0292,-2.0292,-2.0292,-2.0292,-2.0292,-2.0155,-1.9982,-1.9808,-1.9625,-1.9333,-1.9142,-1.905,-1.9004,-1.8958,-1.9058,-1.9196,-1.9204,-1.9342,-4.3349,-4.3305,-4.3305,-4.3305,-4.3305,-4.3305,-4.3275,-4.314,-4.2397,-4.1505,-4.034,-3.9017,-3.751,-3.6089,-3.4976,-3.4147,-3.3768,-3.3326,-3.3167,-3.3124,-3.3124,-3.3124,-3.3124,-3.3197,-3.3283,-3.3398,-3.3628,-3.3305,-3.2735,-3.2432,-3.1821,-3.089,-3.0374,-3.0136,-3.0011,-3.0045,-2.993,-2.9699,-2.9607,-2.9104,-2.8405,-2.8014,-2.7507,-2.6786,-2.5737,-2.467,-2.3607,-2.3333,-2.3188,-2.1909,-2.182,-2.1909,-2.1919,-2.1865,-2.1687,-2.1642,-2.1365,-2.1087,-2.0862,-2.0555,-2.0337,-2.0337,-2.0292,-2.0292,-2.0292,-2.0292,-2.0292,-2.0292,-2.0292,-2.0292,-2.0292,-2.0292,-2.0292,-2.0246,-2.0201,-2.0246,-2.0292,-2.0292,-2.0292,-2.0292,-2.0292,-2.0292,-2.0292,-2.0292,-2.0292,-2.0292,-2.0292,-2.0292,-2.0292,-2.0292,-2.0292,-2.0292,-2.0292,-2.0292,-2.0292,-2.0292,-2.0292,-2.0292,-2.0292,-2.0292,-2.0292,-2.0246,-2.0155,-2.0019,-1.9891,-1.9708,-1.9471,-1.9325,-1.9234,-1.9234,-1.9242,-1.9387,-1.9533,-1.9442,-1.9487,-4.3768,-4.3305,-4.3305,-4.3305,-4.3305,-4.3305,-4.3305,-4.317,-4.2017,-4.1405,-4.0588,-3.8755,-3.7573,-3.699,-3.5246,-3.4301,-3.4063,-3.3484,-3.3124,-3.3124,-3.3124,-3.3124,-3.321,-3.3398,-3.3725,-3.3979,-3.4189,-3.3856,-3.3292,-3.2778,-3.2127,-3.1223,-3.0734,-3.0397,-3.0182,-3.0114,-3.0181,-3.0067,-3.0044,-2.9711,-2.9148,-2.87,-2.8214,-2.7394,-2.6111,-2.52,-2.4628,-2.393,-2.3333,-2.2843,-2.2511,-2.2432,-2.2476,-2.2043,-2.1731,-2.1642,-2.1553,-2.1195,-2.0699,-2.069,-2.0682,-2.0337,-2.0292,-2.0292,-2.0292,-2.0292,-2.0292,-2.0292,-2.0292,-2.0292,-2.0292,-2.0292,-2.0292,-2.0292,-2.0292,-2.0292,-2.0292,-2.0292,-2.0292,-2.0292,-2.0292,-2.0292,-2.0292,-2.0292,-2.0292,-2.0292,-2.0292,-2.0292,-2.0292,-2.0292,-2.0292,-2.0292,-2.0292,-2.0292,-2.0292,-2.0292,-2.0292,-2.0292,-2.0292,-2.0292,-2.0292,-2.0292,-2.0201,-2.011,-2.0027,-1.9837,-1.9608,-1.9571,-1.9487,-1.9487,-1.9525,-1.9671,-1.9716,-1.9671,-1.9716,-4.3604,-4.3305,-4.3305,-4.3305,-4.3305,-4.3305,-4.313,-4.2754,-4.2114,-4.1222,-4.021,-3.8574,-3.7575,-3.6703,-3.5165,-3.4314,-3.3979,-3.3454,-3.3124,-3.3124,-3.3124,-3.3197,-3.3398,-3.3556,-3.3852,-3.4147,-3.4577,-3.4426,-3.4066,-3.3292,-3.2506,-3.1797,-3.0946,-3.0318,-3.0136,-3.0125,-3.0216,-3.0204,-3.0216,-2.9986,-2.9515,-2.9228,-2.8623,-2.7801,-2.6629,-2.5799,-2.5147,-2.4787,-2.3963,-2.3367,-2.3081,-2.2925,-2.2696,-2.2132,-2.1731,-2.1696,-2.1463,-2.123,-2.0826,-2.0645,-2.0564,-2.0337,-2.0292,-2.0292,-2.0292,-2.0292,-2.0292,-2.0292,-2.0292,-2.0292,-2.0292,-2.0292,-2.0292,-2.0292,-2.0292,-2.0292,-2.0292,-2.0292,-2.0292,-2.0292,-2.0292,-2.0292,-2.0292,-2.0292,-2.0292,-2.0292,-2.0292,-2.0292,-2.0292,-2.0292,-2.0292,-2.0292,-2.0292,-2.0292,-2.0292,-2.0292,-2.0292,-2.0292,-2.0292,-2.0292,-2.0292,-2.0292,-2.0292,-2.0201,-2.011,-2.0027,-1.9891,-1.9808,-1.9762,-1.9754,-1.9799,-1.9891,-1.9936,-1.9982,-2.0027,-4.3379,-4.3305,-4.3305,-4.3305,-4.3305,-4.317,-4.2835,-4.2374,-4.1971,-4.077,-3.948,-3.863,-3.7276,-3.6121,-3.4936,-3.4147,-3.3725,-3.3441,-3.3283,-3.3454,-3.321,-3.3356,-3.3556,-3.367,-3.3713,-3.3797,-3.4618,-3.4949,-3.4634,-3.3814,-3.298,-3.242,-3.1092,-3.0363,-3.0091,-3.0091,-3.0216,-3.0216,-3.0216,-3.0078,-2.9699,-2.9504,-2.8941,-2.7985,-2.7235,-2.6426,-2.5757,-2.5379,-2.4914,-2.3617,-2.3777,-2.344,-2.2784,-2.2132,-2.1741,-2.1731,-2.141,-2.1096,-2.0826,-2.06,-2.0473,-2.0337,-2.0292,-2.0292,-2.0292,-2.0292,-2.0292,-2.0292,-2.0292,-2.0292,-2.0292,-2.0292,-2.0292,-2.0292,-2.0292,-2.0292,-2.0292,-2.0292,-2.0292,-2.0292,-2.0292,-2.0292,-2.0292,-2.0292,-2.0292,-2.0292,-2.0292,-2.0292,-2.0292,-2.0292,-2.0292,-2.0292,-2.0292,-2.0292,-2.0292,-2.0292,-2.0292,-2.0292,-2.0292,-2.0292,-2.0292,-2.0292,-2.0292,-2.0292,-2.0201,-2.011,-2.0065,-2.0027,-1.9982,-1.9973,-2.0019,-2.0065,-2.0155,-2.0292,-2.0292,-4.3783,-4.3305,-4.3305,-4.3305,-4.321,-4.2714,-4.2415,-4.2041,-4.0601,-3.9747,-3.9173,-3.7703,-3.6852,-3.614,-3.5035,-3.4202,-3.3852,-3.3598,-3.3725,-3.3823,-3.3496,-3.3313,-3.3556,-3.3628,-3.3628,-3.3924,-3.4564,-3.4949,-3.4867,-3.4092,-3.3305,-3.2692,-3.1492,-3.0623,-3.0216,-3.0182,-3.0216,-3.0216,-3.0216,-3.0124,-2.9998,-2.963,-2.9056,-2.8115,-2.7492,-2.6918,-2.6385,-2.5988,-2.56,-2.5137,-2.485,-2.4423,-2.3777,-2.2862,-2.222,-2.1741,-2.1553,-2.1195,-2.06,-2.069,-2.06,-2.0428,-2.0292,-2.0292,-2.0292,-2.0292,-2.0292,-2.0292,-2.0292,-2.0292,-2.0292,-2.0292,-2.0292,-2.0292,-2.0292,-2.0292,-2.0292,-2.0292,-2.0292,-2.0292,-2.0292,-2.0292,-2.0292,-2.0292,-2.0292,-2.0292,-2.0292,-2.0292,-2.0292,-2.0292,-2.0292,-2.0292,-2.0292,-2.0292,-2.0292,-2.0292,-2.0292,-2.0292,-2.0292,-2.0292,-2.0292,-2.0292,-2.0292,-2.0292,-2.0292,-2.0246,-2.0201,-2.0201,-2.0201,-2.0155,-2.0201,-2.0246,-2.0246,-2.0292,-2.0292,-4.3589,-4.3305,-4.3305,-4.3305,-4.317,-4.2592,-4.1925,-4.1182,-3.997,-3.881,-3.7937,-3.6974,-3.6292,-3.5775,-3.5191,-3.4522,-3.4147,-3.3797,-3.3839,-3.3852,-3.3398,-3.3154,-3.3398,-3.3398,-3.3386,-3.3556,-3.4063,-3.4701,-3.4949,-3.4147,-3.3488,-3.2834,-3.1801,-3.0925,-3.0352,-3.0216,-3.0216,-3.0216,-3.0216,-3.0216,-3.017,-2.9734,-2.9068,-2.8459,-2.7874,-2.7352,-2.6791,-2.6467,-2.5999,-2.5569,-2.5285,-2.4988,-2.4476,-2.382,-2.2818,-2.1945,-2.1508,-2.1105,-2.0473,-2.0518,-2.0473,-2.0337,-2.0292,-2.0292,-2.0292,-2.0292,-2.0292,-2.0292,-2.0292,-2.0292,-2.0292,-2.0292,-2.0292,-2.0292,-2.0292,-2.0292,-2.0292,-2.0292,-2.0292,-2.0292,-2.0292,-2.0292,-2.0292,-2.0292,-2.0292,-2.0292,-2.0292,-2.0292,-2.0292,-2.0292,-2.0292,-2.0292,-2.0292,-2.0292,-2.0292,-2.0292,-2.0292,-2.0292,-2.0292,-2.0292,-2.0292,-2.0292,-2.0292,-2.0292,-2.0292,-2.0292,-2.0292,-2.0246,-2.0292,-2.0292,-2.0292,-2.0292,-2.0292,-2.0292,-2.0292,-4.3305,-4.3305,-4.3305,-4.321,-4.2981,-4.2228,-4.1252,-4.019,-3.9159,-3.7964,-3.6714,-3.6442,-3.5967,-3.5384,-3.5208,-3.4977,-3.4522,-3.4147,-3.4092,-3.3966,-3.3526,-3.324,-3.324,-3.3124,-3.3167,-3.3227,-3.3441,-3.4021,-3.4439,-3.4063,-3.3445,-3.2747,-3.1965,-3.1137,-3.0397,-3.0216,-3.0216,-3.0216,-3.0216,-3.0216,-3.0101,-2.9745,-2.932,-2.8838,-2.8287,-2.7687,-2.713,-2.673,-2.6302,-2.5957,-2.5706,-2.5538,-2.5147,-2.4797,-2.38,-2.2334,-2.1535,-2.0961,-2.06,-2.0337,-2.0337,-2.0292,-2.0292,-2.0292,-2.0292,-2.0292,-2.0292,-2.0292,-2.0292,-2.0292,-2.0292,-2.0292,-2.0292,-2.0292,-2.0292,-2.0292,-2.0292,-2.0292,-2.0292,-2.0292,-2.0292,-2.0292,-2.0292,-2.0292,-2.0292,-2.0292,-2.0292,-2.0292,-2.0292,-2.0292,-2.0292,-2.0292,-2.0292,-2.0292,-2.0292,-2.0292,-2.0292,-2.0292,-2.0292,-2.0292,-2.0292,-2.0292,-2.0292,-2.0292,-2.0292,-2.0292,-2.0292,-2.0292,-2.0292,-2.0292,-2.0292,-2.0292,-2.0292,-2.0292,-2.0292,-4.3305,-4.329,-4.329,-4.2955,-4.2243,-4.1163,-4.0232,-3.9341,-3.7786,-3.6837,-3.6497,-3.609,-3.5778,-3.5616,-3.5588,-3.5358,-3.5031,-3.4784,-3.466,-3.4439,-3.3852,-3.3471,-3.3513,-3.324,-3.3124,-3.3111,-3.3154,-3.3398,-3.381,-3.3755,-3.3232,-3.2488,-3.1921,-3.1104,-3.0273,-3.0216,-3.0216,-3.0216,-3.0216,-3.0216,-3.0147,-2.9768,-2.9515,-2.9148,-2.8554,-2.7897,-2.7504,-2.7054,-2.6557,-2.6523,-2.6448,-2.6218,-2.5893,-2.5935,-2.4956,-2.3541,-2.229,-2.141,-2.0907,-2.051,-2.0292,-2.0292,-2.0292,-2.0292,-2.0292,-2.0292,-2.0292,-2.0292,-2.0292,-2.0292,-2.0292,-2.0292,-2.0292,-2.0292,-2.0292,-2.0292,-2.0292,-2.0292,-2.0292,-2.0292,-2.0292,-2.0292,-2.0292,-2.0292,-2.0292,-2.0292,-2.0292,-2.0292,-2.0292,-2.0292,-2.0292,-2.0292,-2.0292,-2.0292,-2.0292,-2.0292,-2.0292,-2.0292,-2.0292,-2.0292,-2.0292,-2.0292,-2.0292,-2.0292,-2.0292,-2.0292,-2.0292,-2.0292,-2.0292,-2.0292,-2.0292,-2.0292,-2.0292,-2.0292,-2.0292,-4.2447,-4.2776,-4.2791,-4.2199,-4.1197,-4.0305,-3.9315,-3.8281,-3.7154,-3.6415,-3.6117,-3.5859,-3.571,-3.571,-3.571,-3.548,-3.5113,-3.4867,-3.4522,-3.4314,-3.3725,-3.3386,-3.3313,-3.3197,-3.3124,-3.3124,-3.3124,-3.3154,-3.3398,-3.3513,-3.3232,-3.2358,-3.2052,-3.1315,-3.0182,-3.0125,-3.0091,-3.0102,-3.0136,-3.0216,-3.0125,-2.9885,-2.9556,-2.9271,-2.8716,-2.8332,-2.7949,-2.7372,-2.7071,-2.7076,-2.696,-2.6685,-2.6456,-2.6238,-2.5589,-2.4627,-2.3377,-2.2236,-2.1168,-2.06,-2.0374,-2.0292,-2.0292,-2.0292,-2.0292,-2.0292,-2.0292,-2.0292,-2.0292,-2.0292,-2.0292,-2.0292,-2.0292,-2.0292,-2.0292,-2.0292,-2.0292,-2.0292,-2.0292,-2.0292,-2.0292,-2.0292,-2.0292,-2.0292,-2.0292,-2.0292,-2.0292,-2.0292,-2.0292,-2.0292,-2.0292,-2.0292,-2.0292,-2.0292,-2.0292,-2.0292,-2.0292,-2.0292,-2.0292,-2.0292,-2.0292,-2.0292,-2.0292,-2.0292,-2.0292,-2.0292,-2.0292,-2.0292,-2.0292,-2.0292,-2.0292,-2.0292,-2.0292,-2.0292,-2.0292,-4.1579,-4.1916,-4.2081,-4.151,-4.0432,-3.9643,-3.8649,-3.7571,-3.6702,-3.6117,-3.5818,-3.571,-3.571,-3.571,-3.5669,-3.5548,-3.5236,-3.4784,-3.4314,-3.3894,-3.3471,-3.3227,-3.3154,-3.3124,-3.3124,-3.3124,-3.3124,-3.3111,-3.3197,-3.3258,-3.2988,-3.2108,-3.2096,-3.1315,-3.0363,-3.0011,-3.0057,-3.0045,-3.0125,-3.0216,-3.017,-3.0011,-2.9727,-2.9387,-2.9015,-2.8723,-2.8526,-2.7976,-2.7705,-2.7347,-2.7258,-2.7054,-2.6813,-2.6633,-2.603,-2.5137,-2.4102,-2.2974,-2.1784,-2.0952,-2.051,-2.0329,-2.0292,-2.0292,-2.0292,-2.0292,-2.0292,-2.0292,-2.0292,-2.0292,-2.0292,-2.0292,-2.0292,-2.0292,-2.0292,-2.0292,-2.0292,-2.0292,-2.0292,-2.0292,-2.0292,-2.0292,-2.0292,-2.0292,-2.0292,-2.0292,-2.0292,-2.0292,-2.0292,-2.0292,-2.0292,-2.0292,-2.0292,-2.0292,-2.0292,-2.0292,-2.0292,-2.0292,-2.0292,-2.0292,-2.0292,-2.0292,-2.0292,-2.0292,-2.0292,-2.0292,-2.0292,-2.0292,-2.0292,-2.0292,-2.0292,-2.0292,-2.0292,-2.0292,-2.0292,-4.104,-4.0591,-4.1175,-4.0973,-4.0237,-3.9153,-3.8198,-3.7283,-3.6238,-3.5805,-3.5723,-3.571,-3.571,-3.571,-3.571,-3.5669,-3.5588,-3.5236,-3.4688,-3.4272,-3.3894,-3.3441,-3.3283,-3.3197,-3.3124,-3.3124,-3.3167,-3.321,-3.3124,-3.3154,-3.2494,-3.156,-3.1813,-3.1071,-3.0329,-2.9931,-3.0057,-3.0091,-3.0216,-3.0216,-3.0125,-3.0045,-2.9909,-2.9886,-2.9454,-2.908,-2.9035,-2.856,-2.8132,-2.7674,-2.753,-2.7376,-2.7167,-2.7019,-2.6437,-2.5474,-2.4925,-2.38,-2.2545,-2.1445,-2.0781,-2.0464,-2.0292,-2.0292,-2.0292,-2.0292,-2.0292,-2.0292,-2.0292,-2.0292,-2.0292,-2.0292,-2.0292,-2.0292,-2.0292,-2.0292,-2.0292,-2.0292,-2.0292,-2.0292,-2.0292,-2.0292,-2.0292,-2.0292,-2.0292,-2.0292,-2.0292,-2.0292,-2.0292,-2.0292,-2.0292,-2.0292,-2.0292,-2.0292,-2.0292,-2.0292,-2.0292,-2.0292,-2.0292,-2.0292,-2.0292,-2.0292,-2.0292,-2.0292,-2.0292,-2.0292,-2.0292,-2.0292,-2.0292,-2.0292,-2.0292,-2.0292,-2.0292,-2.0292,-2.0292,-4.0023,-3.9792,-3.9684,-3.9247,-3.863,-3.8169,-3.7394,-3.6453,-3.5885,-3.571,-3.571,-3.571,-3.571,-3.571,-3.5669,-3.5548,-3.5318,-3.4867,-3.4605,-3.423,-3.3725,-3.3441,-3.3356,-3.3428,-3.3356,-3.324,-3.3326,-3.3326,-3.3111,-3.3068,-3.222,-3.1593,-3.1427,-3.0713,-3.0091,-2.984,-3.0011,-3.0136,-3.0216,-3.0216,-3.0182,-3.0011,-2.9931,-2.9932,-2.9659,-2.9444,-2.9466,-2.908,-2.883,-2.8532,-2.8128,-2.7752,-2.7485,-2.7362,-2.6738,-2.5904,-2.5516,-2.4659,-2.3212,-2.2113,-2.123,-2.0781,-2.051,-2.0292,-2.0292,-2.0292,-2.0292,-2.0292,-2.0292,-2.0292,-2.0292,-2.0292,-2.0292,-2.0292,-2.0337,-2.0329,-2.0292,-2.0292,-2.0292,-2.0292,-2.0292,-2.0292,-2.0292,-2.0292,-2.0292,-2.0292,-2.0292,-2.0292,-2.0292,-2.0292,-2.0292,-2.0292,-2.0292,-2.0292,-2.0292,-2.0292,-2.0292,-2.0292,-2.0292,-2.0292,-2.0292,-2.0292,-2.0292,-2.0292,-2.0292,-2.0292,-2.0292,-2.0292,-2.0292,-2.0292,-2.0292,-2.0292,-2.0292,-2.0292,-2.0292,-3.9388,-3.9316,-3.8752,-3.824,-3.7848,-3.7491,-3.6833,-3.6071,-3.5804,-3.571,-3.571,-3.571,-3.571,-3.571,-3.571,-3.5588,-3.5277,-3.4949,-3.4701,-3.4356,-3.4034,-3.3738,-3.381,-3.3894,-3.381,-3.3569,-3.3696,-3.3725,-3.3313,-3.3099,-3.2164,-3.1315,-3.0836,-3.0204,-2.9852,-2.9737,-3.0011,-3.0125,-3.0125,-3.017,-3.0136,-3.0023,-2.9977,-2.9977,-2.9738,-2.9692,-2.9761,-2.9579,-2.9362,-2.9074,-2.8648,-2.8195,-2.7862,-2.747,-2.6896,-2.6445,-2.6049,-2.5474,-2.4155,-2.2599,-2.1553,-2.0961,-2.0736,-2.051,-2.0337,-2.0292,-2.0292,-2.0292,-2.0292,-2.0337,-2.0428,-2.0555,-2.06,-2.0637,-2.0591,-2.0591,-2.0374,-2.0292,-2.0292,-2.0292,-2.0292,-2.0292,-2.0292,-2.0292,-2.0292,-2.0292,-2.0292,-2.0292,-2.0292,-2.0292,-2.0292,-2.0292,-2.0292,-2.0292,-2.0292,-2.0292,-2.0292,-2.0292,-2.0292,-2.0292,-2.0292,-2.0292,-2.0292,-2.0292,-2.0292,-2.0292,-2.0292,-2.0292,-2.0292,-2.0292,-2.0292,-2.0292,-2.0292,-2.0292,-2.0292,-3.9373,-3.9352,-3.8716,-3.8441,-3.8165,-3.7197,-3.6665,-3.6389,-3.5951,-3.571,-3.571,-3.571,-3.571,-3.571,-3.571,-3.5629,-3.5548,-3.5195,-3.5031,-3.4908,-3.4439,-3.4343,-3.4356,-3.4369,-3.4272,-3.4356,-3.4356,-3.4147,-3.3683,-3.333,-3.2271,-3.1291,-3.0711,-2.9954,-2.9577,-2.9783,-3.0011,-3.0125,-3.0011,-3.0057,-3.0136,-3.0011,-3.0057,-3.0045,-2.9966,-2.992,-2.992,-2.9966,-2.976,-2.9372,-2.8909,-2.8436,-2.808,-2.7529,-2.6944,-2.6404,-2.631,-2.5904,-2.5105,-2.2994,-2.1935,-2.1221,-2.0961,-2.069,-2.0419,-2.0337,-2.0382,-2.0464,-2.0473,-2.06,-2.0772,-2.0952,-2.0898,-2.0907,-2.0862,-2.0862,-2.0645,-2.0609,-2.0699,-2.0555,-2.0428,-2.0337,-2.0292,-2.0292,-2.0292,-2.0292,-2.0292,-2.0292,-2.0292,-2.0292,-2.0292,-2.0292,-2.0292,-2.0292,-2.0292,-2.0292,-2.0292,-2.0292,-2.0292,-2.0292,-2.0292,-2.0292,-2.0292,-2.0292,-2.0292,-2.0292,-2.0292,-2.0292,-2.0292,-2.0292,-2.0292,-2.0292,-2.0292,-2.0292,-2.0292,-3.9156,-3.8738,-3.8165,-3.7658,-3.7289,-3.69,-3.6468,-3.6031,-3.579,-3.571,-3.571,-3.571,-3.571,-3.571,-3.571,-3.571,-3.5629,-3.5318,-3.5154,-3.5386,-3.4799,-3.4688,-3.4743,-3.4825,-3.4729,-3.4564,-3.4605,-3.4605,-3.4134,-3.3742,-3.3335,-3.2438,-3.1012,-3.017,-2.9566,-2.9497,-2.9726,-2.9966,-2.9931,-2.9977,-3.017,-3.0136,-3.0136,-3.0159,-3.0125,-3.0091,-3.0102,-3.0182,-2.9999,-2.9657,-2.9206,-2.8609,-2.8276,-2.7706,-2.712,-2.6839,-2.6839,-2.6539,-2.5863,-2.4531,-2.3246,-2.2148,-2.1356,-2.1042,-2.0428,-2.0645,-2.069,-2.0826,-2.1015,-2.1096,-2.1042,-2.1033,-2.0988,-2.0952,-2.0997,-2.1186,-2.1195,-2.1239,-2.1284,-2.1006,-2.0772,-2.0473,-2.0382,-2.0292,-2.0292,-2.0292,-2.0292,-2.0292,-2.0292,-2.0292,-2.0292,-2.0292,-2.0292,-2.0292,-2.0292,-2.0292,-2.0292,-2.0292,-2.0292,-2.0292,-2.0292,-2.0292,-2.0292,-2.0292,-2.0292,-2.0292,-2.0292,-2.0292,-2.0292,-2.0292,-2.0292,-2.0292,-2.0292,-2.0292,-2.0292,-3.9156,-3.8738,-3.791,-3.7376,-3.6964,-3.6533,-3.6071,-3.575,-3.571,-3.571,-3.571,-3.571,-3.571,-3.571,-3.571,-3.571,-3.5669,-3.548,-3.5358,-3.5629,-3.5182,-3.5154,-3.5236,-3.5277,-3.5195,-3.4977,-3.5072,-3.5072,-3.4605,-3.4371,-3.3407,-3.2234,-3.1589,-3.0396,-2.9703,-2.9542,-2.9783,-2.9966,-3.0023,-2.9966,-3.0125,-3.0216,-3.0216,-3.0216,-3.0216,-3.0216,-3.0216,-3.0216,-3.0216,-2.9929,-2.9378,-2.8723,-2.8413,-2.7832,-2.7259,-2.719,-2.7149,-2.6839,-2.6155,-2.5821,-2.4445,-2.3028,-2.2403,-2.1748,-2.1186,-2.1347,-2.1356,-2.1454,-2.1642,-2.1588,-2.149,-2.1401,-2.1392,-2.1401,-2.149,-2.1687,-2.1553,-2.1642,-2.1553,-2.1266,-2.0907,-2.0645,-2.0428,-2.0337,-2.0292,-2.0292,-2.0292,-2.0292,-2.0292,-2.0292,-2.0292,-2.0292,-2.0292,-2.0292,-2.0292,-2.0292,-2.0292,-2.0292,-2.0292,-2.0292,-2.0292,-2.0292,-2.0292,-2.0292,-2.0292,-2.0292,-2.0292,-2.0292,-2.0292,-2.0292,-2.0292,-2.0292,-2.0292,-2.0292,-2.0292,-3.9388,-3.9177,-3.8075,-3.7567,-3.7337,-3.6256,-3.571,-3.571,-3.571,-3.571,-3.571,-3.571,-3.571,-3.571,-3.571,-3.571,-3.571,-3.5669,-3.5669,-3.5669,-3.5507,-3.5588,-3.5588,-3.5629,-3.5521,-3.5588,-3.5588,-3.5399,-3.5059,-3.469,-3.3339,-3.1884,-3.1645,-3.0767,-3.025,-2.9863,-3.0011,-3.0011,-2.9977,-3.0011,-3.017,-3.0216,-3.0216,-3.0216,-3.0216,-3.0216,-3.0216,-3.0216,-3.0216,-2.9883,-2.9286,-2.8873,-2.8379,-2.7706,-2.7373,-2.719,-2.719,-2.6839,-2.6487,-2.6279,-2.5726,-2.4531,-2.4488,-2.3507,-2.2545,-2.2271,-2.228,-2.2069,-2.2078,-2.2176,-2.2176,-2.2167,-2.2211,-2.2211,-2.2211,-2.2132,-2.1865,-2.1776,-2.1633,-2.1365,-2.0961,-2.0699,-2.0564,-2.0428,-2.0464,-2.0292,-2.0292,-2.0292,-2.0292,-2.0292,-2.0292,-2.0292,-2.0292,-2.0292,-2.0292,-2.0292,-2.0292,-2.0292,-2.0292,-2.0292,-2.0292,-2.0292,-2.0292,-2.0292,-2.0292,-2.0292,-2.0292,-2.0292,-2.0292,-2.0292,-2.0292,-2.0292,-2.0292,-2.0292,-2.0292,-3.9171,-3.8664,-3.7924,-3.739,-3.6847,-3.6071,-3.571,-3.571,-3.571,-3.571,-3.571,-3.571,-3.571,-3.571,-3.571,-3.571,-3.571,-3.571,-3.571,-3.571,-3.571,-3.571,-3.571,-3.571,-3.571,-3.571,-3.5669,-3.5629,-3.5507,-3.5142,-3.4566,-3.359,-3.2345,-3.1645,-3.0913,-3.0385,-3.017,-3.0,-2.9977,-3.0057,-3.0125,-3.0216,-3.0216,-3.0216,-3.0216,-3.0216,-3.0216,-3.0216,-3.0216,-3.0044,-2.9228,-2.8723,-2.862,-2.7763,-2.719,-2.719,-2.719,-2.7097,-2.6933,-2.688,-2.6539,-2.5988,-2.603,-2.5147,-2.3986,-2.3313,-2.3323,-2.3071,-2.2731,-2.2784,-2.274,-2.2696,-2.2608,-2.253,-2.2608,-2.2608,-2.2388,-2.2255,-2.2122,-2.1722,-2.1275,-2.1096,-2.0916,-2.0826,-2.0826,-2.0464,-2.0292,-2.0337,-2.0292,-2.0292,-2.0292,-2.0292,-2.0292,-2.0292,-2.0292,-2.0292,-2.0292,-2.0292,-2.0292,-2.0292,-2.0292,-2.0292,-2.0292,-2.0292,-2.0292,-2.0292,-2.0292,-2.0292,-2.0292,-2.0292,-2.0292,-2.0292,-2.0292,-2.0292,-2.0292,-3.8403,-3.7994,-3.7433,-3.6803,-3.6236,-3.5635,-3.5479,-3.5669,-3.571,-3.571,-3.571,-3.571,-3.571,-3.571,-3.571,-3.571,-3.571,-3.571,-3.571,-3.571,-3.571,-3.571,-3.571,-3.571,-3.571,-3.571,-3.571,-3.5669,-3.5629,-3.5223,-3.4634,-3.3632,-3.2907,-3.2008,-3.1092,-3.0397,-3.017,-3.0045,-3.0045,-3.0091,-3.0182,-3.0216,-3.0216,-3.0216,-3.0216,-3.0216,-3.0216,-3.0216,-3.0216,-3.0078,-2.924,-2.8723,-2.854,-2.7805,-2.7213,-2.719,-2.719,-2.719,-2.7108,-2.7149,-2.6933,-2.6809,-2.6921,-2.6404,-2.5673,-2.4988,-2.4616,-2.4231,-2.3767,-2.343,-2.3256,-2.3081,-2.2916,-2.2706,-2.2916,-2.3125,-2.3003,-2.2872,-2.2564,-2.2167,-2.1856,-2.1687,-2.1499,-2.1365,-2.1132,-2.0826,-2.06,-2.051,-2.0419,-2.0292,-2.0292,-2.0292,-2.0292,-2.0292,-2.0292,-2.0292,-2.0292,-2.0292,-2.0292,-2.0292,-2.0292,-2.0292,-2.0292,-2.0292,-2.0292,-2.0292,-2.0292,-2.0292,-2.0292,-2.0292,-2.0292,-2.0292,-2.0292,-2.0292,-2.0292,-3.74,-3.7346,-3.6696,-3.6096,-3.5534,-3.4956,-3.4992,-3.5507,-3.5465,-3.5574,-3.5669,-3.571,-3.571,-3.571,-3.571,-3.571,-3.571,-3.571,-3.571,-3.571,-3.571,-3.571,-3.571,-3.571,-3.571,-3.571,-3.571,-3.571,-3.5467,-3.4964,-3.4163,-3.298,-3.2171,-3.1315,-3.0521,-3.0306,-3.017,-3.017,-3.0136,-3.0182,-3.017,-3.0216,-3.0216,-3.0216,-3.0216,-3.0216,-3.0216,-3.0216,-3.0216,-2.9883,-2.9378,-2.8746,-2.8161,-2.777,-2.7305,-2.719,-2.719,-2.719,-2.719,-2.719,-2.719,-2.7149,-2.719,-2.7015,-2.6498,-2.5935,-2.5421,-2.5084,-2.4627,-2.4294,-2.4079,-2.3767,-2.3517,-2.3299,-2.3299,-2.3266,-2.3091,-2.296,-2.274,-2.2432,-2.2441,-2.222,-2.19,-2.1722,-2.1544,-2.1221,-2.0997,-2.0862,-2.0736,-2.0564,-2.0428,-2.0428,-2.0337,-2.0337,-2.0292,-2.0292,-2.0292,-2.0292,-2.0337,-2.0292,-2.0292,-2.0292,-2.0292,-2.0292,-2.0292,-2.0292,-2.0292,-2.0292,-2.0292,-2.0292,-2.0292,-2.0292,-2.0292,-2.0292,-2.0292,-3.7404,-3.7302,-3.6307,-3.5296,-3.438,-3.4163,-3.4206,-3.4328,-3.4328,-3.4856,-3.5574,-3.5683,-3.5683,-3.5642,-3.5642,-3.5655,-3.571,-3.571,-3.571,-3.571,-3.571,-3.571,-3.571,-3.571,-3.571,-3.571,-3.571,-3.5669,-3.5507,-3.4799,-3.3911,-3.2993,-3.2052,-3.1137,-3.0261,-3.0216,-3.0216,-3.0216,-3.0216,-3.0216,-3.0216,-3.0216,-3.0216,-3.0216,-3.0216,-3.0216,-3.0216,-3.0216,-3.0216,-3.0044,-2.9206,-2.8413,-2.7568,-2.7357,-2.7213,-2.719,-2.719,-2.719,-2.719,-2.719,-2.719,-2.719,-2.719,-2.719,-2.6974,-2.6487,-2.6102,-2.581,-2.5474,-2.5147,-2.485,-2.4498,-2.4112,-2.3864,-2.3691,-2.344,-2.3178,-2.3003,-2.2872,-2.2828,-2.2882,-2.2662,-2.2344,-2.2122,-2.1945,-2.1767,-2.1588,-2.1454,-2.141,-2.1239,-2.0835,-2.0699,-2.0428,-2.0337,-2.0382,-2.0473,-2.0564,-2.0464,-2.0419,-2.0374,-2.0337,-2.0292,-2.0292,-2.0292,-2.0292,-2.0292,-2.0292,-2.0292,-2.0292,-2.0292,-2.0292,-2.0292,-2.0292,-2.0292,-2.0292,-3.6403,-3.6035,-3.496,-3.4282,-3.3926,-3.3666,-3.365,-3.388,-3.3908,-3.426,-3.4816,-3.491,-3.5019,-3.5262,-3.533,-3.5506,-3.5615,-3.571,-3.571,-3.571,-3.571,-3.571,-3.571,-3.571,-3.571,-3.571,-3.571,-3.5669,-3.5548,-3.4799,-3.3911,-3.3036,-3.2096,-3.1193,-3.0352,-3.0216,-3.0216,-3.0216,-3.0216,-3.0216,-3.0216,-3.0216,-3.0216,-3.0216,-3.0216,-3.0216,-3.0216,-3.0193,-3.0067,-2.9699,-2.8873,-2.8103,-2.7495,-2.7224,-2.719,-2.719,-2.719,-2.719,-2.719,-2.719,-2.719,-2.719,-2.719,-2.719,-2.719,-2.6798,-2.6757,-2.6456,-2.603,-2.5653,-2.5485,-2.5179,-2.4541,-2.4166,-2.4294,-2.4251,-2.3734,-2.3299,-2.3125,-2.3003,-2.3013,-2.296,-2.2696,-2.2696,-2.2476,-2.2167,-2.1989,-2.1865,-2.182,-2.1909,-2.1463,-2.1186,-2.1006,-2.0736,-2.069,-2.0826,-2.097,-2.0826,-2.0645,-2.051,-2.0428,-2.0337,-2.0292,-2.0292,-2.0292,-2.0292,-2.0292,-2.0292,-2.0292,-2.0292,-2.0292,-2.0292,-2.0292,-2.0292,-2.0292,-3.5177,-3.4409,-3.3548,-3.3294,-3.3559,-3.3201,-3.3213,-3.3582,-3.3664,-3.3637,-3.3664,-3.3691,-3.407,-3.4504,-3.4694,-3.5059,-3.529,-3.5331,-3.5493,-3.5574,-3.5629,-3.5696,-3.571,-3.571,-3.571,-3.571,-3.571,-3.571,-3.5629,-3.4853,-3.3966,-3.3091,-3.2183,-3.1193,-3.0566,-3.0216,-3.0216,-3.0216,-3.0216,-3.0216,-3.0216,-3.0216,-3.0216,-3.0216,-3.0216,-3.0216,-3.0216,-3.0147,-2.994,-2.9343,-2.8632,-2.7897,-2.7438,-2.719,-2.719,-2.719,-2.719,-2.719,-2.719,-2.719,-2.719,-2.719,-2.719,-2.719,-2.719,-2.719,-2.7149,-2.6933,-2.6498,-2.6279,-2.6071,-2.5684,-2.5052,-2.4637,-2.485,-2.4935,-2.4337,-2.3767,-2.3604,-2.3396,-2.3353,-2.3299,-2.3256,-2.3256,-2.2916,-2.2608,-2.2397,-2.222,-2.2132,-2.2264,-2.2122,-2.1989,-2.19,-2.1624,-2.1221,-2.123,-2.1374,-2.1239,-2.1051,-2.0789,-2.06,-2.06,-2.0464,-2.0292,-2.0292,-2.0337,-2.0337,-2.0292,-2.0292,-2.0337,-2.0292,-2.0292,-2.0292,-2.0292,-2.0292,-3.4902,-3.3934,-3.3713,-3.3234,-3.2586,-3.2418,-3.2426,-3.2508,-3.2562,-3.2521,-3.2616,-3.263,-3.305,-3.407,-3.4084,-3.4287,-3.4531,-3.4775,-3.4938,-3.4978,-3.5385,-3.5615,-3.571,-3.571,-3.571,-3.571,-3.571,-3.571,-3.5629,-3.4895,-3.4356,-3.3966,-3.2314,-3.1536,-3.127,-3.0836,-3.0216,-3.0216,-3.0216,-3.0216,-3.0216,-3.0216,-3.0216,-3.0216,-3.0216,-3.0216,-3.0216,-3.0216,-2.9917,-2.9355,-2.854,-2.7782,-2.7373,-2.719,-2.719,-2.719,-2.719,-2.719,-2.719,-2.719,-2.719,-2.719,-2.719,-2.719,-2.719,-2.719,-2.719,-2.719,-2.6891,-2.6891,-2.6674,-2.6238,-2.5684,-2.5474,-2.5527,-2.5316,-2.4893,-2.4765,-2.4637,-2.4423,-2.4209,-2.4112,-2.395,-2.3734,-2.3212,-2.3003,-2.2925,-2.275,-2.2662,-2.2696,-2.274,-2.2696,-2.2652,-2.2255,-2.1731,-2.1678,-2.1776,-2.1642,-2.1463,-2.1239,-2.1006,-2.0907,-2.0772,-2.0555,-2.0428,-2.0428,-2.0428,-2.0609,-2.0428,-2.0473,-2.0337,-2.0292,-2.0292,-2.0292,-2.0292]},{"header":{"parameterUnit":"m.s-1","parameterCategory":1,"la1":31.0,"la2":29.5877,"lo1":-88.7671,"lo2":-86.6584,"dy":0.0162,"dx":0.0185,"nx":115,"ny":88,"refTime":"2023-07-02T06:00:00:Z","depth":0,"parameterNumber":3,"parameterNumberName":"V-component_of_WINDS"},"data":[0.0,0.0,0.0,0.0,0.0,0.0,0.0,0.0,0.0,0.0,0.0,0.0,0.0,0.0,0.0,0.0,0.0,0.0,0.0,0.0,0.0,0.0,0.0,0.0,0.0,0.0,0.0,0.0,0.0,0.0,0.0,0.0,0.0,0.0,0.0,0.0,0.0,0.0,0.0,0.0,0.0,0.0,0.0,0.0,0.0,0.0,0.0,0.0,0.0,0.0,0.0,0.0,0.0,0.0,0.0,0.0,0.0,0.0,0.0,0.0,0.0,0.0,0.0,0.0,0.0,0.0,0.0,0.0,0.0,0.0,0.0,0.0,0.0,0.0,0.0,0.0,0.0,0.0,0.0,0.0,0.0,0.0,0.0,0.0,0.0,0.0,0.0,0.0,0.0,0.0,0.0,0.0,0.0,0.0,0.0,0.0,0.0,0.0,0.0,0.0,0.0,0.0,0.0,0.0,0.0,0.0,0.0,0.0,0.0,0.0,0.0,0.0,0.0,0.0,0.0,0.0,0.0,0.0,0.0,0.0,0.0,0.0,0.0,0.0,0.0,0.0,0.0,0.0,0.0,0.0,0.0,0.0,0.0,0.0,0.0,0.0,0.0,0.0,0.0,0.0,0.0,0.0,0.0,0.0,0.0,0.0,0.0,0.0,0.0,0.0,0.0,0.0,0.0,0.0,0.0,0.0,0.0,0.0,0.0,0.0,0.0,0.0,0.0,0.0,0.0,0.0,0.0,0.0,0.0,0.0,0.0,0.0,0.0,0.0,0.0,0.0,0.0,0.0,0.0,0.0,0.0,0.0,0.0,0.0,0.0,0.0,0.0,0.0,0.0,0.0,0.0,0.0,0.0,0.0,0.0,0.0,0.0,0.0,0.0,0.0,0.0,0.0,0.0,0.0,0.0,0.0,0.0,0.0,0.0,0.0,0.0,0.0,0.0,0.0,0.0,0.0,0.0,0.0,0.0,0.0,0.0,0.0,0.0,0.0,0.0,0.0,0.0,0.0,0.0,0.0,0.0,0.0,0.0,0.0,0.0,0.0,0.0,0.0,0.0,0.0,0.0,0.0,0.0,0.0,0.0,0.0,0.0,0.0,0.0,0.0,0.0,0.0,0.0,0.0,0.0,0.0,0.0,0.0,0.0,0.0,0.0,0.0,0.0,0.0,0.0,0.0,0.0,0.0,0.0,0.0,0.0,0.0,0.0,0.0,0.0,0.0,0.0,0.0,0.0,0.0,0.0,0.0,0.0,0.0,0.0,0.0,0.0,0.0,0.0,0.0,0.0,0.0,0.0,0.0,0.0,0.0,0.0,0.0,0.0,0.0,0.0,0.0,0.0,0.0,0.0,0.0,0.0,0.0,0.0,0.0,0.0,0.0,0.0,0.0,0.0,0.0,0.0,0.0,0.0,0.0,0.0,0.0,0.0,0.0,0.0,0.0,0.0,0.0,0.0,0.0,0.0,0.0,0.0,0.0,0.0,0.0,0.0,0.0,0.0,0.0,0.0,0.0,0.0,0.0,0.0,0.0,0.0,0.0,0.0,0.0,0.0,0.0,0.0,0.0,0.0,0.0,0.0,0.0,0.0,0.0,0.0,0.0,0.0,0.0,0.0,0.0,0.0,0.0,0.0,0.0,0.0,0.0,0.0,0.0,0.0,0.0,0.0,0.0,0.0,0.0,0.0,0.0,0.0,0.0,0.0,0.0,0.0,0.0,0.0,0.0,0.0,0.0,0.0,0.0,0.0,0.0,0.0,0.0,0.0,0.0,0.0,0.0,0.0,0.0,0.0,0.0,0.0,0.0,0.0,0.0,0.0,0.0,0.0,0.0,0.0,0.0,0.0,0.0,0.0,0.0,0.0,0.0,0.0,0.0,0.0,0.0,0.0,0.0,0.0,0.0,0.0,0.0,0.0,0.0,0.0,0.0,0.0,0.0,0.0,0.0,0.0,0.0,0.0,0.0,0.0,0.0,0.0,0.0,0.0,0.0,0.0,0.0,0.0,0.0,0.0,0.0,0.0,0.0,0.0,0.0,0.0,0.0,0.0,0.0,0.0,0.0,0.0,0.0,0.0,0.0,0.0,0.0,0.0,0.0,0.0,0.0,0.0,0.0,0.0,0.0,0.0,0.0,0.0,0.0,0.0,0.0,0.0,0.0,0.0,0.0,0.0,0.0,0.0,0.0,0.0,0.0,0.0,0.0,0.0,0.0,0.0,0.0,0.0,0.0,0.0,0.0,0.0,0.0,0.0,0.0,0.0,0.0,0.0,0.0,0.0,0.0,0.0,0.0,0.0,0.0,0.0,0.0,0.0,0.0,0.0,0.0,0.0,0.0,0.0,0.0,0.0,0.0,0.0,0.0,0.0,0.0,0.0,0.0,0.0,0.0,0.0,0.0,0.0,0.0,0.0,0.0,0.0,0.0,0.0,0.0,0.0,0.0,0.0,0.0,0.0,0.0,0.0,0.0,0.0,0.0,0.0,0.0,0.0,0.0,0.0,0.0,0.0,0.0,0.0,0.0,0.0,0.0,0.0,0.0,0.0,0.0,0.0,0.0,0.0,0.0,0.0,0.0,0.0,0.0,0.0,0.0,0.0,0.0,0.0,0.0,0.0,0.0,0.0,0.0,0.0,0.0,0.0,0.0,0.0,0.0,0.0,0.0,0.0,0.0,0.0,0.0,0.0,0.0,0.0,0.0,0.0,0.0,0.0,0.0,0.0,0.0,0.0,0.0,0.0,0.0,0.0,0.0,0.0,0.0,0.0,0.0,0.0,0.0,0.0,0.0,0.0,0.0,0.0,0.0,0.0,0.0,0.0,0.0,0.0,0.0,0.0,0.0,0.0,0.0,0.0,0.0,0.0,0.0,0.0,0.0,0.0,0.0,0.0,0.0,0.0,0.0,0.0,0.0,0.0,0.0,0.0,0.0,0.0,0.0,0.0,0.0,0.0,0.0,0.0,0.0,0.0,0.0,0.0,0.0,0.0,0.0,0.0,0.0,0.0,0.0,0.0,0.0,0.0,0.0,0.0,0.0,0.0,0.0,0.0,0.0,0.0,0.0,0.0,0.0,0.0,0.0,0.0,0.0,0.0,0.0,0.0,0.0,0.0,0.0,0.0,0.0,0.0,0.0,0.0,0.0,0.0,0.0,0.0,0.0,0.0,0.0,0.0,0.0,0.0,0.0,0.0,0.0,0.0,0.0,0.0,0.0,0.0,0.0,0.0,0.0,0.0,0.0,0.0,0.0,0.0,0.0,0.0,0.0,0.0,0.0,0.0,0.0,0.0,0.0,0.0,0.0,0.0,0.0,0.0,0.0,0.0,0.0,0.0,0.0,0.0,0.0,0.0,0.0,0.0,0.0,0.0,0.0,0.0,0.0,0.0,0.0,0.0,0.0,0.0,0.0,0.0,0.0,0.0,0.0,0.0,0.0,0.0,0.0,0.0,0.0,0.0,0.0,0.0,0.0,0.0,0.0,0.0,0.0,0.0,0.0,0.0,0.0,0.0,0.0,0.0,0.0,0.0,0.0,0.0,0.0,0.0,0.0,0.0,0.0,0.0,0.0,0.0,0.0,0.0,0.0,0.0,0.0,0.0,0.0,0.0,0.0,0.0,0.0,0.0,0.0,0.0,0.0,0.0,0.0,0.0,0.0,0.0,0.0,0.0,0.0,0.0,0.0,0.0,0.0,0.0,0.0,0.0,0.0,0.0,0.0,0.0,0.0,0.0,0.0,0.0,0.0,0.0,0.0,0.0,0.0,0.0,0.0,0.0,0.0,0.0,0.0,0.0,0.0,0.0,0.0,0.0,0.0,0.0,0.0,0.0,0.0,0.0,0.0,0.0,0.0,0.0,0.0,0.0,0.0,0.0,0.0,0.0,0.0,0.0,0.0,0.0,0.0,0.0,0.0,0.0,0.0,0.0,0.0,0.0,0.0,0.0,0.0,0.0,0.0,0.0,0.0,0.0,0.0,0.0,0.0,0.0,0.0,0.0,0.0,0.0,0.0,0.0,0.0,0.0,0.0,0.0,0.0,0.0,0.0,0.0,0.0,0.0,0.0,0.0,0.0,0.0,0.0,0.0,0.0,0.0,0.0,0.0,0.0,0.0,0.0,0.0,0.0,0.0,0.0,0.0,0.0,0.0,0.0,0.0,0.0,0.0,0.0,0.0,0.0,0.0,0.0,0.0,0.0,0.0,0.0,0.0,0.0,0.0,0.0,0.0,0.0,0.0,0.0,0.0,0.0,0.0,0.0,0.0,0.0,0.0,0.0,-1.6052,0.0,0.0,0.0,0.0,0.0,0.0,0.0,0.0,0.0,0.0,0.0,0.0,0.0,0.0,0.0,0.0,0.0,0.0,0.0,0.0,0.0,0.0,0.0,0.0,0.0,0.0,0.0,0.0,0.0,0.0,0.0,0.0,0.0,0.0,0.0,0.0,0.0,0.0,0.0,0.0,0.0,0.0,0.0,0.0,0.0,0.0,0.0,0.0,0.0,0.0,0.0,0.0,0.0,0.0,0.0,0.0,0.0,0.0,0.0,0.0,0.0,0.0,0.0,0.0,0.0,0.0,0.0,0.0,0.0,0.0,0.0,0.0,0.0,0.0,0.0,0.0,0.0,0.0,0.0,0.0,0.0,0.0,0.0,0.0,0.0,0.0,0.0,0.0,0.0,0.0,0.0,0.0,0.0,0.0,0.0,0.0,0.0,0.0,0.0,0.0,0.0,0.0,0.0,0.0,0.0,0.0,0.0,0.0,0.0,0.0,-1.5951,-1.6264,-1.642,-1.6583,-1.6806,0.0,0.0,0.0,0.0,0.0,0.0,0.0,0.0,0.0,0.0,0.0,0.0,0.0,0.0,0.0,0.0,0.0,0.0,0.0,0.0,0.0,0.0,0.0,0.0,0.0,0.0,0.0,0.0,0.0,0.0,0.0,0.0,0.0,0.0,0.0,0.0,0.0,0.0,0.0,0.0,0.0,0.0,0.0,0.0,0.0,0.0,0.0,0.0,0.0,0.0,0.0,0.0,0.0,0.0,0.0,0.0,0.0,0.0,0.0,0.0,0.0,0.0,0.0,0.0,0.0,0.0,0.0,0.0,0.0,0.0,0.0,0.0,0.0,0.0,0.0,0.0,0.0,0.0,0.0,0.0,0.0,0.0,0.0,0.0,0.0,0.0,0.0,0.0,0.0,0.0,0.0,0.0,0.0,0.0,0.0,0.0,0.0,0.0,0.0,0.0,0.0,0.0,0.0,0.0,0.0,0.0,0.0,0.0,0.0,0.0,0.0,0.0,-1.7106,-1.7315,-1.7617,0.0,0.0,0.0,0.0,0.0,0.0,0.0,0.0,0.0,0.0,0.0,0.0,0.0,0.0,0.0,0.0,0.0,0.0,0.0,0.0,0.0,0.0,0.0,0.0,0.0,0.0,0.0,0.0,0.0,0.0,0.0,0.0,0.0,0.0,0.0,0.0,0.0,0.0,0.0,0.0,0.0,0.0,0.0,0.0,0.0,0.0,0.0,0.0,0.0,0.0,0.0,0.0,0.0,0.0,0.0,0.0,0.0,0.0,0.0,0.0,0.0,0.0,0.0,0.0,0.0,0.0,0.0,0.0,0.0,0.0,0.0,0.0,0.0,0.0,0.0,0.0,0.0,0.0,0.0,0.0,0.0,0.0,0.0,0.0,0.0,0.0,0.0,0.0,0.0,0.0,0.0,0.0,0.0,0.0,0.0,0.0,0.0,0.0,0.0,0.0,0.0,0.0,0.0,0.0,0.0,0.0,0.0,0.0,0.0,0.0,-1.7002,-1.718,-1.7852,0.0,-1.8298,0.0,0.0,0.0,0.0,0.0,0.0,0.0,0.0,0.0,0.0,0.0,0.0,0.0,0.0,0.0,0.0,0.0,0.0,0.0,0.0,0.0,0.0,0.0,0.0,0.0,0.0,0.0,0.0,0.0,0.0,0.0,0.0,0.0,0.0,0.0,0.0,0.0,0.0,0.0,0.0,0.0,0.0,0.0,0.0,0.0,0.0,0.0,0.0,0.0,0.0,0.0,0.0,0.0,0.0,0.0,0.0,0.0,0.0,0.0,0.0,0.0,0.0,0.0,0.0,0.0,0.0,0.0,0.0,0.0,0.0,0.0,0.0,0.0,0.0,0.0,0.0,0.0,0.0,0.0,0.0,0.0,0.0,0.0,0.0,0.0,0.0,0.0,0.0,0.0,0.0,0.0,0.0,0.0,0.0,0.0,0.0,0.0,0.0,0.0,0.0,0.0,0.0,0.0,0.0,0.0,0.0,0.0,0.0,0.0,0.0,-1.7484,-1.7385,-1.7755,-1.8123,0.0,0.0,0.0,0.0,0.0,0.0,0.0,0.0,0.0,0.0,0.0,0.0,0.0,0.0,0.0,0.0,0.0,0.0,0.0,0.0,0.0,0.0,0.0,0.0,0.0,0.0,0.0,0.0,0.0,0.0,0.0,0.0,0.0,0.0,0.0,0.0,0.0,0.0,0.0,0.0,0.0,0.0,0.0,0.0,0.0,0.0,0.0,0.0,0.0,0.0,0.0,0.0,0.0,0.0,0.0,0.0,0.0,0.0,0.0,0.0,0.0,0.0,0.0,0.0,0.0,0.0,0.0,0.0,0.0,0.0,0.0,0.0,0.0,0.0,0.0,0.0,0.0,0.0,0.0,0.0,0.0,0.0,0.0,0.0,0.0,0.0,0.0,0.0,0.0,0.0,0.0,0.0,0.0,0.0,0.0,0.0,0.0,0.0,0.0,0.0,0.0,0.0,0.0,0.0,0.0,0.0,0.0,0.0,0.0,0.0,-1.7551,-1.7744,-1.7755,-1.7772,-1.803,-1.8476,0.0,0.0,0.0,0.0,0.0,0.0,0.0,0.0,0.0,0.0,0.0,0.0,0.0,0.0,0.0,0.0,0.0,0.0,0.0,0.0,0.0,0.0,0.0,0.0,0.0,0.0,0.0,0.0,0.0,0.0,0.0,0.0,0.0,0.0,0.0,0.0,0.0,0.0,0.0,0.0,0.0,0.0,0.0,0.0,0.0,0.0,0.0,0.0,0.0,0.0,0.0,0.0,0.0,0.0,0.0,0.0,0.0,0.0,0.0,0.0,0.0,0.0,0.0,0.0,0.0,0.0,0.0,0.0,0.0,0.0,0.0,0.0,0.0,0.0,0.0,0.0,0.0,0.0,0.0,0.0,0.0,0.0,0.0,0.0,0.0,0.0,0.0,0.0,0.0,0.0,0.0,0.0,0.0,0.0,0.0,0.0,0.0,0.0,0.0,0.0,0.0,0.0,0.0,0.0,0.0,0.0,0.0,0.0,-1.7211,-1.7278,-1.7656,-1.8313,-1.817,-1.8306,0.0,0.0,0.0,0.0,0.0,0.0,0.0,0.0,0.0,0.0,0.0,0.0,0.0,0.0,0.0,0.0,0.0,0.0,0.0,0.0,0.0,0.0,0.0,0.0,0.0,0.0,0.0,0.0,0.0,0.0,0.0,0.0,0.0,0.0,0.0,0.0,0.0,0.0,0.0,0.0,0.0,0.0,0.0,0.0,0.0,0.0,0.0,0.0,0.0,0.0,0.0,0.0,0.0,0.0,0.0,0.0,0.0,0.0,0.0,0.0,0.0,0.0,0.0,0.0,0.0,0.0,0.0,0.0,0.0,0.0,0.0,0.0,0.0,0.0,0.0,0.0,0.0,0.0,0.0,0.0,0.0,0.0,0.0,0.0,0.0,0.0,0.0,0.0,0.0,0.0,0.0,0.0,0.0,0.0,0.0,0.0,0.0,0.0,0.0,0.0,0.0,0.0,0.0,0.0,0.0,0.0,0.0,0.0,0.0,-1.8056,-1.785,-1.7845,-1.8057,-1.8088,-1.8321,0.0,0.0,0.0,0.0,0.0,0.0,0.0,0.0,0.0,0.0,0.0,0.0,0.0,0.0,0.0,0.0,0.0,0.0,0.0,0.0,0.0,0.0,0.0,0.0,0.0,0.0,0.0,0.0,0.0,0.0,0.0,0.0,0.0,0.0,0.0,0.0,0.0,0.0,0.0,0.0,0.0,0.0,0.0,0.0,0.0,0.0,0.0,0.0,0.0,0.0,0.0,0.0,0.0,0.0,0.0,0.0,0.0,0.0,0.0,0.0,0.0,0.0,0.0,0.0,0.0,0.0,0.0,0.0,0.0,0.0,0.0,0.0,0.0,0.0,0.0,0.0,0.0,0.0,0.0,0.0,0.0,0.0,0.0,0.0,0.0,0.0,0.0,0.0,0.0,0.0,0.0,0.0,0.0,0.0,0.0,0.0,0.0,0.0,0.0,0.0,0.0,0.0,0.0,0.0,0.0,0.0,0.0,0.0,0.0,-1.8909,0.0,-1.8679,-1.8644,-1.8669,-1.8795,0.0,0.0,0.0,0.0,0.0,0.0,0.0,0.0,0.0,0.0,0.0,0.0,0.0,0.0,0.0,0.0,0.0,0.0,0.0,0.0,0.0,0.0,0.0,0.0,0.0,0.0,0.0,0.0,0.0,0.0,0.0,0.0,0.0,0.0,0.0,0.0,0.0,0.0,0.0,0.0,0.0,0.0,0.0,0.0,0.0,0.0,0.0,0.0,0.0,0.0,0.0,0.0,0.0,0.0,0.0,0.0,0.0,0.0,0.0,0.0,0.0,0.0,0.0,0.0,0.0,0.0,0.0,0.0,0.0,0.0,0.0,0.0,0.0,0.0,0.0,0.0,0.0,0.0,0.0,0.0,0.0,0.0,0.0,0.0,0.0,0.0,0.0,0.0,0.0,0.0,0.0,0.0,0.0,0.0,0.0,0.0,0.0,0.0,0.0,0.0,0.0,0.0,0.0,0.0,0.0,0.0,0.0,0.0,-1.9421,-1.9695,-2.003,-2.0123,-2.0181,-1.9889,-1.9808,0.0,0.0,0.0,0.0,0.0,0.0,0.0,0.0,0.0,0.0,0.0,0.0,0.0,0.0,0.0,0.0,0.0,0.0,0.0,0.0,0.0,0.0,0.0,0.0,0.0,0.0,0.0,0.0,0.0,0.0,0.0,0.0,0.0,0.0,0.0,0.0,0.0,0.0,0.0,0.0,0.0,0.0,0.0,0.0,0.0,0.0,0.0,0.0,0.0,0.0,0.0,0.0,0.0,0.0,0.0,0.0,0.0,0.0,0.0,0.0,0.0,0.0,0.0,0.0,0.0,0.0,0.0,0.0,0.0,0.0,0.0,0.0,0.0,0.0,0.0,0.0,0.0,0.0,0.0,0.0,0.0,0.0,0.0,0.0,0.0,0.0,0.0,0.0,0.0,0.0,0.0,0.0,0.0,0.0,0.0,0.0,0.0,0.0,0.0,0.0,0.0,0.0,0.0,0.0,0.0,0.0,0.0,0.0,0.0,-2.0224,-2.061,-2.0665,-2.035,-2.0356,-2.0234,0.0,0.0,0.0,0.0,0.0,0.0,0.0,0.0,0.0,0.0,0.0,0.0,0.0,0.0,0.0,0.0,0.0,0.0,0.0,0.0,0.0,0.0,0.0,0.0,0.0,0.0,0.0,0.0,0.0,0.0,0.0,0.0,0.0,0.0,0.0,0.0,0.0,0.0,0.0,0.0,0.0,0.0,0.0,0.0,0.0,0.0,0.0,0.0,0.0,0.0,0.0,0.0,0.0,0.0,0.0,0.0,0.0,0.0,0.0,0.0,0.0,0.0,0.0,0.0,0.0,0.0,0.0,0.0,0.0,0.0,0.0,0.0,0.0,0.0,0.0,0.0,0.0,0.0,0.0,0.0,0.0,0.0,0.0,0.0,0.0,0.0,0.0,0.0,0.0,0.0,0.0,0.0,0.0,0.0,0.0,0.0,0.0,0.0,0.0,0.0,0.0,0.0,0.0,0.0,0.0,0.0,0.0,0.0,0.0,-2.1611,-2.1834,-2.1861,-2.1578,-2.1456,-2.1139,-2.0621,0.0,0.0,0.0,0.0,0.0,0.0,0.0,0.0,0.0,0.0,0.0,0.0,0.0,0.0,0.0,0.0,0.0,0.0,0.0,0.0,0.0,0.0,0.0,0.0,0.0,0.0,0.0,0.0,0.0,0.0,0.0,0.0,0.0,0.0,0.0,0.0,0.0,0.0,0.0,0.0,0.0,0.0,0.0,0.0,0.0,0.0,0.0,0.0,0.0,0.0,0.0,0.0,0.0,0.0,0.0,0.0,0.0,0.0,0.0,0.0,0.0,0.0,0.0,0.0,0.0,0.0,0.0,0.0,0.0,0.0,0.0,0.0,0.0,0.0,0.0,0.0,0.0,0.0,0.0,0.0,0.0,0.0,0.0,0.0,0.0,0.0,0.0,0.0,0.0,0.0,0.0,0.0,0.0,0.0,0.0,0.0,0.0,0.0,0.0,0.0,0.0,0.0,0.0,0.0,0.0,0.0,0.0,0.0,-2.3638,-2.3607,-2.3582,-2.3545,-2.2997,-2.2408,0.0,0.0,0.0,0.0,0.0,0.0,0.0,0.0,0.0,0.0,0.0,0.0,0.0,0.0,0.0,0.0,0.0,0.0,0.0,0.0,0.0,0.0,0.0,0.0,0.0,0.0,0.0,0.0,0.0,0.0,0.0,0.0,0.0,0.0,0.0,0.0,0.0,0.0,0.0,0.0,0.0,0.0,0.0,0.0,0.0,0.0,0.0,0.0,0.0,0.0,0.0,0.0,0.0,0.0,0.0,0.0,0.0,0.0,0.0,0.0,0.0,0.0,0.0,0.0,0.0,0.0,0.0,0.0,0.0,0.0,0.0,0.0,0.0,0.0,0.0,0.0,0.0,0.0,0.0,0.0,0.0,0.0,0.0,0.0,0.0,0.0,0.0,0.0,0.0,0.0,0.0,0.0,0.0,0.0,0.0,0.0,0.0,0.0,0.0,0.0,0.0,0.0,0.0,0.0,0.0,0.0,0.0,0.0,0.0,-2.5003,-2.504,-2.48,-2.4298,-2.3531,-2.3028,0.0,0.0,0.0,0.0,0.0,0.0,0.0,0.0,0.0,0.0,0.0,0.0,0.0,0.0,0.0,0.0,0.0,0.0,0.0,0.0,0.0,0.0,0.0,0.0,0.0,0.0,0.0,0.0,0.0,0.0,0.0,0.0,0.0,0.0,0.0,0.0,0.0,0.0,0.0,0.0,0.0,0.0,0.0,0.0,0.0,0.0,0.0,0.0,0.0,0.0,0.0,0.0,0.0,0.0,0.0,0.0,0.0,0.0,0.0,0.0,0.0,0.0,0.0,0.0,0.0,0.0,0.0,0.0,0.0,0.0,0.0,0.0,0.0,0.0,0.0,0.0,0.0,0.0,0.0,0.0,0.0,0.0,0.0,0.0,0.0,0.0,0.0,0.0,0.0,0.0,0.0,0.0,0.0,0.0,0.0,0.0,0.0,0.0,0.0,0.0,0.0,0.0,0.0,0.0,0.0,0.0,0.0,0.0,-2.4745,-2.5573,-2.5837,-2.5879,-2.5696,-2.4506,-2.3835,0.0,0.0,0.0,0.0,0.0,0.0,0.0,0.0,0.0,0.0,0.0,0.0,0.0,0.0,0.0,0.0,0.0,0.0,0.0,0.0,0.0,0.0,0.0,0.0,0.0,0.0,0.0,0.0,0.0,0.0,0.0,0.0,0.0,0.0,0.0,0.0,0.0,0.0,0.0,0.0,0.0,0.0,0.0,0.0,0.0,0.0,0.0,0.0,0.0,0.0,0.0,0.0,0.0,0.0,0.0,0.0,0.0,0.0,0.0,0.0,0.0,0.0,0.0,0.0,0.0,0.0,0.0,0.0,0.0,0.0,0.0,0.0,0.0,0.0,0.0,0.0,0.0,0.0,0.0,0.0,0.0,0.0,0.0,0.0,0.0,0.0,0.0,0.0,0.0,0.0,0.0,0.0,0.0,0.0,0.0,0.0,0.0,0.0,0.0,0.0,0.0,0.0,0.0,0.0,0.0,0.0,0.0,0.0,-2.5257,-2.584,-2.6358,-2.685,-2.7191,-2.5701,-2.4684,0.0,0.0,0.0,0.0,0.0,0.0,0.0,0.0,0.0,0.0,0.0,0.0,0.0,0.0,0.0,0.0,0.0,0.0,0.0,0.0,0.0,0.0,0.0,0.0,0.0,0.0,0.0,0.0,0.0,0.0,0.0,0.0,0.0,0.0,0.0,0.0,0.0,0.0,0.0,0.0,0.0,0.0,0.0,0.0,0.0,0.0,0.0,0.0,0.0,0.0,0.0,0.0,0.0,0.0,0.0,0.0,0.0,0.0,0.0,0.0,0.0,0.0,0.0,0.0,0.0,0.0,0.0,0.0,0.0,0.0,0.0,0.0,0.0,0.0,0.0,0.0,0.0,0.0,0.0,0.0,0.0,0.0,0.0,0.0,0.0,0.0,0.0,0.0,0.0,0.0,0.0,0.0,0.0,0.0,0.0,0.0,0.0,0.0,0.0,0.0,0.0,0.0,0.0,0.0,0.0,0.0,0.0,0.0,-2.6524,-2.7466,-2.7611,-2.7729,-2.7829,-2.5968,-2.528,0.0,0.0,0.0,0.0,0.0,0.0,0.0,0.0,0.0,0.0,0.0,0.0,0.0,0.0,0.0,0.0,0.0,0.0,0.0,0.0,0.0,0.0,0.0,0.0,0.0,0.0,0.0,0.0,0.0,0.0,0.0,0.0,0.0,0.0,0.0,0.0,0.0,0.0,0.0,0.0,0.0,0.0,0.0,0.0,0.0,0.0,0.0,0.0,-3.1222,0.0,0.0,0.0,0.0,0.0,0.0,0.0,0.0,0.0,0.0,0.0,0.0,0.0,0.0,0.0,0.0,0.0,0.0,0.0,0.0,0.0,0.0,0.0,0.0,0.0,0.0,0.0,0.0,0.0,0.0,0.0,0.0,0.0,0.0,0.0,0.0,0.0,0.0,0.0,0.0,0.0,0.0,0.0,0.0,0.0,0.0,0.0,0.0,0.0,0.0,0.0,0.0,0.0,0.0,0.0,0.0,0.0,0.0,0.0,-2.769,-2.8859,-2.8885,-2.8853,-2.8756,-2.7417,-2.6638,0.0,0.0,0.0,0.0,0.0,0.0,0.0,0.0,0.0,0.0,0.0,0.0,0.0,0.0,0.0,0.0,0.0,0.0,0.0,0.0,0.0,0.0,0.0,0.0,0.0,0.0,0.0,0.0,0.0,0.0,0.0,0.0,0.0,0.0,0.0,0.0,0.0,0.0,0.0,0.0,0.0,0.0,0.0,0.0,0.0,0.0,0.0,0.0,0.0,0.0,0.0,0.0,0.0,0.0,0.0,0.0,0.0,0.0,0.0,0.0,0.0,0.0,0.0,0.0,0.0,0.0,0.0,0.0,0.0,0.0,0.0,0.0,0.0,0.0,0.0,0.0,0.0,0.0,0.0,0.0,0.0,0.0,0.0,0.0,0.0,0.0,0.0,0.0,0.0,0.0,0.0,0.0,0.0,0.0,0.0,0.0,0.0,0.0,0.0,0.0,0.0,0.0,0.0,0.0,0.0,0.0,0.0,-2.8165,-2.8792,-3.0063,-3.0152,-3.0079,-2.9976,-2.9287,-2.8325,-2.7033,0.0,0.0,0.0,0.0,0.0,0.0,0.0,0.0,0.0,0.0,0.0,0.0,0.0,0.0,0.0,0.0,0.0,0.0,0.0,0.0,0.0,0.0,0.0,0.0,0.0,0.0,0.0,0.0,0.0,0.0,0.0,0.0,0.0,0.0,0.0,0.0,0.0,0.0,-2.9828,-3.0272,0.0,0.0,0.0,0.0,0.0,0.0,0.0,0.0,-3.2034,0.0,0.0,0.0,0.0,0.0,0.0,0.0,0.0,0.0,0.0,0.0,0.0,0.0,0.0,0.0,0.0,0.0,0.0,0.0,0.0,0.0,0.0,0.0,0.0,0.0,0.0,0.0,0.0,0.0,0.0,0.0,0.0,0.0,0.0,0.0,0.0,0.0,0.0,0.0,0.0,0.0,0.0,0.0,0.0,0.0,0.0,0.0,0.0,0.0,0.0,0.0,0.0,0.0,0.0,0.0,0.0,-2.8587,-2.9009,-2.9906,-3.1191,-3.1238,-3.1216,-3.1184,-3.0698,-3.0024,-2.9083,0.0,0.0,0.0,0.0,0.0,0.0,0.0,0.0,0.0,0.0,0.0,0.0,0.0,0.0,0.0,0.0,0.0,0.0,0.0,0.0,0.0,0.0,0.0,0.0,0.0,0.0,0.0,0.0,0.0,0.0,0.0,0.0,0.0,0.0,0.0,0.0,0.0,0.0,0.0,-3.1751,-3.1694,0.0,0.0,0.0,0.0,0.0,0.0,0.0,0.0,-3.2818,0.0,0.0,0.0,0.0,0.0,0.0,0.0,0.0,0.0,0.0,0.0,0.0,0.0,0.0,0.0,0.0,0.0,0.0,0.0,0.0,0.0,0.0,0.0,0.0,0.0,0.0,0.0,0.0,0.0,0.0,0.0,0.0,0.0,0.0,0.0,0.0,0.0,0.0,0.0,0.0,0.0,0.0,0.0,0.0,0.0,0.0,0.0,0.0,0.0,0.0,0.0,0.0,0.0,0.0,0.0,-2.9945,-3.0551,-3.1376,-3.2398,-3.2771,-3.2801,-3.2505,-3.2019,-3.137,0.0,0.0,0.0,0.0,0.0,0.0,0.0,0.0,0.0,0.0,0.0,0.0,0.0,0.0,0.0,0.0,0.0,0.0,0.0,0.0,0.0,0.0,0.0,0.0,0.0,0.0,0.0,0.0,0.0,0.0,0.0,0.0,0.0,0.0,0.0,0.0,0.0,0.0,0.0,0.0,-3.2723,-3.272,-3.3616,0.0,0.0,0.0,0.0,0.0,0.0,-3.3316,-3.3137,0.0,0.0,0.0,0.0,0.0,0.0,0.0,0.0,0.0,0.0,0.0,0.0,0.0,0.0,0.0,0.0,0.0,0.0,0.0,0.0,0.0,0.0,0.0,0.0,0.0,0.0,0.0,0.0,0.0,0.0,0.0,0.0,0.0,0.0,0.0,0.0,0.0,0.0,0.0,0.0,0.0,0.0,0.0,0.0,0.0,0.0,0.0,0.0,0.0,0.0,0.0,0.0,0.0,0.0,0.0,-3.1116,-3.1932,-3.2686,-3.3465,-3.4172,-3.4299,-3.3787,-3.3152,-3.2444,0.0,0.0,0.0,0.0,0.0,0.0,0.0,0.0,0.0,0.0,0.0,0.0,0.0,0.0,0.0,0.0,0.0,0.0,0.0,0.0,0.0,0.0,0.0,0.0,0.0,0.0,0.0,0.0,0.0,0.0,0.0,0.0,0.0,0.0,0.0,0.0,0.0,0.0,0.0,0.0,0.0,-3.3502,-3.44,-3.3803,0.0,0.0,0.0,0.0,-3.3612,-3.3624,0.0,0.0,0.0,0.0,0.0,0.0,0.0,0.0,0.0,0.0,0.0,0.0,0.0,0.0,0.0,0.0,0.0,0.0,0.0,0.0,0.0,0.0,0.0,0.0,0.0,0.0,0.0,0.0,0.0,0.0,0.0,0.0,0.0,0.0,0.0,0.0,0.0,0.0,0.0,0.0,0.0,0.0,0.0,0.0,0.0,0.0,0.0,0.0,0.0,0.0,0.0,0.0,0.0,0.0,0.0,0.0,-3.0962,-3.2354,-3.3437,-3.4182,-3.4909,-3.5225,-3.5168,-3.3864,-3.3104,0.0,0.0,0.0,0.0,0.0,0.0,0.0,0.0,0.0,0.0,0.0,0.0,0.0,0.0,0.0,0.0,0.0,0.0,0.0,0.0,0.0,0.0,0.0,0.0,0.0,0.0,0.0,0.0,0.0,0.0,0.0,0.0,0.0,0.0,0.0,0.0,0.0,0.0,0.0,0.0,0.0,-3.3556,-3.4546,-3.393,-3.3331,0.0,0.0,-3.4492,-3.4383,-3.4957,0.0,0.0,0.0,0.0,0.0,0.0,0.0,0.0,0.0,0.0,0.0,0.0,0.0,0.0,0.0,0.0,0.0,0.0,0.0,0.0,0.0,0.0,0.0,0.0,0.0,0.0,0.0,0.0,0.0,0.0,0.0,0.0,0.0,0.0,0.0,0.0,0.0,0.0,0.0,0.0,0.0,0.0,0.0,0.0,0.0,0.0,0.0,0.0,0.0,0.0,0.0,0.0,0.0,0.0,0.0,-3.1181,-3.194,-3.3182,-3.4185,-3.4912,-3.561,-3.5976,-3.5976,-3.4576,-3.3939,0.0,0.0,0.0,0.0,0.0,0.0,0.0,0.0,0.0,0.0,0.0,0.0,0.0,0.0,0.0,0.0,0.0,0.0,0.0,0.0,0.0,0.0,0.0,0.0,0.0,0.0,0.0,0.0,0.0,0.0,0.0,0.0,0.0,0.0,0.0,0.0,0.0,0.0,0.0,0.0,0.0,0.0,-3.4746,-3.485,0.0,0.0,0.0,-3.5253,-3.4703,0.0,0.0,0.0,0.0,0.0,0.0,0.0,0.0,0.0,0.0,0.0,0.0,0.0,0.0,0.0,0.0,0.0,0.0,0.0,0.0,0.0,0.0,0.0,0.0,0.0,0.0,0.0,0.0,0.0,0.0,0.0,0.0,0.0,0.0,0.0,0.0,0.0,0.0,0.0,0.0,0.0,0.0,0.0,0.0,0.0,0.0,0.0,0.0,0.0,0.0,0.0,0.0,0.0,0.0,0.0,0.0,0.0,-3.2708,-3.41,-3.5077,-3.5642,-3.6337,-3.6693,-3.6646,-3.5501,0.0,0.0,0.0,0.0,0.0,0.0,0.0,0.0,0.0,0.0,0.0,0.0,0.0,0.0,0.0,0.0,0.0,0.0,0.0,0.0,0.0,0.0,0.0,0.0,0.0,0.0,0.0,-3.2264,0.0,0.0,0.0,0.0,0.0,0.0,0.0,0.0,0.0,0.0,0.0,0.0,0.0,0.0,-3.4763,-3.4871,-3.5523,-3.596,0.0,0.0,-3.5766,-3.5093,-3.5618,-3.5846,0.0,0.0,0.0,0.0,0.0,0.0,0.0,0.0,0.0,0.0,0.0,0.0,0.0,0.0,0.0,0.0,0.0,0.0,0.0,0.0,0.0,0.0,0.0,0.0,0.0,0.0,0.0,0.0,0.0,0.0,0.0,0.0,0.0,0.0,0.0,0.0,0.0,0.0,0.0,0.0,0.0,0.0,0.0,0.0,0.0,0.0,0.0,0.0,0.0,0.0,0.0,0.0,0.0,0.0,0.0,-3.2801,-3.5042,-3.6259,-3.6337,-3.7043,-3.7435,-3.7435,-3.6806,-3.5963,0.0,0.0,0.0,0.0,0.0,0.0,0.0,0.0,0.0,0.0,0.0,0.0,0.0,0.0,0.0,0.0,0.0,0.0,0.0,0.0,0.0,0.0,0.0,0.0,0.0,0.0,0.0,0.0,0.0,0.0,0.0,0.0,0.0,0.0,0.0,0.0,0.0,0.0,0.0,0.0,0.0,-3.4853,-3.4817,-3.5486,-3.5959,0.0,0.0,-3.5924,-3.5759,-3.6391,-3.6693,-3.6013,0.0,0.0,0.0,0.0,0.0,0.0,0.0,0.0,0.0,0.0,0.0,0.0,0.0,0.0,0.0,0.0,0.0,0.0,0.0,0.0,0.0,0.0,0.0,0.0,0.0,0.0,0.0,0.0,0.0,0.0,0.0,0.0,0.0,0.0,0.0,0.0,0.0,0.0,0.0,0.0,0.0,0.0,0.0,0.0,0.0,0.0,0.0,0.0,0.0,0.0,0.0,0.0,0.0,-3.324,-3.3713,-3.5462,-3.6631,-3.7074,-3.761,-3.7873,-3.7873,-3.7323,-3.6573,0.0,0.0,0.0,0.0,0.0,0.0,0.0,0.0,0.0,0.0,0.0,0.0,0.0,0.0,0.0,0.0,0.0,0.0,0.0,0.0,0.0,0.0,0.0,0.0,0.0,0.0,0.0,0.0,-3.5326,-3.5608,-3.5592,0.0,0.0,0.0,0.0,0.0,0.0,0.0,0.0,0.0,0.0,-3.5485,-3.5594,-3.621,0.0,0.0,-3.6628,-3.6664,-3.655,-3.6932,-3.7116,-3.6757,-3.6911,0.0,0.0,0.0,0.0,0.0,0.0,0.0,0.0,0.0,0.0,0.0,0.0,0.0,0.0,0.0,0.0,0.0,0.0,0.0,0.0,0.0,0.0,0.0,0.0,0.0,0.0,0.0,0.0,0.0,0.0,0.0,0.0,0.0,0.0,0.0,0.0,0.0,0.0,0.0,0.0,0.0,0.0,0.0,0.0,0.0,0.0,0.0,0.0,0.0,0.0,0.0,0.0,-3.4061,-3.4649,-3.6013,-3.7028,-3.7655,-3.7943,-3.8173,-3.8298,-3.8046,-3.7481,0.0,0.0,0.0,0.0,0.0,0.0,0.0,0.0,0.0,0.0,0.0,0.0,0.0,0.0,0.0,0.0,0.0,0.0,0.0,0.0,0.0,0.0,0.0,0.0,0.0,0.0,0.0,0.0,-3.5916,-3.6343,-3.6702,0.0,0.0,0.0,0.0,0.0,0.0,0.0,0.0,0.0,0.0,-3.6055,-3.6147,-3.6747,-3.7166,-3.7126,-3.7241,-3.7299,-3.7222,-3.7336,-3.7355,-3.7204,0.0,0.0,0.0,0.0,0.0,0.0,0.0,0.0,0.0,0.0,0.0,0.0,0.0,0.0,0.0,0.0,0.0,0.0,0.0,0.0,0.0,0.0,0.0,0.0,0.0,0.0,0.0,0.0,0.0,0.0,0.0,0.0,0.0,0.0,0.0,0.0,0.0,0.0,0.0,0.0,0.0,0.0,0.0,0.0,0.0,0.0,0.0,0.0,0.0,0.0,0.0,0.0,0.0,-3.5232,-3.5506,-3.6759,-3.7655,-3.8087,-3.81,-3.8327,-3.8761,-3.9135,-3.8825,-3.7668,0.0,0.0,0.0,0.0,0.0,0.0,0.0,0.0,0.0,0.0,0.0,0.0,0.0,0.0,0.0,0.0,0.0,0.0,0.0,0.0,0.0,0.0,0.0,0.0,0.0,0.0,-3.3487,-3.4357,-3.5705,0.0,0.0,0.0,0.0,0.0,0.0,0.0,0.0,0.0,0.0,-3.5916,-3.6452,-3.6346,-3.6913,-3.7392,-3.7392,-3.7667,-3.7828,-3.7667,-3.7541,-3.7376,0.0,0.0,0.0,0.0,0.0,0.0,0.0,0.0,0.0,0.0,0.0,0.0,0.0,0.0,0.0,0.0,0.0,0.0,0.0,0.0,0.0,0.0,0.0,0.0,0.0,0.0,0.0,0.0,-2.9127,0.0,0.0,0.0,0.0,0.0,0.0,0.0,0.0,0.0,0.0,0.0,-3.0715,-3.111,0.0,0.0,0.0,0.0,0.0,0.0,0.0,0.0,0.0,0.0,0.0,0.0,-3.5656,-3.5582,-3.7069,-3.7972,-3.81,-3.8673,-3.9044,-3.9179,-3.9618,-3.9335,-3.8197,0.0,0.0,0.0,0.0,0.0,0.0,0.0,0.0,0.0,0.0,0.0,0.0,0.0,0.0,0.0,0.0,0.0,0.0,0.0,0.0,0.0,0.0,0.0,0.0,0.0,-3.4817,0.0,0.0,0.0,0.0,0.0,0.0,0.0,0.0,0.0,0.0,0.0,-3.6161,-3.6075,-3.6613,-3.7001,-3.6963,-3.7194,-3.7334,0.0,0.0,0.0,0.0,0.0,0.0,0.0,0.0,0.0,0.0,0.0,0.0,0.0,0.0,-3.592,-3.492,-3.4744,-3.4744,-3.4708,0.0,0.0,0.0,0.0,0.0,0.0,0.0,0.0,0.0,0.0,0.0,0.0,0.0,0.0,0.0,0.0,-2.9958,0.0,0.0,0.0,0.0,0.0,0.0,0.0,0.0,-3.0677,-3.1246,-3.1895,-3.2287,-3.2742,0.0,-3.2987,-3.3179,0.0,0.0,0.0,0.0,0.0,0.0,0.0,0.0,-3.6193,-3.6117,-3.7414,-3.8242,-3.8551,-3.9098,-3.9487,-3.9644,-3.9944,-3.975,-3.9034,-3.7994,-3.7109,0.0,0.0,0.0,0.0,0.0,0.0,0.0,0.0,0.0,0.0,0.0,0.0,0.0,0.0,0.0,0.0,0.0,0.0,0.0,0.0,0.0,0.0,0.0,-3.5754,0.0,0.0,0.0,0.0,0.0,0.0,0.0,0.0,0.0,-3.6307,-3.6663,-3.6967,-3.695,-3.7292,-3.7522,-3.7448,0.0,0.0,0.0,0.0,0.0,0.0,0.0,-3.8097,-3.7821,-3.7792,-3.7649,-3.7259,-3.7143,-3.705,-3.7087,0.0,0.0,-3.5674,-3.5535,-3.5572,-3.5498,-3.5627,-3.586,-3.628,-3.6119,-3.6085,0.0,0.0,0.0,0.0,0.0,0.0,0.0,0.0,-2.9572,-3.023,0.0,-3.1286,0.0,0.0,0.0,0.0,0.0,0.0,0.0,0.0,-3.1984,-3.2702,-3.3685,-3.3569,-3.4229,-3.5457,-3.4906,-3.5177,-3.6102,-3.4801,0.0,0.0,0.0,0.0,0.0,0.0,-3.686,-3.7115,-3.7796,-3.8551,-3.9339,-3.9435,-3.9644,-4.007,-4.0121,-4.0121,-4.0087,-3.9318,-3.874,-3.8455,-3.7326,0.0,0.0,0.0,0.0,0.0,0.0,0.0,0.0,0.0,0.0,0.0,0.0,0.0,0.0,0.0,0.0,0.0,0.0,0.0,0.0,-3.5832,0.0,0.0,0.0,0.0,0.0,0.0,0.0,0.0,0.0,0.0,-3.7538,-3.7846,-3.8072,-3.7899,0.0,0.0,0.0,0.0,-3.8133,-3.8649,-3.885,-3.9175,-3.9929,-3.9426,-3.8924,-3.8905,0.0,0.0,-3.7048,-3.6989,-3.7007,-3.6989,-3.6989,-3.6968,-3.6814,-3.6823,-3.69,-3.6781,-3.6904,-3.7091,-3.7055,-3.6584,-3.6199,-3.0647,0.0,0.0,0.0,0.0,-2.9917,-2.9904,-3.018,-3.0032,-3.0173,-3.0369,-3.0623,0.0,0.0,0.0,0.0,0.0,0.0,-3.0826,-3.1591,-3.2173,-3.3311,-3.484,-3.5366,-3.6038,-3.6851,-3.6656,-3.6864,-3.7358,-3.6732,-3.6411,-3.6352,0.0,0.0,0.0,0.0,-3.737,-3.7501,-3.849,-3.9152,-3.9391,-3.9722,-3.9969,-4.0113,-4.041,-4.0604,-4.0587,-4.0764,-4.0565,-3.9879,-3.9613,0.0,0.0,0.0,0.0,0.0,0.0,0.0,0.0,0.0,0.0,0.0,0.0,0.0,0.0,0.0,0.0,0.0,0.0,0.0,-3.5802,-3.6572,-3.6978,0.0,0.0,0.0,0.0,0.0,0.0,0.0,0.0,0.0,-3.8581,-3.8954,-3.9256,0.0,0.0,-3.9368,-3.9387,-3.9067,-3.8922,-3.9173,0.0,0.0,0.0,-3.8347,-3.8204,-3.7731,-3.7366,-3.7164,-3.7009,-3.6989,-3.6989,-3.6989,-3.6989,-3.697,-3.6968,-3.7009,-3.705,-3.7048,-3.7069,-3.7127,-3.7186,-3.6991,-3.6868,-3.0891,-3.097,-3.0879,-3.0723,-3.0583,-3.0323,-3.0286,-3.0444,-3.021,-3.0242,-3.0477,-3.0514,-3.056,-3.0637,-3.0695,0.0,0.0,0.0,-3.1083,-3.2126,-3.2891,-3.4076,-3.5654,-3.6467,-3.7045,-3.7389,-3.7628,-3.7918,-3.8356,-3.8214,-3.8138,-3.8116,0.0,0.0,-3.7013,-3.7905,-3.847,-3.8642,-3.9726,-4.0398,-4.0541,-4.0534,-4.0612,-4.0804,-4.0807,-4.0879,-4.1088,-4.1516,-4.1523,-4.0944,-4.0837,-4.0197,0.0,0.0,0.0,0.0,0.0,0.0,0.0,0.0,0.0,0.0,0.0,-3.6118,-3.5879,0.0,0.0,0.0,-3.5809,-3.611,-3.6891,-3.7423,0.0,0.0,0.0,0.0,0.0,0.0,0.0,-3.9095,-3.9097,-3.9247,-3.9858,-4.0208,-4.0118,-3.9409,-3.9571,-3.9787,-3.9769,0.0,-3.9929,-4.0219,-3.9589,-3.919,-3.9552,-3.9589,-3.9174,-3.8021,-3.7476,-3.7147,-3.7009,-3.6989,-3.6989,-3.6989,-3.6989,-3.6989,-3.6989,-3.7029,-3.7068,-3.7068,-3.7089,-3.7127,-3.7203,-3.7203,-3.7241,-3.1386,-3.1379,-3.1126,-3.0801,-3.0432,-3.0356,-3.0267,-3.0075,-3.0088,-3.0419,-3.0911,-3.0773,-3.1099,-3.184,-3.1996,0.0,0.0,-3.1807,-3.2324,-3.3301,-3.4008,-3.5089,-3.6387,-3.7119,-3.7524,-3.7569,-3.8102,-3.8618,-3.9057,-3.9266,-3.9629,-3.9966,-3.8761,-3.7929,-3.7682,-3.8988,-3.987,-4.0183,-4.1172,-4.1909,-4.2323,-4.1757,-4.1605,-4.1937,-4.1328,-4.1186,-4.1525,-4.1842,-4.1945,-4.1803,-4.136,-4.1054,-4.0925,0.0,0.0,0.0,0.0,0.0,0.0,0.0,0.0,0.0,0.0,0.0,0.0,0.0,0.0,0.0,-3.7505,0.0,-3.8505,-3.8288,0.0,0.0,0.0,-3.8061,-3.7882,-3.7899,-3.8276,-3.9175,0.0,0.0,0.0,0.0,-4.0745,-3.8858,-3.9331,-3.981,-3.962,-4.0412,-4.1085,-4.1542,-4.1503,-4.1701,-4.1862,-4.1631,-4.0727,-3.9247,-3.822,-3.7562,-3.7312,-3.7148,-3.7112,-3.7148,-3.7042,-3.6989,-3.6989,-3.7007,-3.6989,-3.6989,-3.705,-3.7108,-3.7147,-3.7222,-3.7334,-3.1386,-3.1414,-3.1312,-3.1023,-3.0527,-3.011,-2.9895,-2.9908,-3.0049,-3.019,-3.0343,-3.0584,-3.0874,-3.1235,-3.1823,-3.2322,-3.2769,-3.3316,-3.4253,-3.5497,-3.5705,-3.6537,-3.7842,-3.8098,-3.8437,-3.8951,-3.9449,-3.9739,-3.9774,-4.0084,-4.0229,-4.0228,-4.0097,-3.9771,-3.9291,-4.0151,-4.068,-4.0929,-4.1505,-4.2146,-4.2885,-4.3142,-4.3022,-4.2538,-4.2683,-4.253,-4.2071,-4.2534,-4.2804,-4.2767,-4.2794,-4.2395,-4.1462,-4.0642,0.0,0.0,0.0,0.0,0.0,0.0,0.0,0.0,0.0,-3.6779,-3.6471,0.0,-3.6939,0.0,-3.7596,-3.802,-3.82,-3.8149,0.0,0.0,-3.7699,-3.7914,-3.8491,-3.8797,-3.9445,-4.0705,-4.1016,-4.127,-4.1669,-4.1705,-4.1414,-4.0593,-4.1411,-4.2141,-4.2178,-4.1975,-4.1949,-4.2077,-4.1307,-4.0653,-4.0944,-4.0442,-4.0053,-3.9725,-3.9278,-3.8944,-3.8763,-3.8234,-3.783,-3.7795,-3.7356,-3.7042,-3.7042,-3.6989,-3.7025,-3.7007,-3.7068,-3.7147,-3.7299,-3.7354,-3.7411,-3.2139,-3.2114,-3.1863,-3.1587,-3.1286,-3.0733,-3.0507,-3.0534,-3.0613,-3.0771,-3.102,-3.141,-3.1667,-3.1783,-3.2163,-3.2777,-3.3438,-3.3886,-3.4848,-3.6192,-3.657,-3.7316,-3.8324,-3.8662,-3.9178,-3.9773,-4.0305,-4.0652,-4.0841,-4.1214,-4.1357,-4.1253,-4.1871,-4.1884,-4.1389,-4.1527,-4.1655,-4.1791,-4.2477,-4.3206,-4.4044,-4.4059,-4.3768,-4.3225,-4.3121,-4.2725,-4.1924,-4.2274,-4.2514,-4.2554,-4.2671,-4.2455,-4.1792,-4.0976,-4.0077,0.0,0.0,0.0,0.0,0.0,0.0,0.0,0.0,0.0,0.0,0.0,-3.717,0.0,-3.7721,0.0,-3.8312,-3.833,-3.8438,-3.8744,-3.8798,-3.9067,-3.9732,-3.9978,-4.0393,-4.1161,-4.1394,-4.1626,-4.1973,-4.2028,-4.2062,-4.2141,-4.2755,-4.3069,-4.2813,-4.2805,-4.2872,-4.2732,-4.2278,-4.1828,-4.1722,-4.1032,-4.0474,-4.0323,-3.9871,-3.945,-3.9325,-3.8933,-3.8617,-3.8599,-3.8304,-3.8023,-3.8023,-3.8006,-3.8043,-3.8104,-3.8146,-3.7941,-3.7384,-3.7317,-3.7481,-3.3124,-3.3074,-3.2528,-3.2328,-3.229,-3.1813,-3.1524,-3.1386,-3.1386,-3.1655,-3.2085,-3.246,-3.2659,-3.2659,-3.2804,-3.3249,-3.3998,-3.4213,-3.5065,-3.6387,-3.7184,-3.7835,-3.8375,-3.9068,-3.9646,-4.0095,-4.0703,-4.1243,-4.1705,-4.2285,-4.2539,-4.2476,-4.3413,-4.368,-4.329,-4.2831,-4.2651,-4.2667,-4.3688,-4.4569,-4.525,-4.4691,-4.4225,-4.3763,-4.3172,-4.2422,-4.1556,-4.1609,-4.1753,-4.1878,-4.186,-4.1948,-4.2041,-4.0897,-4.0272,0.0,-3.9314,0.0,0.0,0.0,0.0,0.0,0.0,0.0,0.0,-3.772,-3.7667,-3.7721,-3.8058,-3.8398,-3.8742,-3.8848,-3.9337,-4.0347,-4.0491,-4.065,-4.1044,-4.1187,-4.1242,-4.1242,-4.1334,-4.1682,-4.2361,-4.2451,-4.2745,-4.3276,-4.3406,-4.3242,-4.2708,-4.3194,-4.3545,-4.3286,-4.358,-4.3343,-4.2941,-4.2286,-4.159,-4.1027,-4.0406,-3.9746,-3.9712,-3.955,-3.9442,-3.9442,-3.9305,-3.9231,-3.9322,-3.9269,-3.9332,-3.9362,-3.9388,-3.904,-3.7962,-3.7702,-3.7885,-3.3124,-3.3068,-3.2955,-3.2905,-3.2905,-3.2805,-3.2227,-3.1386,-3.1386,-3.1562,-3.1777,-3.2085,-3.2313,-3.254,-3.3262,-3.3956,-3.4714,-3.6,-3.7043,-3.7826,-3.862,-3.9058,-3.9192,-3.9337,-3.9445,-3.9625,-4.0547,-4.1026,-4.116,-4.211,-4.2602,-4.2555,-4.3035,-4.3218,0.0,0.0,0.0,0.0,-4.4384,-4.4974,-4.5161,-4.5424,-4.4953,-4.368,-4.3606,0.0,-4.1609,-4.1543,-4.1587,-4.1713,-4.1731,0.0,0.0,0.0,0.0,0.0,0.0,0.0,0.0,0.0,0.0,0.0,-3.9912,-3.9358,-3.9417,-3.8845,-3.8599,-3.8921,-3.9026,-3.9235,-3.9635,-4.0256,-4.0728,-4.0924,-4.0978,-4.1011,-4.1113,-4.1664,-4.2084,-4.2084,-4.2616,-4.3075,-4.3185,-4.3276,-4.3296,-4.3478,-4.3479,-4.3424,-4.3277,-4.3439,-4.3513,-4.3444,-4.3374,-4.2995,-4.2396,-4.2192,-4.191,-4.1519,-4.1354,-4.1152,-4.106,-4.0604,-4.0274,-4.0253,-3.9743,-3.9357,-3.9357,-3.9385,-3.9556,-3.9509,-3.9669,-3.9645,-3.9341,-3.9307,-3.94,-3.3124,0.0,-3.3124,-3.3124,0.0,-3.3124,-3.2754,-3.2256,-3.2227,-3.2424,-3.2714,-3.2975,-3.3181,-3.3413,-3.3872,-3.4725,-3.585,-3.6698,-3.769,-3.8811,-3.9228,-3.9388,-3.9388,-3.9388,-3.9681,-4.0216,-4.0737,-4.1276,-4.1802,-4.2317,-4.2602,-4.2586,-4.3383,-4.3735,-4.3764,-4.4384,-4.4429,-4.3877,-4.4485,-4.5054,-4.5588,-4.585,-4.5561,-4.4733,0.0,0.0,0.0,0.0,0.0,0.0,0.0,0.0,0.0,0.0,0.0,-4.1848,-4.1872,-4.1922,-4.1978,-4.1925,-4.202,-4.2266,-4.1923,-4.127,-4.0292,-3.9986,-3.9963,-4.0171,-4.0186,-4.0273,-4.049,-4.0857,-4.126,-4.1625,-4.1717,-4.1827,-4.2249,-4.2635,-4.2873,-4.291,-4.3258,-4.3479,-4.3479,-4.3479,-4.3479,-4.3479,-4.3479,-4.3497,-4.3496,-4.3601,-4.3667,-4.3697,-4.3303,-4.2884,-4.2537,-4.234,-4.213,-4.174,-4.1648,-4.167,-4.1604,-4.1288,-4.1064,-4.1007,-4.0709,-4.0424,-4.0446,-4.057,-4.0616,-4.0637,-4.0781,-4.0905,-4.0872,-4.0342,-3.9955,-3.3124,-3.3124,-3.3124,-3.3124,-3.3124,-3.3124,-3.3124,-3.3124,0.0,0.0,0.0,-3.3894,-3.4118,-3.4272,-3.4343,-3.5251,-3.6646,-3.6827,-3.7715,-3.9192,-3.9337,-3.9388,-3.9388,-3.9388,-3.9844,-4.0703,-4.0907,-4.1458,-4.2285,-4.2492,-4.2602,-4.2711,-4.3748,-4.4406,-4.4601,-4.5354,-4.5239,-4.431,-4.4491,-4.5072,-4.5968,-4.6,-4.5875,-4.5637,-4.5646,-4.5133,-4.399,-4.3379,-4.3063,-4.3001,-4.2412,-4.209,-4.2101,-4.2021,-4.2059,-4.2226,-4.2165,-4.2364,-4.2957,-4.292,-4.3014,-4.348,-4.3479,-4.279,-4.1124,-4.1202,-4.1315,-4.1332,-4.1315,-4.1315,-4.1315,-4.1479,-4.1791,-4.2451,-4.2506,-4.2782,-4.3369,-4.3479,-4.346,-4.3479,-4.3478,-4.3479,-4.3479,-4.3479,-4.3479,-4.3515,-4.3663,-4.3773,-4.3899,-4.4003,-4.407,-4.4199,-4.3925,-4.3448,-4.311,-4.2807,-4.2433,-4.1961,-4.1816,-4.1714,-4.1626,-4.1604,-4.1604,-4.1534,-4.1587,-4.1534,-4.1587,-4.1609,-4.1819,-4.1823,-4.1927,-4.2051,-4.1994,-4.1126,-4.0524,-3.3124,-3.3124,-3.3124,-3.3124,-3.3124,-3.3124,-3.3124,-3.3124,-3.3124,-3.3124,-3.3185,-3.3598,-3.3755,-3.3797,-3.4217,-3.495,-3.5896,-3.6568,-3.7424,0.0,-3.9068,-3.9388,-3.9388,-3.9388,-3.9481,-3.9681,-4.0547,-4.1075,-4.1309,-4.2174,-4.2602,-4.2711,-4.3575,-4.4468,-4.5213,-4.5398,-4.5239,-4.4896,-4.5015,-4.5249,-4.5571,-4.5588,-4.5384,-4.4968,-4.5088,-4.4794,-4.4105,-4.389,-4.3543,-4.3107,-4.282,-4.2647,-4.2593,-4.2578,-4.2789,-4.3232,-4.3267,-4.3303,-4.3392,-4.3392,-4.341,-4.3497,-4.3479,-4.3352,-4.3097,-4.2472,-4.2121,-4.2121,-4.2139,-4.2139,-4.2176,-4.2708,-4.3112,-4.3259,-4.3313,-4.3404,-4.3479,-4.3479,-4.3479,-4.3479,-4.3479,-4.3479,-4.3479,-4.3479,-4.3479,-4.3606,-4.392,-4.469,-4.5057,-4.4983,-4.4802,-4.5093,-4.5124,-4.4811,-4.4145,-4.3522,-4.3026,-4.269,-4.2118,-4.1824,-4.1797,-4.1797,-4.1797,-4.1657,-4.1727,-4.1674,-4.1657,-4.1714,-4.1819,-4.1905,-4.2009,-4.21,-4.2225,-4.1881,-4.1789,-3.3124,-3.3124,-3.3124,-3.3124,-3.3124,-3.3124,-3.3124,-3.3124,-3.3124,-3.3154,-3.3283,-3.3543,-3.3755,-3.3937,-3.423,-3.5101,-3.636,-3.6724,-3.7601,-3.8811,-3.9228,-3.9388,-3.9388,-3.9388,-3.9553,-3.9879,-4.06,-4.1176,-4.1492,-4.2206,-4.2602,-4.268,-4.3693,-4.4691,-4.5555,-4.5778,-4.5701,-4.5441,-4.5203,-4.5186,-4.5381,-4.5554,-4.5785,-4.6017,-4.6173,-4.623,-4.6176,-4.5703,-4.5333,-4.5119,-4.4194,-4.3705,-4.3779,-4.3342,-4.3196,-4.3462,-4.3479,-4.3479,-4.3479,-4.3479,-4.3479,-4.3479,-4.3479,-4.3479,-4.3479,-4.3167,-4.2947,-4.2947,-4.2947,-4.2947,-4.2947,-4.3277,-4.3479,-4.3479,-4.3479,-4.3479,-4.3479,-4.3479,-4.3479,-4.3479,-4.3479,-4.3479,-4.3479,-4.3479,-4.3479,-4.3533,-4.3883,-4.4378,-4.5113,-4.4803,-4.4673,-4.521,-4.5111,-4.476,-4.4436,-4.397,-4.356,-4.3418,-4.3096,-4.2868,-4.2833,-4.2833,-4.2816,-4.2816,-4.2535,-4.2289,-4.2219,-4.1974,-4.189,-4.1862,-4.197,-4.2076,-4.2181,-4.2187,-4.2225,-3.3237,-3.3124,-3.3124,-3.3124,-3.3124,-3.3124,-3.3124,-3.3124,-3.3124,-3.3197,-3.3356,-3.3598,-3.381,-3.4034,-3.4272,-3.5332,-3.6724,-3.6894,-3.7791,-3.9301,-3.9388,-3.9388,-3.9388,-3.9388,-3.961,-4.0076,-4.0668,-4.1194,-4.1656,-4.2285,-4.268,-4.2865,-4.3718,-4.4629,-4.558,-4.576,-4.5829,-4.5684,-4.5327,-4.5239,-4.552,-4.5692,-4.6168,-4.6799,-4.7022,-4.7258,-4.7496,-4.6958,-4.6626,-4.6553,-4.543,-4.4727,-4.4619,-4.4034,-4.363,-4.3516,-4.3497,-4.348,-4.3479,-4.3479,-4.3479,-4.3479,-4.3479,-4.3479,-4.3479,-4.3479,-4.3479,-4.3479,-4.3442,-4.3461,-4.3442,-4.3496,-4.3479,-4.3479,-4.3479,-4.3479,-4.3479,-4.3479,-4.3479,-4.3479,-4.3479,-4.3479,-4.3479,-4.3479,-4.3571,-4.3773,-4.3773,-4.4067,-4.4656,-4.458,-4.4642,-4.4897,-4.4757,-4.4432,-4.4303,-4.3883,-4.3611,-4.3658,-4.3377,-4.3114,-4.3131,-4.3272,-4.3325,-4.3096,-4.2816,-4.2447,-4.2429,-4.211,-4.1828,-4.1819,-4.1884,-4.197,-4.21,-4.2207,-4.2267,-3.3533,-3.3162,-3.3136,-3.3124,-3.3124,-3.3124,-3.3124,-3.3124,-3.3124,-3.3124,-3.3167,-3.3526,-3.3725,-3.3797,-3.4189,-3.5291,-3.6855,-3.6894,-3.7791,-3.9265,-3.9388,-3.9388,-3.9388,-3.9388,-3.9409,-3.961,-4.0512,-4.1026,-4.1176,-4.2126,-4.2881,-4.335,-4.341,-4.3968,-4.4865,-4.491,-4.5062,-4.5441,-4.5372,-4.5606,-4.6087,-4.5912,-4.5903,-4.6172,-4.643,-4.6525,-4.6525,-4.6478,-4.6354,-4.6,-4.5917,-4.5407,-4.4562,-4.4455,-4.418,-4.3553,-4.3429,-4.3429,-4.3497,-4.3479,-4.3479,-4.3479,-4.3479,-4.3479,-4.3479,-4.3479,-4.3479,-4.3479,-4.3479,-4.3479,-4.3479,-4.3479,-4.3479,-4.3479,-4.3479,-4.3479,-4.3479,-4.3479,-4.3479,-4.3479,-4.3479,-4.3479,-4.3479,-4.3479,-4.3754,-4.425,-4.4234,-4.44,-4.4891,-4.4688,-4.4438,-4.4511,-4.4458,-4.4285,-4.396,-4.3371,-4.3184,-4.3009,-4.2359,-4.2254,-4.2342,-4.2219,-4.1885,-4.2693,-4.2061,-4.199,-4.1903,-4.1644,-4.1706,-4.1758,-4.1801,-4.1866,-4.204,-4.2187,-4.2267,-3.3771,-3.3576,-3.3262,-3.3124,-3.3124,-3.3124,-3.3124,-3.3124,-3.3124,-3.3124,-3.3167,-3.3398,-3.3526,-3.3556,-3.3852,-3.4992,-3.6685,-3.6724,-3.7677,-3.9301,-3.9388,-3.9388,-3.9388,-3.9388,-3.9388,-3.9496,-4.0478,-4.1008,-4.1176,-4.2077,-4.2912,-4.3423,-4.3423,-4.3818,-4.4574,-4.4903,-4.5135,-4.5337,-4.5555,-4.576,-4.5912,-4.5709,-4.5641,-4.5767,-4.6126,-4.6418,-4.6543,-4.6747,-4.6702,-4.6386,-4.6113,-4.5473,-4.452,-4.4191,-4.3713,-4.3047,-4.3087,-4.3178,-4.3214,-4.3392,-4.3479,-4.3479,-4.3479,-4.3479,-4.3479,-4.3479,-4.3479,-4.3479,-4.3479,-4.3479,-4.3479,-4.3479,-4.3479,-4.3479,-4.3479,-4.3479,-4.3479,-4.3479,-4.3479,-4.3479,-4.3479,-4.3479,-4.3479,-4.3479,-4.3626,-4.392,-4.3851,-4.387,-4.3994,-4.3586,-4.3254,-4.3084,-4.2912,-4.3195,-4.3617,-4.3693,-4.343,-4.3377,-4.3202,-4.2956,-4.2816,-4.2938,-4.2973,-4.2886,-4.2447,-4.2219,-4.2394,-4.185,-4.1626,-4.1692,-4.1758,-4.1823,-4.1909,-4.2061,-4.2145,-3.4035,-3.3834,-3.3307,-3.3124,-3.3124,-3.3124,-3.3124,-3.3124,-3.3124,-3.3124,-3.3197,-3.3313,-3.3598,-3.3827,-3.3966,-3.5033,-3.6699,-3.6855,-3.7767,-3.9265,-3.9388,-3.9388,-3.9388,-3.9388,-3.9388,-3.9553,-4.0478,-4.1176,-4.1491,-4.2158,-4.282,-4.3216,-4.3229,-4.3482,-4.4066,-4.4667,-4.5037,-4.5108,-4.5615,-4.5837,-4.5727,-4.558,-4.5459,-4.5416,-4.5768,-4.607,-4.6231,-4.6472,-4.6584,-4.643,-4.5914,-4.5223,-4.4418,-4.38,-4.3197,-4.2659,-4.2749,-4.2901,-4.2901,-4.3178,-4.3357,-4.3356,-4.3427,-4.3479,-4.3479,-4.3479,-4.3479,-4.3479,-4.3479,-4.3479,-4.3479,-4.3479,-4.3479,-4.3479,-4.3479,-4.3479,-4.3479,-4.3479,-4.3479,-4.3479,-4.3479,-4.3444,-4.3392,-4.3339,-4.3358,-4.3269,-4.3068,-4.2826,-4.2731,-4.2427,-4.2136,-4.1977,-4.1776,-4.2083,-4.3044,-4.3096,-4.3254,-4.3254,-4.3044,-4.2991,-4.3272,-4.3237,-4.3219,-4.2342,-4.25,-4.2464,-4.2166,-4.178,-4.1604,-4.1626,-4.1692,-4.1797,-4.1841,-4.1952,-4.2037,-3.4387,-3.3859,-3.3307,-3.3136,-3.3124,-3.3124,-3.3124,-3.3124,-3.3124,-3.3197,-3.3356,-3.3441,-3.3995,-3.4869,-3.4772,-3.5749,-3.7362,-3.7529,-3.8188,-3.9352,-3.9388,-3.9388,-3.9388,-3.9388,-3.9388,-3.9481,-4.0443,-4.1458,-4.2349,-4.2571,-4.2602,-4.2665,-4.2586,-4.2711,-4.3232,-4.3922,-4.435,-4.468,-4.558,-4.593,-4.5546,-4.5684,-4.5555,-4.5177,-4.531,-4.5389,-4.5203,-4.5363,-4.5589,-4.5819,-4.5243,-4.4624,-4.4019,-4.347,-4.2902,-4.2463,-4.2552,-4.2611,-4.2631,-4.2863,-4.3032,-4.3069,-4.3286,-4.3462,-4.3444,-4.3444,-4.348,-4.3479,-4.3479,-4.3479,-4.3479,-4.3479,-4.3479,-4.3479,-4.3479,-4.3479,-4.3479,-4.3479,-4.3479,-4.3479,-4.3462,-4.3339,-4.3087,-4.3014,-4.292,-4.2785,-4.2649,-4.2514,-4.2272,-4.2145,-4.1956,-4.174,-4.1626,-4.1639,-4.1745,-4.2061,-4.1973,-4.2026,-4.2201,-4.1903,-4.1762,-4.171,-4.178,-4.1832,-4.189,-4.1872,-4.171,-4.1639,-4.1622,-4.1648,-4.1692,-4.1776,-4.1736,-4.1902,-4.1966,-3.468,-3.3884,-3.3696,-3.3407,-3.3136,-3.3124,-3.3124,-3.3124,-3.3124,-3.3167,-3.3313,-3.3911,-3.4664,-3.5413,-3.6029,-3.6816,-3.7691,-3.7729,-3.8323,-3.9316,-3.9388,-3.9388,-3.9388,-3.9388,-3.9388,-3.9517,-4.0146,-4.1042,-4.2045,-4.2412,-4.2602,-4.2602,-4.2555,-4.2634,-4.2867,-4.3439,-4.3963,-4.4462,-4.5241,-4.5692,-4.5819,-4.6005,-4.5879,-4.5529,-4.5424,-4.5363,-4.5257,-4.5363,-4.5217,-4.4811,-4.4744,-4.4122,-4.2838,-4.2218,-4.1855,-4.1719,-4.2044,-4.2269,-4.231,-4.2571,-4.2747,-4.2747,-4.2843,-4.3031,-4.3142,-4.3178,-4.3268,-4.3427,-4.3479,-4.3479,-4.3479,-4.3479,-4.3479,-4.3479,-4.3479,-4.3479,-4.3479,-4.3479,-4.3479,-4.3462,-4.3321,-4.3069,-4.2825,-4.2729,-4.2709,-4.2609,-4.243,-4.2228,-4.2103,-4.1917,-4.174,-4.1631,-4.1604,-4.1604,-4.1604,-4.1622,-4.1622,-4.1622,-4.1657,-4.1692,-4.1622,-4.1622,-4.171,-4.1727,-4.1666,-4.1692,-4.1706,-4.1684,-4.167,-4.1732,-4.1797,-4.1754,-4.167,-4.1819,-4.1862,-3.4956,-3.4223,-3.4161,-3.3847,-3.337,-3.3388,-3.3244,-3.3149,-3.3124,-3.3111,-3.3398,-3.4317,-3.5183,-3.6015,-3.7049,-3.7843,-3.8271,-3.8182,-3.8598,-3.9352,-3.9388,-3.9388,-3.9388,-3.9388,-3.9388,-3.9517,-4.0146,-4.094,-4.177,-4.2285,-4.2539,-4.2539,-4.2539,-4.241,-4.2341,-4.284,-4.3286,-4.3457,-4.398,-4.4483,-4.481,-4.4987,-4.4987,-4.4818,-4.4725,-4.4811,-4.5036,-4.5036,-4.4613,-4.3872,-4.3715,-4.3032,-4.167,-4.1265,-4.114,-4.1255,-4.1574,-4.187,-4.1956,-4.2249,-4.245,-4.245,-4.2532,-4.2689,-4.2844,-4.2863,-4.2976,-4.316,-4.3214,-4.3214,-4.3214,-4.3196,-4.3286,-4.341,-4.341,-4.3374,-4.3497,-4.3479,-4.3427,-4.3286,-4.305,-4.2768,-4.2512,-4.2452,-4.2371,-4.229,-4.2079,-4.1956,-4.1892,-4.178,-4.1604,-4.1604,-4.1604,-4.1604,-4.1604,-4.1604,-4.1604,-4.1604,-4.1604,-4.1604,-4.1604,-4.1604,-4.1604,-4.1626,-4.167,-4.1714,-4.1736,-4.1714,-4.1776,-4.1841,-4.1841,-4.1837,-4.1776,-4.1736,-4.178,-3.5194,-3.4763,-3.468,-3.4412,-3.3947,-3.3909,-3.3596,-3.325,-3.3187,-3.326,-3.3454,-3.4553,-3.5615,-3.6607,-3.7706,-3.8612,-3.9104,-3.8907,-3.8995,-3.9388,-3.9388,-3.9388,-3.9388,-3.9388,-3.9388,-3.9445,-4.0443,-4.1194,-4.1738,-4.2126,-4.2349,-4.2397,-4.2445,-4.2139,-4.1383,-4.2146,-4.2063,-4.1692,-4.2198,-4.2344,-4.2038,-4.2731,-4.3048,-4.2971,-4.3175,-4.3586,-4.4207,-4.4259,-4.3829,-4.2809,-4.215,-4.1338,-4.0805,-4.0793,-4.1012,-4.114,-4.1214,-4.1368,-4.1609,-4.1931,-4.2103,-4.2124,-4.2389,-4.2492,-4.2552,-4.2571,-4.2611,-4.2707,-4.2707,-4.2668,-4.2688,-4.265,-4.2862,-4.3339,-4.3214,-4.3196,-4.341,-4.3479,-4.3357,-4.3032,-4.2729,-4.2452,-4.2207,-4.2103,-4.1998,-4.1801,-4.1692,-4.1653,-4.1675,-4.1626,-4.1604,-4.1604,-4.1604,-4.1604,-4.1604,-4.1604,-4.1604,-4.1604,-4.1604,-4.1604,-4.1604,-4.1604,-4.1604,-4.1626,-4.1714,-4.178,-4.197,-4.1948,-4.1905,-4.1966,-4.1945,-4.1923,-4.1862,-4.1819,-4.1736,-3.5793,-3.527,-3.5245,-3.4931,-3.4455,-3.4462,-3.4148,-3.3671,-3.3646,-3.3476,-3.3564,-3.5047,-3.6013,-3.6696,-3.8144,-3.9156,-3.9388,-3.9265,-3.9265,-3.9388,-3.9388,-3.9388,-3.9388,-3.9388,-3.9388,-3.9517,-4.0111,-4.0737,-4.1243,-4.1671,-4.2045,-4.2445,-4.2445,-4.23,-4.1979,-4.1871,-4.1645,-4.1714,-4.1579,-4.1677,-4.2048,-4.2621,-4.2926,-4.2994,-4.3252,-4.3232,-4.2792,-4.3199,-4.3045,-4.2223,-4.1999,-4.1469,-4.0754,-4.0752,-4.0918,-4.0995,-4.1318,-4.1498,-4.1582,-4.1675,-4.178,-4.1762,-4.187,-4.2019,-4.2207,-4.2249,-4.2351,-4.255,-4.2609,-4.2609,-4.257,-4.2371,-4.2534,-4.3087,-4.3069,-4.3087,-4.3357,-4.3286,-4.2939,-4.2494,-4.231,-4.2103,-4.1849,-4.1762,-4.1719,-4.1631,-4.1604,-4.1604,-4.1604,-4.1604,-4.1604,-4.1604,-4.1604,-4.1604,-4.1604,-4.1604,-4.1604,-4.1604,-4.1604,-4.1604,-4.1604,-4.1604,-4.1604,-4.167,-4.1758,-4.1888,-4.2076,-4.2136,-4.2094,-4.2051,-4.2012,-4.1991,-4.1945,-4.1884,-4.1845,-3.6169,-3.5855,-3.5855,-3.5483,-3.5006,-3.4981,-3.4713,-3.4293,-3.4508,-3.4279,-3.4238,-3.5818,-3.6631,-3.6933,-3.8435,-3.9213,-3.9388,-3.9388,-3.9388,-3.9388,-3.9388,-3.9388,-3.9388,-3.9388,-3.9388,-3.9481,-3.995,-4.0478,-4.1008,-4.1325,-4.1785,-4.2318,-4.2302,-4.2029,-4.1853,-4.1499,-4.125,-4.0921,-4.0534,-4.0451,-4.0625,-4.1057,-4.1347,-4.1477,-4.1959,-4.1901,-4.1368,-4.1977,-4.2085,-4.1584,-4.1522,-4.1216,-4.0593,-4.0752,-4.0894,-4.0965,-4.1244,-4.1493,-4.1582,-4.1604,-4.1604,-4.1604,-4.1604,-4.1675,-4.187,-4.1913,-4.204,-4.2187,-4.2207,-4.2228,-4.2187,-4.2061,-4.2148,-4.2613,-4.2634,-4.2807,-4.3032,-4.2882,-4.2573,-4.219,-4.1998,-4.1805,-4.1653,-4.1604,-4.1604,-4.1604,-4.1604,-4.1604,-4.1604,-4.1604,-4.1604,-4.1604,-4.1604,-4.1604,-4.1604,-4.1604,-4.1604,-4.1604,-4.1604,-4.1604,-4.1604,-4.1604,-4.1604,-4.1776,-4.1884,-4.1995,-4.216,-4.2181,-4.216,-4.2139,-4.2118,-4.2097,-4.2076,-4.2034,-4.1991,-3.6405,-3.6417,-3.6405,-3.6044,-3.5571,-3.5545,-3.5232,-3.4904,-3.5468,-3.5412,-3.5348,-3.6606,-3.734,-3.7451,-3.8366,-3.9031,-3.9316,-3.9388,-3.9388,-3.9388,-3.9388,-3.9388,-3.9388,-3.9388,-3.9388,-3.9481,-3.9879,-4.0393,-4.1008,-4.1174,-4.1588,-4.2109,-4.2061,-4.1612,-4.1247,-4.1087,-4.0542,-3.9692,-3.9308,-3.8967,-3.8383,-3.8553,-3.8725,-3.8947,-3.9822,-4.0306,-4.0406,-4.0978,-4.1086,-4.0648,-4.0831,-4.0789,-4.0583,-4.0728,-4.0894,-4.0894,-4.1088,-4.134,-4.1538,-4.1604,-4.1604,-4.1604,-4.1604,-4.1604,-4.1648,-4.167,-4.1692,-4.1714,-4.1697,-4.1653,-4.167,-4.1648,-4.1805,-4.2019,-4.221,-4.2412,-4.2512,-4.2331,-4.2145,-4.204,-4.1784,-4.1604,-4.1604,-4.1604,-4.1604,-4.1604,-4.1604,-4.1604,-4.1604,-4.1604,-4.1604,-4.1604,-4.1604,-4.1604,-4.1604,-4.1604,-4.1604,-4.1604,-4.1604,-4.1604,-4.1604,-4.1604,-4.1648,-4.1819,-4.1945,-4.2076,-4.2163,-4.2184,-4.2225,-4.2225,-4.2225,-4.2225,-4.2184,-4.2121,-4.2055,-3.6417,-3.6417,-3.6417,-3.6329,-3.6157,-3.6144,-3.583,-3.5399,-3.609,-3.6082,-3.5931,-3.6934,-3.7486,-3.7501,-3.8347,-3.887,-3.9031,-3.9265,-3.9388,-3.9388,-3.9388,-3.9388,-3.9388,-3.9388,-3.9388,-3.9424,-3.9574,-4.0076,-4.094,-4.0938,-4.1374,-4.2286,-4.2077,-4.1884,-4.1613,-4.1135,-4.0674,-4.0182,-3.9783,-3.9224,-3.8677,-3.9043,-3.9208,-3.8952,-3.9269,-3.9749,-4.0228,-4.0741,-4.0847,-4.0541,-4.0541,-4.0485,-4.032,-4.0655,-4.0894,-4.0918,-4.1088,-4.13,-4.152,-4.1604,-4.1604,-4.1604,-4.1604,-4.1604,-4.1604,-4.1604,-4.1604,-4.1604,-4.1604,-4.1604,-4.1604,-4.1604,-4.1653,-4.1762,-4.2103,-4.2348,-4.2228,-4.2166,-4.2037,-4.178,-4.167,-4.1626,-4.1604,-4.1604,-4.1604,-4.1604,-4.1604,-4.1604,-4.1604,-4.1604,-4.1604,-4.1604,-4.1604,-4.1604,-4.1604,-4.1604,-4.1604,-4.1604,-4.1604,-4.1604,-4.1604,-4.1604,-4.167,-4.1819,-4.1902,-4.203,-4.2121,-4.2187,-4.2228,-4.2267,-4.2267,-4.2225,-4.2205,-4.2142,-4.2097,-3.6417,-3.6417,-3.6417,-3.6417,-3.6417,-3.6417,-3.6182,-3.6058,-3.6642,-3.6831,-3.6762,-3.7286,-3.7739,-3.798,-3.8364,-3.8649,-3.8833,-3.9228,-3.9388,-3.9388,-3.9388,-3.9388,-3.9388,-3.9388,-3.9388,-3.9373,-3.9213,-3.9615,-4.0289,-4.0409,-4.0956,-4.1638,-4.1867,-4.1899,-4.1866,-4.1452,-4.0943,-4.0609,-4.0246,-3.9659,-3.8769,-3.9015,-3.8892,-3.8658,-3.8728,-3.9299,-4.0161,-4.0377,-4.0436,-4.0607,-4.0655,-4.0607,-4.0468,-4.0704,-4.0894,-4.0912,-4.1111,-4.1277,-4.1408,-4.1538,-4.1604,-4.1604,-4.1604,-4.1604,-4.1604,-4.1604,-4.1604,-4.1604,-4.1604,-4.1604,-4.1604,-4.1604,-4.1604,-4.1648,-4.1956,-4.2103,-4.1892,-4.187,-4.1801,-4.167,-4.1604,-4.1604,-4.1604,-4.1604,-4.1604,-4.1604,-4.1604,-4.1604,-4.1604,-4.1604,-4.1604,-4.1604,-4.1604,-4.1604,-4.1604,-4.1604,-4.1604,-4.1604,-4.1604,-4.1604,-4.1604,-4.1604,-4.167,-4.1776,-4.188,-4.1966,-4.2058,-4.2124,-4.2166,-4.2187,-4.2207,-4.2184,-4.2121,-4.2139,-4.2076,-3.6455,-3.6417,-3.6417,-3.6417,-3.6417,-3.6417,-3.6392,-3.6521,-3.7263,-3.7618,-3.77,-3.7844,-3.817,-3.8532,-3.8337,-3.8427,-3.876,-3.9192,-3.9352,-3.9388,-3.9388,-3.9388,-3.9388,-3.9301,-3.9228,-3.9104,-3.8855,-3.9081,-3.9535,-3.9783,-4.0274,-4.0992,-4.1425,-4.167,-4.1784,-4.164,-4.1289,-4.0877,-4.0751,-4.0151,-3.9186,-3.8914,-3.8653,-3.8254,-3.8427,-3.9005,-3.968,-3.991,-4.0062,-4.0776,-4.0823,-4.0776,-4.0793,-4.0799,-4.0894,-4.0918,-4.1041,-4.1163,-4.1277,-4.1453,-4.1582,-4.1582,-4.1604,-4.1604,-4.1604,-4.1604,-4.1604,-4.1604,-4.1604,-4.1604,-4.1604,-4.1604,-4.1604,-4.1626,-4.1648,-4.1626,-4.1604,-4.1604,-4.1604,-4.1604,-4.1604,-4.1604,-4.1604,-4.1604,-4.1604,-4.1604,-4.1604,-4.1604,-4.1604,-4.1604,-4.1604,-4.1604,-4.1604,-4.1604,-4.1604,-4.1604,-4.1604,-4.1604,-4.1604,-4.1604,-4.1604,-4.1626,-4.167,-4.1736,-4.1819,-4.1905,-4.1995,-4.204,-4.2082,-4.2082,-4.21,-4.2055,-4.2009,-4.2051,-4.203,-3.6807,-3.6417,-3.6417,-3.6417,-3.6417,-3.6417,-3.6417,-3.6546,-3.775,-3.819,-3.8349,-3.8502,-3.8654,-3.8809,-3.8381,-3.8263,-3.8501,-3.9031,-3.9388,-3.9388,-3.9388,-3.9388,-3.9316,-3.9104,-3.8797,-3.8575,-3.8389,-3.8605,-3.9066,-3.9499,-4.003,-4.069,-4.1158,-4.1456,-4.1637,-4.1638,-4.1541,-4.1383,-4.1351,-4.0893,-4.0119,-3.9503,-3.9011,-3.8494,-3.8529,-3.8712,-3.9032,-3.9532,-3.991,-4.017,-4.0402,-4.0468,-4.0444,-4.0704,-4.0871,-4.0918,-4.0965,-4.1152,-4.1403,-4.1386,-4.1368,-4.1582,-4.1604,-4.1604,-4.1604,-4.1604,-4.1604,-4.1604,-4.1604,-4.1604,-4.1604,-4.1604,-4.1604,-4.1604,-4.1604,-4.1604,-4.1604,-4.1604,-4.1604,-4.1604,-4.1604,-4.1604,-4.1604,-4.1604,-4.1604,-4.1604,-4.1604,-4.1604,-4.1604,-4.1604,-4.1604,-4.1604,-4.1604,-4.1604,-4.1604,-4.1604,-4.1604,-4.1604,-4.1604,-4.1604,-4.1604,-4.1604,-4.1648,-4.1692,-4.1754,-4.1823,-4.1931,-4.197,-4.203,-4.203,-4.1991,-4.1945,-4.1923,-4.1945,-4.1923,-3.6669,-3.6417,-3.6417,-3.6417,-3.6417,-3.6417,-3.6593,-3.7002,-3.7671,-3.8272,-3.8492,-3.849,-3.8488,-3.8677,-3.8376,-3.8277,-3.8575,-3.9083,-3.9388,-3.9388,-3.9388,-3.9301,-3.9104,-3.8943,-3.8686,-3.8427,-3.8066,-3.815,-3.842,-3.9066,-3.9697,-4.0243,-4.0974,-4.1538,-4.167,-4.1654,-4.1588,-4.1573,-4.1588,-4.1272,-4.0625,-4.023,-3.9487,-3.8707,-3.8386,-3.8339,-3.8723,-3.9001,-3.9489,-3.9868,-4.0079,-4.0213,-4.032,-4.0655,-4.0871,-4.0912,-4.1012,-4.1111,-4.1318,-4.1408,-4.1471,-4.1582,-4.1604,-4.1604,-4.1604,-4.1604,-4.1604,-4.1604,-4.1604,-4.1604,-4.1604,-4.1604,-4.1604,-4.1604,-4.1604,-4.1604,-4.1604,-4.1604,-4.1604,-4.1604,-4.1604,-4.1604,-4.1604,-4.1604,-4.1604,-4.1604,-4.1604,-4.1604,-4.1604,-4.1604,-4.1604,-4.1604,-4.1604,-4.1604,-4.1604,-4.1604,-4.1604,-4.1604,-4.1604,-4.1604,-4.1604,-4.1604,-4.1604,-4.1648,-4.1692,-4.1754,-4.1819,-4.188,-4.1902,-4.1884,-4.1862,-4.1819,-4.1797,-4.1776,-4.1754,-3.648,-3.6417,-3.6417,-3.6417,-3.6417,-3.6546,-3.6909,-3.7407,-3.7625,-3.8185,-3.846,-3.8044,-3.8098,-3.8314,-3.8294,-3.8427,-3.8797,-3.9068,-3.9228,-3.9083,-3.9316,-3.9141,-3.8943,-3.8819,-3.8782,-3.8708,-3.8028,-3.7725,-3.7962,-3.8642,-3.9305,-3.9768,-4.0888,-4.1505,-4.1703,-4.1703,-4.1588,-4.1588,-4.1588,-4.1399,-4.0877,-4.0609,-3.9835,-3.8695,-3.8007,-3.8004,-3.8367,-3.8618,-3.892,-3.9697,-3.967,-3.9893,-4.0271,-4.0655,-4.0888,-4.0871,-4.1018,-4.118,-4.1318,-4.1431,-4.1515,-4.1582,-4.1604,-4.1604,-4.1604,-4.1604,-4.1604,-4.1604,-4.1604,-4.1604,-4.1604,-4.1604,-4.1604,-4.1604,-4.1604,-4.1604,-4.1604,-4.1604,-4.1604,-4.1604,-4.1604,-4.1604,-4.1604,-4.1604,-4.1604,-4.1604,-4.1604,-4.1604,-4.1604,-4.1604,-4.1604,-4.1604,-4.1604,-4.1604,-4.1604,-4.1604,-4.1604,-4.1604,-4.1604,-4.1604,-4.1604,-4.1604,-4.1604,-4.1604,-4.1648,-4.1692,-4.1714,-4.1754,-4.1776,-4.1758,-4.1736,-4.1714,-4.167,-4.1604,-4.1604,-3.682,-3.6417,-3.6417,-3.6417,-3.6499,-3.7049,-3.7361,-3.7606,-3.8194,-3.8551,-3.8579,-3.8116,-3.7912,-3.8,-3.815,-3.8404,-3.8686,-3.8907,-3.8797,-3.8738,-3.9046,-3.9177,-3.8943,-3.8855,-3.8855,-3.8598,-3.8052,-3.7725,-3.7801,-3.8449,-3.9081,-3.957,-4.0581,-4.129,-4.1588,-4.1637,-4.1588,-4.1588,-4.1588,-4.1462,-4.1288,-4.0783,-3.9993,-3.8697,-3.8014,-3.7825,-3.8033,-3.8258,-3.8495,-3.8799,-3.9007,-3.9276,-3.967,-4.0204,-4.0607,-4.0888,-4.0965,-4.1152,-4.1431,-4.1386,-4.1431,-4.1538,-4.1604,-4.1604,-4.1604,-4.1604,-4.1604,-4.1604,-4.1604,-4.1604,-4.1604,-4.1604,-4.1604,-4.1604,-4.1604,-4.1604,-4.1604,-4.1604,-4.1604,-4.1604,-4.1604,-4.1604,-4.1604,-4.1604,-4.1604,-4.1604,-4.1604,-4.1604,-4.1604,-4.1604,-4.1604,-4.1604,-4.1604,-4.1604,-4.1604,-4.1604,-4.1604,-4.1604,-4.1604,-4.1604,-4.1604,-4.1604,-4.1604,-4.1604,-4.1604,-4.1626,-4.1648,-4.1648,-4.1648,-4.167,-4.1648,-4.1626,-4.1626,-4.1604,-4.1604,-3.6656,-3.6417,-3.6417,-3.6417,-3.6546,-3.7188,-3.7502,-3.7653,-3.8347,-3.8557,-3.8269,-3.8038,-3.7828,-3.7781,-3.782,-3.8089,-3.8427,-3.8708,-3.8671,-3.8686,-3.9104,-3.9337,-3.9104,-3.9104,-3.909,-3.8943,-3.8501,-3.7953,-3.7725,-3.8427,-3.895,-3.9478,-4.0339,-4.1039,-4.1489,-4.1588,-4.1588,-4.1588,-4.1588,-4.1588,-4.1525,-4.0925,-4.0008,-3.9171,-3.8365,-3.7995,-3.782,-3.7976,-3.8274,-3.8539,-3.875,-3.8942,-3.9265,-3.9644,-4.0229,-4.0734,-4.0989,-4.1198,-4.1515,-4.1493,-4.1515,-4.1582,-4.1604,-4.1604,-4.1604,-4.1604,-4.1604,-4.1604,-4.1604,-4.1604,-4.1604,-4.1604,-4.1604,-4.1604,-4.1604,-4.1604,-4.1604,-4.1604,-4.1604,-4.1604,-4.1604,-4.1604,-4.1604,-4.1604,-4.1604,-4.1604,-4.1604,-4.1604,-4.1604,-4.1604,-4.1604,-4.1604,-4.1604,-4.1604,-4.1604,-4.1604,-4.1604,-4.1604,-4.1604,-4.1604,-4.1604,-4.1604,-4.1604,-4.1604,-4.1604,-4.1604,-4.1604,-4.1626,-4.1604,-4.1604,-4.1604,-4.1604,-4.1604,-4.1604,-4.1604,-3.6417,-3.6417,-3.6417,-3.6499,-3.6709,-3.7278,-3.7635,-3.7889,-3.8314,-3.8297,-3.7936,-3.7737,-3.7571,-3.7532,-3.751,-3.7672,-3.8089,-3.8427,-3.8449,-3.856,-3.8995,-3.9265,-3.9265,-3.9388,-3.9352,-3.925,-3.9068,-3.8538,-3.8165,-3.8501,-3.8987,-3.955,-4.0185,-4.0854,-4.1456,-4.1588,-4.1588,-4.1588,-4.1588,-4.1588,-4.143,-4.0941,-4.0356,-3.9692,-3.8934,-3.8283,-3.8034,-3.791,-3.8091,-3.8303,-3.8472,-3.8583,-3.8816,-3.9017,-3.961,-4.05,-4.0931,-4.1249,-4.1431,-4.1582,-4.1582,-4.1604,-4.1604,-4.1604,-4.1604,-4.1604,-4.1604,-4.1604,-4.1604,-4.1604,-4.1604,-4.1604,-4.1604,-4.1604,-4.1604,-4.1604,-4.1604,-4.1604,-4.1604,-4.1604,-4.1604,-4.1604,-4.1604,-4.1604,-4.1604,-4.1604,-4.1604,-4.1604,-4.1604,-4.1604,-4.1604,-4.1604,-4.1604,-4.1604,-4.1604,-4.1604,-4.1604,-4.1604,-4.1604,-4.1604,-4.1604,-4.1604,-4.1604,-4.1604,-4.1604,-4.1604,-4.1604,-4.1604,-4.1604,-4.1604,-4.1604,-4.1604,-4.1604,-4.1604,-4.1604,-3.6417,-3.6405,-3.6405,-3.6769,-3.7291,-3.7472,-3.793,-3.8408,-3.8117,-3.798,-3.7793,-3.7372,-3.713,-3.7123,-3.7095,-3.7341,-3.7649,-3.7877,-3.7991,-3.8165,-3.8686,-3.9017,-3.898,-3.9265,-3.9388,-3.9373,-3.9337,-3.9104,-3.8723,-3.8745,-3.9169,-3.9763,-4.022,-4.0904,-4.1571,-4.1588,-4.1588,-4.1588,-4.1588,-4.1588,-4.1494,-4.0972,-4.0625,-4.0119,-3.9392,-3.8662,-3.8559,-3.828,-3.8104,-3.8056,-3.8036,-3.8148,-3.8298,-3.827,-3.8892,-3.9765,-4.0524,-4.1018,-4.1255,-4.1475,-4.1604,-4.1604,-4.1604,-4.1604,-4.1604,-4.1604,-4.1604,-4.1604,-4.1604,-4.1604,-4.1604,-4.1604,-4.1604,-4.1604,-4.1604,-4.1604,-4.1604,-4.1604,-4.1604,-4.1604,-4.1604,-4.1604,-4.1604,-4.1604,-4.1604,-4.1604,-4.1604,-4.1604,-4.1604,-4.1604,-4.1604,-4.1604,-4.1604,-4.1604,-4.1604,-4.1604,-4.1604,-4.1604,-4.1604,-4.1604,-4.1604,-4.1604,-4.1604,-4.1604,-4.1604,-4.1604,-4.1604,-4.1604,-4.1604,-4.1604,-4.1604,-4.1604,-4.1604,-4.1604,-4.1604,-3.5617,-3.5893,-3.5906,-3.6121,-3.6528,-3.6933,-3.7308,-3.7619,-3.7808,-3.7709,-3.74,-3.7133,-3.6978,-3.6978,-3.6978,-3.7226,-3.7572,-3.7801,-3.8089,-3.8277,-3.8797,-3.909,-3.9177,-3.9301,-3.9388,-3.9388,-3.9388,-3.9337,-3.9104,-3.898,-3.9169,-3.9869,-4.0115,-4.0718,-4.1637,-4.1654,-4.1703,-4.1719,-4.167,-4.1588,-4.1558,-4.1418,-4.115,-4.0753,-4.0166,-3.972,-3.9273,-3.882,-3.8483,-3.8312,-3.8059,-3.7847,-3.796,-3.8087,-3.8479,-3.9125,-3.9885,-4.0531,-4.11,-4.1431,-4.1542,-4.1604,-4.1604,-4.1604,-4.1604,-4.1604,-4.1604,-4.1604,-4.1604,-4.1604,-4.1604,-4.1604,-4.1604,-4.1604,-4.1604,-4.1604,-4.1604,-4.1604,-4.1604,-4.1604,-4.1604,-4.1604,-4.1604,-4.1604,-4.1604,-4.1604,-4.1604,-4.1604,-4.1604,-4.1604,-4.1604,-4.1604,-4.1604,-4.1604,-4.1604,-4.1604,-4.1604,-4.1604,-4.1604,-4.1604,-4.1604,-4.1604,-4.1604,-4.1604,-4.1604,-4.1604,-4.1604,-4.1604,-4.1604,-4.1604,-4.1604,-4.1604,-4.1604,-4.1604,-4.1604,-3.4889,-3.5094,-3.5232,-3.5453,-3.5771,-3.6326,-3.6676,-3.6921,-3.743,-3.74,-3.7091,-3.6978,-3.6978,-3.6978,-3.7017,-3.7134,-3.7457,-3.7877,-3.8277,-3.8649,-3.9017,-3.925,-3.9337,-3.9388,-3.9388,-3.9388,-3.9388,-3.9373,-3.9301,-3.9199,-3.94,-4.0095,-4.008,-4.0718,-4.1505,-4.1784,-4.1752,-4.1736,-4.1654,-4.1588,-4.1621,-4.1784,-4.1484,-4.1199,-4.096,-4.0736,-4.0085,-3.9494,-3.9111,-3.8695,-3.8303,-3.8016,-3.7852,-3.786,-3.823,-3.8799,-3.9428,-4.0095,-4.0754,-4.1232,-4.1475,-4.1565,-4.1604,-4.1604,-4.1604,-4.1604,-4.1604,-4.1604,-4.1604,-4.1604,-4.1604,-4.1604,-4.1604,-4.1604,-4.1604,-4.1604,-4.1604,-4.1604,-4.1604,-4.1604,-4.1604,-4.1604,-4.1604,-4.1604,-4.1604,-4.1604,-4.1604,-4.1604,-4.1604,-4.1604,-4.1604,-4.1604,-4.1604,-4.1604,-4.1604,-4.1604,-4.1604,-4.1604,-4.1604,-4.1604,-4.1604,-4.1604,-4.1604,-4.1604,-4.1604,-4.1604,-4.1604,-4.1604,-4.1604,-4.1604,-4.1604,-4.1604,-4.1604,-4.1604,-4.1604,-3.4437,-3.406,-3.455,-3.5149,-3.5755,-3.5877,-3.6328,-3.6879,-3.7037,-3.7077,-3.6993,-3.6978,-3.6978,-3.6978,-3.6978,-3.7017,-3.7095,-3.7457,-3.7938,-3.8315,-3.8649,-3.9068,-3.9228,-3.9301,-3.9388,-3.9388,-3.9352,-3.9316,-3.9388,-3.9337,-3.9859,-4.0578,-4.0355,-4.0953,-4.1554,-4.1866,-4.1752,-4.1703,-4.1588,-4.1588,-4.1654,-4.1736,-4.1738,-4.1514,-4.1103,-4.0769,-4.0706,-4.0133,-3.9622,-3.9157,-3.8685,-3.8291,-3.7912,-3.7705,-3.802,-3.8579,-3.8936,-3.961,-4.036,-4.0977,-4.134,-4.1498,-4.1604,-4.1604,-4.1604,-4.1604,-4.1604,-4.1604,-4.1604,-4.1604,-4.1604,-4.1604,-4.1604,-4.1604,-4.1604,-4.1604,-4.1604,-4.1604,-4.1604,-4.1604,-4.1604,-4.1604,-4.1604,-4.1604,-4.1604,-4.1604,-4.1604,-4.1604,-4.1604,-4.1604,-4.1604,-4.1604,-4.1604,-4.1604,-4.1604,-4.1604,-4.1604,-4.1604,-4.1604,-4.1604,-4.1604,-4.1604,-4.1604,-4.1604,-4.1604,-4.1604,-4.1604,-4.1604,-4.1604,-4.1604,-4.1604,-4.1604,-4.1604,-4.1604,-4.1604,-3.3583,-3.3463,-3.4043,-3.4723,-3.5321,-3.536,-3.5954,-3.6853,-3.6999,-3.6978,-3.6978,-3.6978,-3.6978,-3.6978,-3.7017,-3.7134,-3.738,-3.7801,-3.8014,-3.8352,-3.8797,-3.9068,-3.9141,-3.9053,-3.9141,-3.9265,-3.9192,-3.9192,-3.9373,-3.9409,-4.0056,-4.0528,-4.0681,-4.1223,-4.1703,-4.1931,-4.1784,-4.167,-4.1588,-4.1588,-4.1637,-4.1784,-4.1866,-4.1769,-4.1772,-4.1565,-4.1406,-4.0769,-4.0324,-3.9817,-3.9073,-3.855,-3.8092,-3.7747,-3.7833,-3.8315,-3.8551,-3.9082,-4.0003,-4.0621,-4.1111,-4.134,-4.1475,-4.1604,-4.1604,-4.1604,-4.1604,-4.1604,-4.1604,-4.1604,-4.1604,-4.1604,-4.1604,-4.1604,-4.1582,-4.1565,-4.1604,-4.1604,-4.1604,-4.1604,-4.1604,-4.1604,-4.1604,-4.1604,-4.1604,-4.1604,-4.1604,-4.1604,-4.1604,-4.1604,-4.1604,-4.1604,-4.1604,-4.1604,-4.1604,-4.1604,-4.1604,-4.1604,-4.1604,-4.1604,-4.1604,-4.1604,-4.1604,-4.1604,-4.1604,-4.1604,-4.1604,-4.1604,-4.1604,-4.1604,-4.1604,-4.1604,-4.1604,-4.1604,-4.1604,-3.3124,-3.321,-3.3836,-3.4356,-3.4758,-3.5114,-3.5803,-3.6626,-3.6915,-3.6978,-3.6978,-3.6978,-3.6978,-3.6978,-3.6978,-3.7095,-3.7419,-3.7725,-3.7953,-3.824,-3.8553,-3.8811,-3.8723,-3.8649,-3.8723,-3.8958,-3.8848,-3.8797,-3.9177,-3.9358,-4.0076,-4.0718,-4.1107,-4.1573,-4.1851,-4.198,-4.1784,-4.1654,-4.1654,-4.1621,-4.167,-4.18,-4.1833,-4.1833,-4.1884,-4.1916,-4.1723,-4.1277,-4.088,-4.0293,-3.9613,-3.8807,-3.8349,-3.7983,-3.7793,-3.7943,-3.8169,-3.8579,-3.9418,-4.0353,-4.0965,-4.1249,-4.1363,-4.1475,-4.1582,-4.1604,-4.1604,-4.1604,-4.1604,-4.1582,-4.1538,-4.1453,-4.1431,-4.1391,-4.1413,-4.1413,-4.1542,-4.1604,-4.1604,-4.1604,-4.1604,-4.1604,-4.1604,-4.1604,-4.1604,-4.1604,-4.1604,-4.1604,-4.1604,-4.1604,-4.1604,-4.1604,-4.1604,-4.1604,-4.1604,-4.1604,-4.1604,-4.1604,-4.1604,-4.1604,-4.1604,-4.1604,-4.1604,-4.1604,-4.1604,-4.1604,-4.1604,-4.1604,-4.1604,-4.1604,-4.1604,-4.1604,-4.1604,-4.1604,-4.1604,-3.3111,-3.3167,-3.3878,-3.416,-3.4439,-3.5453,-3.6031,-3.631,-3.6744,-3.6978,-3.6978,-3.6978,-3.6978,-3.6978,-3.6978,-3.7056,-3.7134,-3.7495,-3.7649,-3.7763,-3.8165,-3.8225,-3.824,-3.8254,-3.8315,-3.824,-3.824,-3.8427,-3.8833,-3.9111,-3.994,-4.0687,-4.1127,-4.1705,-4.2045,-4.1947,-4.1784,-4.1654,-4.1784,-4.1752,-4.167,-4.1784,-4.1752,-4.1736,-4.1817,-4.185,-4.1754,-4.1625,-4.1244,-4.0801,-3.9882,-3.9139,-3.8649,-3.7891,-3.7687,-3.7972,-3.8014,-3.8315,-3.8843,-4.0129,-4.0717,-4.1094,-4.1249,-4.1386,-4.152,-4.1582,-4.156,-4.1498,-4.1515,-4.1431,-4.1323,-4.1232,-4.1237,-4.1255,-4.1277,-4.1277,-4.1408,-4.1448,-4.1403,-4.1453,-4.1538,-4.1582,-4.1604,-4.1604,-4.1604,-4.1604,-4.1604,-4.1604,-4.1604,-4.1604,-4.1604,-4.1604,-4.1604,-4.1604,-4.1604,-4.1604,-4.1604,-4.1604,-4.1604,-4.1604,-4.1604,-4.1604,-4.1604,-4.1604,-4.1604,-4.1604,-4.1604,-4.1604,-4.1604,-4.1604,-4.1604,-4.1604,-4.1604,-4.1604,-4.1604,-3.3368,-3.3823,-3.4439,-3.4964,-3.5386,-3.579,-3.623,-3.6665,-3.69,-3.6978,-3.6978,-3.6978,-3.6978,-3.6978,-3.6978,-3.6978,-3.7056,-3.738,-3.7534,-3.7289,-3.781,-3.7938,-3.7915,-3.7839,-3.7901,-3.8052,-3.8014,-3.8014,-3.8412,-3.873,-3.903,-3.9703,-4.0876,-4.1525,-4.2029,-4.2125,-4.1964,-4.1817,-4.1866,-4.1833,-4.1621,-4.167,-4.167,-4.1606,-4.1654,-4.1703,-4.1719,-4.1637,-4.148,-4.1101,-4.0198,-3.9376,-3.8918,-3.8221,-3.7585,-3.7714,-3.7714,-3.7902,-3.8343,-3.9162,-3.9961,-4.058,-4.1024,-4.1186,-4.1538,-4.1408,-4.1386,-4.1318,-4.1244,-4.118,-4.1186,-4.1169,-4.1192,-4.1232,-4.1209,-4.1134,-4.1152,-4.1129,-4.1105,-4.1226,-4.1323,-4.1515,-4.156,-4.1604,-4.1604,-4.1604,-4.1604,-4.1604,-4.1604,-4.1604,-4.1604,-4.1604,-4.1604,-4.1604,-4.1604,-4.1604,-4.1604,-4.1604,-4.1604,-4.1604,-4.1604,-4.1604,-4.1604,-4.1604,-4.1604,-4.1604,-4.1604,-4.1604,-4.1604,-4.1604,-4.1604,-4.1604,-4.1604,-4.1604,-4.1604,-3.3368,-3.3823,-3.4662,-3.5237,-3.5696,-3.6137,-3.6626,-3.694,-3.6978,-3.6978,-3.6978,-3.6978,-3.6978,-3.6978,-3.6978,-3.6978,-3.7017,-3.7226,-3.7341,-3.7056,-3.7481,-3.7534,-3.7457,-3.7419,-3.7495,-3.7672,-3.761,-3.761,-3.8014,-3.8173,-3.8942,-3.9894,-4.0432,-4.136,-4.1932,-4.2093,-4.1947,-4.1817,-4.18,-4.1817,-4.1654,-4.1588,-4.1588,-4.1588,-4.1588,-4.1588,-4.1588,-4.1588,-4.1588,-4.1193,-4.0435,-3.9534,-3.9108,-3.8395,-3.7605,-3.751,-3.7539,-3.7714,-3.8144,-3.8371,-3.9216,-4.0087,-4.0417,-4.0795,-4.1134,-4.1007,-4.1024,-4.0995,-4.0918,-4.0924,-4.0954,-4.1001,-4.0984,-4.1001,-4.0954,-4.0894,-4.0965,-4.0918,-4.0965,-4.1071,-4.1255,-4.1408,-4.1538,-4.1582,-4.1604,-4.1604,-4.1604,-4.1604,-4.1604,-4.1604,-4.1604,-4.1604,-4.1604,-4.1604,-4.1604,-4.1604,-4.1604,-4.1604,-4.1604,-4.1604,-4.1604,-4.1604,-4.1604,-4.1604,-4.1604,-4.1604,-4.1604,-4.1604,-4.1604,-4.1604,-4.1604,-4.1604,-4.1604,-4.1604,-4.1604,-3.3124,-3.3313,-3.4509,-3.5032,-3.5277,-3.6415,-3.6978,-3.6978,-3.6978,-3.6978,-3.6978,-3.6978,-3.6978,-3.6978,-3.6978,-3.6978,-3.6978,-3.7017,-3.7017,-3.7017,-3.7173,-3.7095,-3.7095,-3.7056,-3.7187,-3.7095,-3.7095,-3.7303,-3.7596,-3.7857,-3.8949,-4.0174,-4.0413,-4.1109,-4.154,-4.1866,-4.1784,-4.1784,-4.1833,-4.1784,-4.1621,-4.1588,-4.1588,-4.1588,-4.1588,-4.1588,-4.1588,-4.1588,-4.1588,-4.113,-4.0309,-3.974,-3.906,-3.8221,-3.7763,-3.751,-3.751,-3.7714,-3.7915,-3.8059,-3.8411,-3.9162,-3.9189,-3.9808,-4.036,-4.049,-4.0507,-4.0645,-4.0662,-4.0631,-4.0631,-4.0614,-4.059,-4.059,-4.059,-4.0655,-4.0799,-4.0847,-4.0901,-4.1041,-4.1249,-4.1403,-4.1471,-4.1538,-4.1498,-4.1604,-4.1604,-4.1604,-4.1604,-4.1604,-4.1604,-4.1604,-4.1604,-4.1604,-4.1604,-4.1604,-4.1604,-4.1604,-4.1604,-4.1604,-4.1604,-4.1604,-4.1604,-4.1604,-4.1604,-4.1604,-4.1604,-4.1604,-4.1604,-4.1604,-4.1604,-4.1604,-4.1604,-4.1604,-4.1604,-3.3381,-3.3907,-3.4675,-3.525,-3.5817,-3.6626,-3.6978,-3.6978,-3.6978,-3.6978,-3.6978,-3.6978,-3.6978,-3.6978,-3.6978,-3.6978,-3.6978,-3.6978,-3.6978,-3.6978,-3.6978,-3.6978,-3.6978,-3.6978,-3.6978,-3.6978,-3.7017,-3.7056,-3.7173,-3.7438,-3.7971,-3.8811,-3.9854,-4.0413,-4.1024,-4.144,-4.1621,-4.1768,-4.1833,-4.1752,-4.1654,-4.1588,-4.1588,-4.1588,-4.1588,-4.1588,-4.1588,-4.1588,-4.1588,-4.1351,-4.023,-3.9534,-3.9392,-3.8301,-3.751,-3.751,-3.751,-3.7553,-3.7671,-3.7685,-3.7902,-3.8258,-3.823,-3.8723,-3.943,-3.9876,-3.9893,-4.0062,-4.0279,-4.0271,-4.0296,-4.032,-4.037,-4.0436,-4.037,-4.037,-4.0493,-4.0566,-4.0638,-4.0853,-4.1088,-4.118,-4.1272,-4.1318,-4.1318,-4.1498,-4.1604,-4.1582,-4.1604,-4.1604,-4.1604,-4.1604,-4.1604,-4.1604,-4.1604,-4.1604,-4.1604,-4.1604,-4.1604,-4.1604,-4.1604,-4.1604,-4.1604,-4.1604,-4.1604,-4.1604,-4.1604,-4.1604,-4.1604,-4.1604,-4.1604,-4.1604,-4.1604,-4.1604,-4.1604,-3.2655,-3.3101,-3.3705,-3.462,-3.5687,-3.6342,-3.674,-3.6936,-3.6978,-3.6978,-3.6978,-3.6978,-3.6978,-3.6978,-3.6978,-3.6978,-3.6978,-3.6978,-3.6978,-3.6978,-3.6978,-3.6978,-3.6978,-3.6978,-3.6978,-3.6978,-3.6978,-3.7017,-3.7056,-3.7443,-3.7962,-3.8774,-3.9391,-4.015,-4.0888,-4.1456,-4.1621,-4.1736,-4.1736,-4.1703,-4.1637,-4.1588,-4.1588,-4.1588,-4.1588,-4.1588,-4.1588,-4.1588,-4.1588,-4.1399,-4.0245,-3.9534,-3.9281,-3.827,-3.7541,-3.751,-3.751,-3.751,-3.7569,-3.7539,-3.7671,-3.7759,-3.7655,-3.7972,-3.8423,-3.8849,-3.9109,-3.9348,-3.9653,-3.9876,-3.9978,-4.0079,-4.0196,-4.0337,-4.0196,-4.0054,-4.0146,-4.0221,-4.0395,-4.0614,-4.0782,-4.0894,-4.0971,-4.1041,-4.114,-4.1318,-4.1431,-4.1475,-4.152,-4.1604,-4.1604,-4.1604,-4.1604,-4.1604,-4.1604,-4.1604,-4.1604,-4.1604,-4.1604,-4.1604,-4.1604,-4.1604,-4.1604,-4.1604,-4.1604,-4.1604,-4.1604,-4.1604,-4.1604,-4.1604,-4.1604,-4.1604,-4.1604,-4.1604,-4.1604,-3.1452,-3.1546,-3.2182,-3.366,-3.5148,-3.5805,-3.6314,-3.6849,-3.6726,-3.6919,-3.6936,-3.6978,-3.6978,-3.6978,-3.6978,-3.6978,-3.6978,-3.6978,-3.6978,-3.6978,-3.6978,-3.6978,-3.6978,-3.6978,-3.6978,-3.6978,-3.6978,-3.6978,-3.7211,-3.7658,-3.836,-3.9305,-3.9995,-4.0718,-4.1341,-4.1522,-4.1621,-4.1621,-4.167,-4.1637,-4.1621,-4.1588,-4.1588,-4.1588,-4.1588,-4.1588,-4.1588,-4.1588,-4.1588,-4.113,-4.0435,-3.9566,-3.876,-3.8223,-3.7668,-3.751,-3.751,-3.751,-3.751,-3.751,-3.751,-3.7539,-3.751,-3.7612,-3.7931,-3.827,-3.859,-3.881,-3.9125,-3.9355,-3.9487,-3.9653,-3.9825,-3.9952,-3.9952,-3.9995,-4.0096,-4.0171,-4.0296,-4.0468,-4.0485,-4.0607,-4.0758,-4.0853,-4.0948,-4.1094,-4.1209,-4.1277,-4.1363,-4.1471,-4.1538,-4.1538,-4.1582,-4.1582,-4.1604,-4.1604,-4.1604,-4.1604,-4.1582,-4.1604,-4.1604,-4.1604,-4.1604,-4.1604,-4.1604,-4.1604,-4.1604,-4.1604,-4.1604,-4.1604,-4.1604,-4.1604,-4.1604,-4.1604,-4.1604,-3.1386,-3.1508,-3.262,-3.3937,-3.5139,-3.5377,-3.5498,-3.5625,-3.5625,-3.6174,-3.6838,-3.695,-3.695,-3.6908,-3.6908,-3.6922,-3.6978,-3.6978,-3.6978,-3.6978,-3.6978,-3.6978,-3.6978,-3.6978,-3.6978,-3.6978,-3.6978,-3.7017,-3.7173,-3.781,-3.8583,-3.932,-4.0115,-4.0854,-4.1555,-4.1588,-4.1588,-4.1588,-4.1588,-4.1588,-4.1588,-4.1588,-4.1588,-4.1588,-4.1588,-4.1588,-4.1588,-4.1588,-4.1588,-4.1351,-4.0198,-3.9108,-3.8032,-3.7654,-3.7541,-3.751,-3.751,-3.751,-3.751,-3.751,-3.751,-3.751,-3.751,-3.751,-3.7642,-3.7915,-3.8157,-3.8355,-3.8579,-3.8816,-3.9007,-3.9206,-3.9444,-3.9618,-3.9722,-3.9893,-4.0045,-4.0146,-4.0221,-4.0246,-4.0238,-4.0362,-4.0517,-4.0638,-4.0734,-4.083,-4.0924,-4.0995,-4.1018,-4.1129,-4.1335,-4.1403,-4.1538,-4.1582,-4.156,-4.1515,-4.1471,-4.1498,-4.152,-4.1542,-4.1582,-4.1604,-4.1604,-4.1604,-4.1604,-4.1604,-4.1604,-4.1604,-4.1604,-4.1604,-4.1604,-4.1604,-4.1604,-4.1604,-4.1604,-3.0817,-3.1187,-3.2387,-3.3469,-3.4298,-3.4635,-3.4922,-3.5161,-3.5189,-3.5555,-3.6131,-3.623,-3.6342,-3.6515,-3.6585,-3.6768,-3.688,-3.6978,-3.6978,-3.6978,-3.6978,-3.6978,-3.6978,-3.6978,-3.6978,-3.6978,-3.6978,-3.7017,-3.7134,-3.781,-3.8583,-3.9284,-4.008,-4.0836,-4.1489,-4.1588,-4.1588,-4.1588,-4.1588,-4.1588,-4.1588,-4.1588,-4.1588,-4.1588,-4.1588,-4.1588,-4.1588,-4.1557,-4.1383,-4.0877,-3.974,-3.8681,-3.7844,-3.7557,-3.751,-3.751,-3.751,-3.751,-3.751,-3.751,-3.751,-3.751,-3.751,-3.751,-3.751,-3.7743,-3.7772,-3.796,-3.823,-3.8483,-3.8595,-3.8772,-3.9179,-3.9435,-3.9355,-3.9382,-3.9696,-3.9952,-4.0054,-4.0146,-4.0163,-4.0171,-4.032,-4.032,-4.0444,-4.0614,-4.071,-4.0799,-4.0823,-4.0776,-4.1012,-4.1134,-4.1226,-4.1363,-4.1386,-4.1318,-4.1267,-4.1318,-4.1408,-4.1475,-4.1538,-4.1582,-4.1604,-4.1604,-4.1604,-4.1604,-4.1604,-4.1604,-4.1604,-4.1604,-4.1604,-4.1604,-4.1604,-4.1604,-4.1604,-3.0177,-3.0846,-3.1836,-3.2718,-3.334,-3.386,-3.4393,-3.4851,-3.4936,-3.4908,-3.4936,-3.4964,-3.5358,-3.5808,-3.6005,-3.6385,-3.6624,-3.6666,-3.6754,-3.6838,-3.6975,-3.6964,-3.6978,-3.6978,-3.6978,-3.6978,-3.6978,-3.6978,-3.7056,-3.7787,-3.856,-3.9262,-4.001,-4.0836,-4.1307,-4.1588,-4.1588,-4.1588,-4.1588,-4.1588,-4.1588,-4.1588,-4.1588,-4.1588,-4.1588,-4.1588,-4.1588,-4.1494,-4.1209,-4.0388,-3.9408,-3.8397,-3.7765,-3.751,-3.751,-3.751,-3.751,-3.751,-3.751,-3.751,-3.751,-3.751,-3.751,-3.751,-3.751,-3.751,-3.7539,-3.7671,-3.7931,-3.8059,-3.8201,-3.8439,-3.8854,-3.9142,-3.9007,-3.8952,-3.9329,-3.9653,-3.9773,-3.9918,-3.9944,-3.9952,-3.9978,-3.9978,-4.0196,-4.037,-4.051,-4.0607,-4.0655,-4.0583,-4.0638,-4.071,-4.0758,-4.0884,-4.1094,-4.1111,-4.1059,-4.1129,-4.1203,-4.1358,-4.1431,-4.1431,-4.1498,-4.1604,-4.1604,-4.1582,-4.1582,-4.1604,-4.1604,-4.1582,-4.1604,-4.1604,-4.1604,-4.1604,-4.1604,-3.0406,-3.1368,-3.1576,-3.2305,-3.3232,-3.3424,-3.3578,-3.3663,-3.3719,-3.3677,-3.3775,-3.3789,-3.4225,-3.5358,-3.5372,-3.5583,-3.5836,-3.6089,-3.6258,-3.63,-3.6722,-3.688,-3.6978,-3.6978,-3.6978,-3.6978,-3.6978,-3.6978,-3.7056,-3.7749,-3.824,-3.856,-3.9905,-4.0547,-4.0752,-4.1107,-4.1588,-4.1588,-4.1588,-4.1588,-4.1588,-4.1588,-4.1588,-4.1588,-4.1588,-4.1588,-4.1588,-4.1588,-4.1178,-4.0403,-3.9281,-3.8239,-3.7763,-3.751,-3.751,-3.751,-3.751,-3.751,-3.751,-3.751,-3.751,-3.751,-3.751,-3.751,-3.751,-3.751,-3.751,-3.751,-3.77,-3.77,-3.7831,-3.8087,-3.8439,-3.8579,-3.8567,-3.8706,-3.898,-3.9061,-3.9142,-3.9276,-3.9408,-3.9444,-3.9566,-3.9696,-4.0003,-4.0146,-4.0213,-4.0313,-4.0362,-4.032,-4.0296,-4.032,-4.0345,-4.0566,-4.0871,-4.0877,-4.0847,-4.0918,-4.1012,-4.1129,-4.1226,-4.1255,-4.1323,-4.1453,-4.1538,-4.1538,-4.1538,-4.1448,-4.1538,-4.1515,-4.1582,-4.1604,-4.1604,-4.1604,-4.1604]}]]